<?xml version='1.0' encoding='UTF-8'?>
<gpx version="1.1" creator="https://www.komoot.de" xmlns="http://www.topografix.com/GPX/1/1" xmlns:xsi="http://www.w3.org/2001/XMLSchema-instance" xsi:schemaLocation="http://www.topografix.com/GPX/1/1 http://www.topografix.com/GPX/1/1/gpx.xsd">
  <metadata>
    <name>53_750HarpolingenHuetten</name>
    <author>
      <link href="https://www.komoot.de">
        <text>komoot</text>
        <type>text/html</type>
      </link>
    </author>
  </metadata>
  <trk>
    <name>53_750HarpolingenHuetten</name>
    <trkseg>
      <trkpt lat="47.541576" lon="7.870664">
        <ele>341.421376</ele>
        <time>2021-11-13T15:09:45.902Z</time>
      </trkpt>
      <trkpt lat="47.541796" lon="7.871042">
        <ele>341.421376</ele>
        <time>2021-11-13T15:09:53.435Z</time>
      </trkpt>
      <trkpt lat="47.541953" lon="7.871286">
        <ele>341.421376</ele>
        <time>2021-11-13T15:09:58.365Z</time>
      </trkpt>
      <trkpt lat="47.542039" lon="7.871556">
        <ele>341.421376</ele>
        <time>2021-11-13T15:10:03.131Z</time>
      </trkpt>
      <trkpt lat="47.542067" lon="7.871664">
        <ele>341.421376</ele>
        <time>2021-11-13T15:10:04.743Z</time>
      </trkpt>
      <trkpt lat="47.542091" lon="7.871721">
        <ele>341.421376</ele>
        <time>2021-11-13T15:10:05.356Z</time>
      </trkpt>
      <trkpt lat="47.542218" lon="7.871866">
        <ele>342.070939</ele>
        <time>2021-11-13T15:10:10.836Z</time>
      </trkpt>
      <trkpt lat="47.542394" lon="7.872341">
        <ele>343.649972</ele>
        <time>2021-11-13T15:10:21.298Z</time>
      </trkpt>
      <trkpt lat="47.542436" lon="7.872494">
        <ele>344.131292</ele>
        <time>2021-11-13T15:10:24.684Z</time>
      </trkpt>
      <trkpt lat="47.542537" lon="7.872430">
        <ele>344.605519</ele>
        <time>2021-11-13T15:10:26.752Z</time>
      </trkpt>
      <trkpt lat="47.542714" lon="7.872334">
        <ele>345.419226</ele>
        <time>2021-11-13T15:10:33.905Z</time>
      </trkpt>
      <trkpt lat="47.542814" lon="7.872280">
        <ele>345.878709</ele>
        <time>2021-11-13T15:10:36.783Z</time>
      </trkpt>
      <trkpt lat="47.542919" lon="7.872226">
        <ele>346.358529</ele>
        <time>2021-11-13T15:10:40.623Z</time>
      </trkpt>
      <trkpt lat="47.543013" lon="7.872182">
        <ele>346.784099</ele>
        <time>2021-11-13T15:10:44.253Z</time>
      </trkpt>
      <trkpt lat="47.543233" lon="7.872082">
        <ele>347.777534</ele>
        <time>2021-11-13T15:10:51.351Z</time>
      </trkpt>
      <trkpt lat="47.543251" lon="7.872152">
        <ele>347.995820</ele>
        <time>2021-11-13T15:10:54.765Z</time>
      </trkpt>
      <trkpt lat="47.543332" lon="7.872237">
        <ele>348.424337</ele>
        <time>2021-11-13T15:10:58.175Z</time>
      </trkpt>
      <trkpt lat="47.544390" lon="7.872423">
        <ele>355.035776</ele>
        <time>2021-11-13T15:11:39.807Z</time>
      </trkpt>
      <trkpt lat="47.544883" lon="7.872555">
        <ele>358.332418</ele>
        <time>2021-11-13T15:12:02.150Z</time>
      </trkpt>
      <trkpt lat="47.545131" lon="7.872664">
        <ele>360.034634</ele>
        <time>2021-11-13T15:12:13.154Z</time>
      </trkpt>
      <trkpt lat="47.545375" lon="7.872836">
        <ele>361.785257</ele>
        <time>2021-11-13T15:12:24.095Z</time>
      </trkpt>
      <trkpt lat="47.545478" lon="7.872968">
        <ele>362.650320</ele>
        <time>2021-11-13T15:12:30.902Z</time>
      </trkpt>
      <trkpt lat="47.545515" lon="7.873015">
        <ele>362.959903</ele>
        <time>2021-11-13T15:12:32.859Z</time>
      </trkpt>
      <trkpt lat="47.545746" lon="7.873302">
        <ele>364.874863</ele>
        <time>2021-11-13T15:12:46.058Z</time>
      </trkpt>
      <trkpt lat="47.545934" lon="7.873549">
        <ele>366.470949</ele>
        <time>2021-11-13T15:12:56.158Z</time>
      </trkpt>
      <trkpt lat="47.546077" lon="7.873763">
        <ele>367.762026</ele>
        <time>2021-11-13T15:13:05.355Z</time>
      </trkpt>
      <trkpt lat="47.546135" lon="7.873859">
        <ele>368.314418</ele>
        <time>2021-11-13T15:13:08.594Z</time>
      </trkpt>
      <trkpt lat="47.546309" lon="7.874154">
        <ele>369.994072</ele>
        <time>2021-11-13T15:13:19.708Z</time>
      </trkpt>
      <trkpt lat="47.547126" lon="7.875801">
        <ele>375.730568</ele>
        <time>2021-11-13T15:14:05.469Z</time>
      </trkpt>
      <trkpt lat="47.547574" lon="7.876801">
        <ele>378.384585</ele>
        <time>2021-11-13T15:14:24.465Z</time>
      </trkpt>
      <trkpt lat="47.547992" lon="7.877974">
        <ele>377.103640</ele>
        <time>2021-11-13T15:14:37.266Z</time>
      </trkpt>
      <trkpt lat="47.548234" lon="7.878638">
        <ele>376.374912</ele>
        <time>2021-11-13T15:14:42.578Z</time>
      </trkpt>
      <trkpt lat="47.548422" lon="7.878959">
        <ele>375.964497</ele>
        <time>2021-11-13T15:14:45.421Z</time>
      </trkpt>
      <trkpt lat="47.548718" lon="7.879258">
        <ele>374.730488</ele>
        <time>2021-11-13T15:14:48.959Z</time>
      </trkpt>
      <trkpt lat="47.549140" lon="7.879391">
        <ele>372.898104</ele>
        <time>2021-11-13T15:14:53.146Z</time>
      </trkpt>
      <trkpt lat="47.549318" lon="7.879398">
        <ele>372.141852</ele>
        <time>2021-11-13T15:14:54.773Z</time>
      </trkpt>
      <trkpt lat="47.549327" lon="7.879547">
        <ele>371.713020</ele>
        <time>2021-11-13T15:14:55.759Z</time>
      </trkpt>
      <trkpt lat="47.549726" lon="7.880786">
        <ele>367.845712</ele>
        <time>2021-11-13T15:15:04.694Z</time>
      </trkpt>
      <trkpt lat="47.549927" lon="7.881490">
        <ele>366.025283</ele>
        <time>2021-11-13T15:15:09.726Z</time>
      </trkpt>
      <trkpt lat="47.550234" lon="7.883221">
        <ele>361.743842</ele>
        <time>2021-11-13T15:15:22.126Z</time>
      </trkpt>
      <trkpt lat="47.550332" lon="7.884727">
        <ele>357.158149</ele>
        <time>2021-11-13T15:15:31.971Z</time>
      </trkpt>
      <trkpt lat="47.550391" lon="7.885109">
        <ele>355.970421</ele>
        <time>2021-11-13T15:15:34.503Z</time>
      </trkpt>
      <trkpt lat="47.550548" lon="7.885799">
        <ele>353.763470</ele>
        <time>2021-11-13T15:15:39.108Z</time>
      </trkpt>
      <trkpt lat="47.550677" lon="7.886476">
        <ele>351.017820</ele>
        <time>2021-11-13T15:15:43.538Z</time>
      </trkpt>
      <trkpt lat="47.550758" lon="7.887295">
        <ele>347.784548</ele>
        <time>2021-11-13T15:15:48.680Z</time>
      </trkpt>
      <trkpt lat="47.550789" lon="7.887816">
        <ele>345.741571</ele>
        <time>2021-11-13T15:15:51.912Z</time>
      </trkpt>
      <trkpt lat="47.550831" lon="7.888611">
        <ele>342.574524</ele>
        <time>2021-11-13T15:15:56.868Z</time>
      </trkpt>
      <trkpt lat="47.550833" lon="7.889069">
        <ele>340.655777</ele>
        <time>2021-11-13T15:15:59.678Z</time>
      </trkpt>
      <trkpt lat="47.550915" lon="7.890600">
        <ele>334.221775</ele>
        <time>2021-11-13T15:16:09.071Z</time>
      </trkpt>
      <trkpt lat="47.550904" lon="7.891725">
        <ele>330.584767</ele>
        <time>2021-11-13T15:16:16.075Z</time>
      </trkpt>
      <trkpt lat="47.550892" lon="7.893176">
        <ele>326.952782</ele>
        <time>2021-11-13T15:16:25.687Z</time>
      </trkpt>
      <trkpt lat="47.550908" lon="7.894308">
        <ele>325.052625</ele>
        <time>2021-11-13T15:16:34.892Z</time>
      </trkpt>
      <trkpt lat="47.550878" lon="7.895158">
        <ele>324.349747</ele>
        <time>2021-11-13T15:16:42.077Z</time>
      </trkpt>
      <trkpt lat="47.550838" lon="7.895509">
        <ele>324.055793</ele>
        <time>2021-11-13T15:16:45.241Z</time>
      </trkpt>
      <trkpt lat="47.550660" lon="7.896255">
        <ele>323.402392</ele>
        <time>2021-11-13T15:16:51.729Z</time>
      </trkpt>
      <trkpt lat="47.550639" lon="7.896345">
        <ele>323.323755</ele>
        <time>2021-11-13T15:16:52.917Z</time>
      </trkpt>
      <trkpt lat="47.550648" lon="7.896481">
        <ele>323.066996</ele>
        <time>2021-11-13T15:16:53.872Z</time>
      </trkpt>
      <trkpt lat="47.550819" lon="7.898109">
        <ele>319.764545</ele>
        <time>2021-11-13T15:17:05.620Z</time>
      </trkpt>
      <trkpt lat="47.550801" lon="7.900244">
        <ele>314.419126</ele>
        <time>2021-11-13T15:17:19.457Z</time>
      </trkpt>
      <trkpt lat="47.550769" lon="7.901362">
        <ele>311.214457</ele>
        <time>2021-11-13T15:17:26.729Z</time>
      </trkpt>
      <trkpt lat="47.550757" lon="7.901591">
        <ele>310.556659</ele>
        <time>2021-11-13T15:17:28.865Z</time>
      </trkpt>
      <trkpt lat="47.550688" lon="7.902451">
        <ele>308.386086</ele>
        <time>2021-11-13T15:17:37.299Z</time>
      </trkpt>
      <trkpt lat="47.550498" lon="7.903445">
        <ele>305.832530</ele>
        <time>2021-11-13T15:17:47.549Z</time>
      </trkpt>
      <trkpt lat="47.550302" lon="7.904164">
        <ele>303.915849</ele>
        <time>2021-11-13T15:17:54.809Z</time>
      </trkpt>
      <trkpt lat="47.550025" lon="7.904774">
        <ele>302.140233</ele>
        <time>2021-11-13T15:18:01.734Z</time>
      </trkpt>
      <trkpt lat="47.549868" lon="7.905010">
        <ele>301.341810</ele>
        <time>2021-11-13T15:18:04.865Z</time>
      </trkpt>
      <trkpt lat="47.549867" lon="7.905155">
        <ele>300.992416</ele>
        <time>2021-11-13T15:18:06.262Z</time>
      </trkpt>
      <trkpt lat="47.550067" lon="7.905245">
        <ele>300.246232</ele>
        <time>2021-11-13T15:18:09.187Z</time>
      </trkpt>
      <trkpt lat="47.550283" lon="7.905413">
        <ele>299.375344</ele>
        <time>2021-11-13T15:18:12.637Z</time>
      </trkpt>
      <trkpt lat="47.550497" lon="7.905558">
        <ele>298.535290</ele>
        <time>2021-11-13T15:18:15.996Z</time>
      </trkpt>
      <trkpt lat="47.549539" lon="7.908625">
        <ele>293.046176</ele>
        <time>2021-11-13T15:18:40.438Z</time>
      </trkpt>
      <trkpt lat="47.549520" lon="7.908678">
        <ele>292.992639</ele>
        <time>2021-11-13T15:18:40.942Z</time>
      </trkpt>
      <trkpt lat="47.549314" lon="7.909360">
        <ele>292.326076</ele>
        <time>2021-11-13T15:18:47.024Z</time>
      </trkpt>
      <trkpt lat="47.549195" lon="7.909756">
        <ele>291.939368</ele>
        <time>2021-11-13T15:18:50.584Z</time>
      </trkpt>
      <trkpt lat="47.549102" lon="7.910058">
        <ele>291.643233</ele>
        <time>2021-11-13T15:18:53.280Z</time>
      </trkpt>
      <trkpt lat="47.549012" lon="7.910340">
        <ele>291.364951</ele>
        <time>2021-11-13T15:18:55.798Z</time>
      </trkpt>
      <trkpt lat="47.548412" lon="7.912168">
        <ele>289.834894</ele>
        <time>2021-11-13T15:19:12.127Z</time>
      </trkpt>
      <trkpt lat="47.548027" lon="7.913334">
        <ele>288.984309</ele>
        <time>2021-11-13T15:19:22.888Z</time>
      </trkpt>
      <trkpt lat="47.547994" lon="7.913433">
        <ele>288.969626</ele>
        <time>2021-11-13T15:19:23.809Z</time>
      </trkpt>
      <trkpt lat="47.547423" lon="7.915080">
        <ele>288.723400</ele>
        <time>2021-11-13T15:19:41.297Z</time>
      </trkpt>
      <trkpt lat="47.547113" lon="7.915971">
        <ele>288.791433</ele>
        <time>2021-11-13T15:19:51.935Z</time>
      </trkpt>
      <trkpt lat="47.547091" lon="7.916039">
        <ele>288.819377</ele>
        <time>2021-11-13T15:19:52.985Z</time>
      </trkpt>
      <trkpt lat="47.547032" lon="7.916218">
        <ele>288.893195</ele>
        <time>2021-11-13T15:19:55.256Z</time>
      </trkpt>
      <trkpt lat="47.546821" lon="7.916867">
        <ele>289.160142</ele>
        <time>2021-11-13T15:20:03.671Z</time>
      </trkpt>
      <trkpt lat="47.546262" lon="7.919081">
        <ele>289.851373</ele>
        <time>2021-11-13T15:20:31.332Z</time>
      </trkpt>
      <trkpt lat="47.546128" lon="7.919617">
        <ele>289.966658</ele>
        <time>2021-11-13T15:20:36.760Z</time>
      </trkpt>
      <trkpt lat="47.545973" lon="7.920313">
        <ele>290.114481</ele>
        <time>2021-11-13T15:20:44.180Z</time>
      </trkpt>
      <trkpt lat="47.545913" lon="7.920765">
        <ele>290.350609</ele>
        <time>2021-11-13T15:20:48.937Z</time>
      </trkpt>
      <trkpt lat="47.545881" lon="7.921096">
        <ele>290.664415</ele>
        <time>2021-11-13T15:20:52.904Z</time>
      </trkpt>
      <trkpt lat="47.545810" lon="7.921755">
        <ele>291.290703</ele>
        <time>2021-11-13T15:21:01.514Z</time>
      </trkpt>
      <trkpt lat="47.545778" lon="7.921947">
        <ele>291.476302</ele>
        <time>2021-11-13T15:21:04.468Z</time>
      </trkpt>
      <trkpt lat="47.545714" lon="7.922249">
        <ele>291.773364</ele>
        <time>2021-11-13T15:21:08.321Z</time>
      </trkpt>
      <trkpt lat="47.545699" lon="7.922325">
        <ele>291.847675</ele>
        <time>2021-11-13T15:21:09.519Z</time>
      </trkpt>
      <trkpt lat="47.545690" lon="7.922369">
        <ele>291.890823</ele>
        <time>2021-11-13T15:21:10.590Z</time>
      </trkpt>
      <trkpt lat="47.545641" lon="7.922610">
        <ele>292.127035</ele>
        <time>2021-11-13T15:21:13.946Z</time>
      </trkpt>
      <trkpt lat="47.545587" lon="7.922895">
        <ele>292.404841</ele>
        <time>2021-11-13T15:21:18.778Z</time>
      </trkpt>
      <trkpt lat="47.545553" lon="7.923142">
        <ele>292.641417</ele>
        <time>2021-11-13T15:21:22.388Z</time>
      </trkpt>
      <trkpt lat="47.545536" lon="7.923407">
        <ele>293.266449</ele>
        <time>2021-11-13T15:21:27.264Z</time>
      </trkpt>
      <trkpt lat="47.545521" lon="7.923709">
        <ele>294.030266</ele>
        <time>2021-11-13T15:21:32.431Z</time>
      </trkpt>
      <trkpt lat="47.545481" lon="7.924396">
        <ele>295.769574</ele>
        <time>2021-11-13T15:21:47.034Z</time>
      </trkpt>
      <trkpt lat="47.545466" lon="7.924880">
        <ele>296.991691</ele>
        <time>2021-11-13T15:21:58.341Z</time>
      </trkpt>
      <trkpt lat="47.545446" lon="7.925350">
        <ele>298.179563</ele>
        <time>2021-11-13T15:22:08.716Z</time>
      </trkpt>
      <trkpt lat="47.545417" lon="7.925848">
        <ele>299.416077</ele>
        <time>2021-11-13T15:22:19.195Z</time>
      </trkpt>
      <trkpt lat="47.545409" lon="7.926773">
        <ele>300.620792</ele>
        <time>2021-11-13T15:22:36.396Z</time>
      </trkpt>
      <trkpt lat="47.545407" lon="7.927001">
        <ele>300.917739</ele>
        <time>2021-11-13T15:22:40.205Z</time>
      </trkpt>
      <trkpt lat="47.545406" lon="7.927306">
        <ele>301.314941</ele>
        <time>2021-11-13T15:22:44.809Z</time>
      </trkpt>
      <trkpt lat="47.545421" lon="7.927686">
        <ele>301.810656</ele>
        <time>2021-11-13T15:22:50.345Z</time>
      </trkpt>
      <trkpt lat="47.545475" lon="7.928419">
        <ele>302.770901</ele>
        <time>2021-11-13T15:22:59.662Z</time>
      </trkpt>
      <trkpt lat="47.545563" lon="7.929641">
        <ele>301.598718</ele>
        <time>2021-11-13T15:23:09.542Z</time>
      </trkpt>
      <trkpt lat="47.545661" lon="7.930955">
        <ele>300.161389</ele>
        <time>2021-11-13T15:23:18.937Z</time>
      </trkpt>
      <trkpt lat="47.545696" lon="7.931497">
        <ele>299.711924</ele>
        <time>2021-11-13T15:23:22.906Z</time>
      </trkpt>
      <trkpt lat="47.545721" lon="7.931992">
        <ele>299.367573</ele>
        <time>2021-11-13T15:23:26.699Z</time>
      </trkpt>
      <trkpt lat="47.545724" lon="7.932758">
        <ele>298.836174</ele>
        <time>2021-11-13T15:23:32.908Z</time>
      </trkpt>
      <trkpt lat="47.545702" lon="7.933290">
        <ele>298.466422</ele>
        <time>2021-11-13T15:23:37.551Z</time>
      </trkpt>
      <trkpt lat="47.545674" lon="7.933625">
        <ele>298.232251</ele>
        <time>2021-11-13T15:23:40.751Z</time>
      </trkpt>
      <trkpt lat="47.545457" lon="7.935110">
        <ele>299.094728</ele>
        <time>2021-11-13T15:23:58.886Z</time>
      </trkpt>
      <trkpt lat="47.545074" lon="7.936484">
        <ele>300.254374</ele>
        <time>2021-11-13T15:24:20.414Z</time>
      </trkpt>
      <trkpt lat="47.544903" lon="7.936917">
        <ele>300.853120</ele>
        <time>2021-11-13T15:24:27.730Z</time>
      </trkpt>
      <trkpt lat="47.544705" lon="7.937395">
        <ele>301.522481</ele>
        <time>2021-11-13T15:24:35.914Z</time>
      </trkpt>
      <trkpt lat="47.544472" lon="7.937932">
        <ele>302.284396</ele>
        <time>2021-11-13T15:24:45.321Z</time>
      </trkpt>
      <trkpt lat="47.543826" lon="7.939433">
        <ele>304.330099</ele>
        <time>2021-11-13T15:25:12.203Z</time>
      </trkpt>
      <trkpt lat="47.543435" lon="7.940670">
        <ele>305.851230</ele>
        <time>2021-11-13T15:25:32.163Z</time>
      </trkpt>
      <trkpt lat="47.543161" lon="7.942213">
        <ele>306.488316</ele>
        <time>2021-11-13T15:25:53.013Z</time>
      </trkpt>
      <trkpt lat="47.543007" lon="7.943867">
        <ele>306.419082</ele>
        <time>2021-11-13T15:26:08.557Z</time>
      </trkpt>
      <trkpt lat="47.542913" lon="7.945267">
        <ele>304.566895</ele>
        <time>2021-11-13T15:26:19.316Z</time>
      </trkpt>
      <trkpt lat="47.542872" lon="7.945781">
        <ele>303.885508</ele>
        <time>2021-11-13T15:26:22.913Z</time>
      </trkpt>
      <trkpt lat="47.542875" lon="7.946089">
        <ele>303.479985</ele>
        <time>2021-11-13T15:26:25.004Z</time>
      </trkpt>
      <trkpt lat="47.542902" lon="7.946514">
        <ele>302.867852</ele>
        <time>2021-11-13T15:26:27.881Z</time>
      </trkpt>
      <trkpt lat="47.542943" lon="7.946806">
        <ele>302.422729</ele>
        <time>2021-11-13T15:26:29.929Z</time>
      </trkpt>
      <trkpt lat="47.542974" lon="7.946965">
        <ele>302.175730</ele>
        <time>2021-11-13T15:26:31.141Z</time>
      </trkpt>
      <trkpt lat="47.542979" lon="7.946989">
        <ele>302.138244</ele>
        <time>2021-11-13T15:26:31.296Z</time>
      </trkpt>
      <trkpt lat="47.543007" lon="7.947104">
        <ele>301.955789</ele>
        <time>2021-11-13T15:26:32.142Z</time>
      </trkpt>
      <trkpt lat="47.543087" lon="7.947317">
        <ele>301.592005</ele>
        <time>2021-11-13T15:26:33.888Z</time>
      </trkpt>
      <trkpt lat="47.543191" lon="7.947615">
        <ele>301.091335</ele>
        <time>2021-11-13T15:26:36.326Z</time>
      </trkpt>
      <trkpt lat="47.543242" lon="7.947745">
        <ele>300.866932</ele>
        <time>2021-11-13T15:26:37.459Z</time>
      </trkpt>
      <trkpt lat="47.543273" lon="7.947816">
        <ele>300.740734</ele>
        <time>2021-11-13T15:26:38.087Z</time>
      </trkpt>
      <trkpt lat="47.543358" lon="7.947967">
        <ele>300.447301</ele>
        <time>2021-11-13T15:26:39.525Z</time>
      </trkpt>
      <trkpt lat="47.543455" lon="7.948127">
        <ele>300.126345</ele>
        <time>2021-11-13T15:26:41.197Z</time>
      </trkpt>
      <trkpt lat="47.543532" lon="7.948214">
        <ele>299.912240</ele>
        <time>2021-11-13T15:26:42.279Z</time>
      </trkpt>
      <trkpt lat="47.543579" lon="7.948287">
        <ele>299.761683</ele>
        <time>2021-11-13T15:26:43.043Z</time>
      </trkpt>
      <trkpt lat="47.543610" lon="7.948331">
        <ele>299.666764</ele>
        <time>2021-11-13T15:26:43.500Z</time>
      </trkpt>
      <trkpt lat="47.543760" lon="7.948548">
        <ele>299.321257</ele>
        <time>2021-11-13T15:26:45.941Z</time>
      </trkpt>
      <trkpt lat="47.543864" lon="7.948694">
        <ele>299.334319</ele>
        <time>2021-11-13T15:26:47.606Z</time>
      </trkpt>
      <trkpt lat="47.544239" lon="7.949202">
        <ele>299.380643</ele>
        <time>2021-11-13T15:26:54.979Z</time>
      </trkpt>
      <trkpt lat="47.544521" lon="7.949558">
        <ele>299.414418</ele>
        <time>2021-11-13T15:27:01.154Z</time>
      </trkpt>
      <trkpt lat="47.544901" lon="7.950044">
        <ele>299.460183</ele>
        <time>2021-11-13T15:27:10.317Z</time>
      </trkpt>
      <trkpt lat="47.545166" lon="7.950366">
        <ele>299.492700</ele>
        <time>2021-11-13T15:27:16.648Z</time>
      </trkpt>
      <trkpt lat="47.545434" lon="7.950668">
        <ele>299.526987</ele>
        <time>2021-11-13T15:27:22.433Z</time>
      </trkpt>
      <trkpt lat="47.545542" lon="7.950842">
        <ele>299.543235</ele>
        <time>2021-11-13T15:27:24.916Z</time>
      </trkpt>
      <trkpt lat="47.545667" lon="7.950979">
        <ele>299.559068</ele>
        <time>2021-11-13T15:27:27.453Z</time>
      </trkpt>
      <trkpt lat="47.545737" lon="7.951055">
        <ele>299.567905</ele>
        <time>2021-11-13T15:27:28.725Z</time>
      </trkpt>
      <trkpt lat="47.545876" lon="7.951233">
        <ele>299.586614</ele>
        <time>2021-11-13T15:27:31.469Z</time>
      </trkpt>
      <trkpt lat="47.546112" lon="7.951485">
        <ele>299.616237</ele>
        <time>2021-11-13T15:27:35.602Z</time>
      </trkpt>
      <trkpt lat="47.546164" lon="7.951520">
        <ele>299.622053</ele>
        <time>2021-11-13T15:27:36.441Z</time>
      </trkpt>
      <trkpt lat="47.546212" lon="7.951535">
        <ele>299.627049</ele>
        <time>2021-11-13T15:27:37.155Z</time>
      </trkpt>
      <trkpt lat="47.546231" lon="7.951558">
        <ele>299.629547</ele>
        <time>2021-11-13T15:27:37.472Z</time>
      </trkpt>
      <trkpt lat="47.546421" lon="7.951793">
        <ele>299.654751</ele>
        <time>2021-11-13T15:27:40.776Z</time>
      </trkpt>
      <trkpt lat="47.546634" lon="7.952024">
        <ele>299.590566</ele>
        <time>2021-11-13T15:27:44.205Z</time>
      </trkpt>
      <trkpt lat="47.546695" lon="7.952091">
        <ele>299.559019</ele>
        <time>2021-11-13T15:27:45.169Z</time>
      </trkpt>
      <trkpt lat="47.546776" lon="7.952185">
        <ele>299.516274</ele>
        <time>2021-11-13T15:27:46.519Z</time>
      </trkpt>
      <trkpt lat="47.546935" lon="7.952372">
        <ele>299.431935</ele>
        <time>2021-11-13T15:27:49.167Z</time>
      </trkpt>
      <trkpt lat="47.547090" lon="7.952543">
        <ele>299.351649</ele>
        <time>2021-11-13T15:27:51.778Z</time>
      </trkpt>
      <trkpt lat="47.547400" lon="7.952910">
        <ele>299.186795</ele>
        <time>2021-11-13T15:27:57.185Z</time>
      </trkpt>
      <trkpt lat="47.547458" lon="7.952975">
        <ele>299.156582</ele>
        <time>2021-11-13T15:27:58.174Z</time>
      </trkpt>
      <trkpt lat="47.547550" lon="7.953078">
        <ele>299.108676</ele>
        <time>2021-11-13T15:27:59.786Z</time>
      </trkpt>
      <trkpt lat="47.547624" lon="7.953160">
        <ele>299.070285</ele>
        <time>2021-11-13T15:28:01.045Z</time>
      </trkpt>
      <trkpt lat="47.547797" lon="7.953355">
        <ele>298.979978</ele>
        <time>2021-11-13T15:28:04.057Z</time>
      </trkpt>
      <trkpt lat="47.547871" lon="7.953437">
        <ele>298.941587</ele>
        <time>2021-11-13T15:28:05.357Z</time>
      </trkpt>
      <trkpt lat="47.547994" lon="7.953584">
        <ele>298.838129</ele>
        <time>2021-11-13T15:28:07.530Z</time>
      </trkpt>
      <trkpt lat="47.548115" lon="7.953729">
        <ele>298.713182</ele>
        <time>2021-11-13T15:28:09.685Z</time>
      </trkpt>
      <trkpt lat="47.548251" lon="7.953895">
        <ele>298.571708</ele>
        <time>2021-11-13T15:28:12.082Z</time>
      </trkpt>
      <trkpt lat="47.548335" lon="7.953779">
        <ele>298.479513</ele>
        <time>2021-11-13T15:28:13.988Z</time>
      </trkpt>
      <trkpt lat="47.549136" lon="7.953353">
        <ele>297.796237</ele>
        <time>2021-11-13T15:28:29.351Z</time>
      </trkpt>
      <trkpt lat="47.549296" lon="7.953268">
        <ele>297.659770</ele>
        <time>2021-11-13T15:28:32.310Z</time>
      </trkpt>
      <trkpt lat="47.549442" lon="7.953195">
        <ele>297.536056</ele>
        <time>2021-11-13T15:28:34.865Z</time>
      </trkpt>
      <trkpt lat="47.549640" lon="7.953086">
        <ele>297.214285</ele>
        <time>2021-11-13T15:28:38.573Z</time>
      </trkpt>
      <trkpt lat="47.549673" lon="7.953076">
        <ele>297.148391</ele>
        <time>2021-11-13T15:28:39.133Z</time>
      </trkpt>
      <trkpt lat="47.549687" lon="7.953071">
        <ele>297.120219</ele>
        <time>2021-11-13T15:28:39.325Z</time>
      </trkpt>
      <trkpt lat="47.550567" lon="7.953069">
        <ele>295.398690</ele>
        <time>2021-11-13T15:28:53.498Z</time>
      </trkpt>
      <trkpt lat="47.550656" lon="7.953072">
        <ele>295.224536</ele>
        <time>2021-11-13T15:28:54.812Z</time>
      </trkpt>
      <trkpt lat="47.550967" lon="7.953063">
        <ele>294.616017</ele>
        <time>2021-11-13T15:28:59.574Z</time>
      </trkpt>
      <trkpt lat="47.551254" lon="7.952986">
        <ele>294.045434</ele>
        <time>2021-11-13T15:29:03.963Z</time>
      </trkpt>
      <trkpt lat="47.551295" lon="7.952900">
        <ele>293.911988</ele>
        <time>2021-11-13T15:29:05.027Z</time>
      </trkpt>
      <trkpt lat="47.551334" lon="7.952777">
        <ele>293.753689</ele>
        <time>2021-11-13T15:29:07.702Z</time>
      </trkpt>
      <trkpt lat="47.551339" lon="7.952761">
        <ele>293.733151</ele>
        <time>2021-11-13T15:29:08.072Z</time>
      </trkpt>
      <trkpt lat="47.551381" lon="7.952341">
        <ele>293.238575</ele>
        <time>2021-11-13T15:29:16.854Z</time>
      </trkpt>
      <trkpt lat="47.551506" lon="7.950255">
        <ele>290.849841</ele>
        <time>2021-11-13T15:30:02.390Z</time>
      </trkpt>
      <trkpt lat="47.551525" lon="7.950027">
        <ele>290.851581</ele>
        <time>2021-11-13T15:30:07.851Z</time>
      </trkpt>
      <trkpt lat="47.551581" lon="7.949830">
        <ele>290.853201</ele>
        <time>2021-11-13T15:30:13.004Z</time>
      </trkpt>
      <trkpt lat="47.551673" lon="7.949634">
        <ele>290.855010</ele>
        <time>2021-11-13T15:30:19.090Z</time>
      </trkpt>
      <trkpt lat="47.551794" lon="7.949387">
        <ele>290.857323</ele>
        <time>2021-11-13T15:30:26.651Z</time>
      </trkpt>
      <trkpt lat="47.552010" lon="7.949039">
        <ele>290.860906</ele>
        <time>2021-11-13T15:30:38.821Z</time>
      </trkpt>
      <trkpt lat="47.552049" lon="7.948982">
        <ele>290.861521</ele>
        <time>2021-11-13T15:30:40.961Z</time>
      </trkpt>
      <trkpt lat="47.552094" lon="7.948926">
        <ele>290.862181</ele>
        <time>2021-11-13T15:30:43.308Z</time>
      </trkpt>
      <trkpt lat="47.552202" lon="7.949003">
        <ele>290.863526</ele>
        <time>2021-11-13T15:30:47.943Z</time>
      </trkpt>
      <trkpt lat="47.552351" lon="7.949099">
        <ele>290.865351</ele>
        <time>2021-11-13T15:30:54.232Z</time>
      </trkpt>
      <trkpt lat="47.552382" lon="7.949119">
        <ele>290.865730</ele>
        <time>2021-11-13T15:30:55.662Z</time>
      </trkpt>
      <trkpt lat="47.552518" lon="7.949236">
        <ele>290.867496</ele>
        <time>2021-11-13T15:31:01.961Z</time>
      </trkpt>
      <trkpt lat="47.552953" lon="7.948775">
        <ele>290.720820</ele>
        <time>2021-11-13T15:31:23.166Z</time>
      </trkpt>
      <trkpt lat="47.553197" lon="7.948543">
        <ele>290.593054</ele>
        <time>2021-11-13T15:31:34.037Z</time>
      </trkpt>
      <trkpt lat="47.553368" lon="7.948399">
        <ele>290.506375</ele>
        <time>2021-11-13T15:31:47.676Z</time>
      </trkpt>
      <trkpt lat="47.553475" lon="7.948642">
        <ele>290.420078</ele>
        <time>2021-11-13T15:31:54.430Z</time>
      </trkpt>
      <trkpt lat="47.553815" lon="7.949414">
        <ele>290.145901</ele>
        <time>2021-11-13T15:32:15.454Z</time>
      </trkpt>
      <trkpt lat="47.554192" lon="7.950296">
        <ele>289.521085</ele>
        <time>2021-11-13T15:32:38.687Z</time>
      </trkpt>
      <trkpt lat="47.554240" lon="7.950300">
        <ele>289.472343</ele>
        <time>2021-11-13T15:32:40.290Z</time>
      </trkpt>
      <trkpt lat="47.554303" lon="7.950312">
        <ele>289.407945</ele>
        <time>2021-11-13T15:32:41.037Z</time>
      </trkpt>
      <trkpt lat="47.554392" lon="7.950331">
        <ele>289.316780</ele>
        <time>2021-11-13T15:32:42.096Z</time>
      </trkpt>
      <trkpt lat="47.554652" lon="7.950448">
        <ele>289.041291</ele>
        <time>2021-11-13T15:32:45.403Z</time>
      </trkpt>
      <trkpt lat="47.554759" lon="7.950515">
        <ele>288.923520</ele>
        <time>2021-11-13T15:32:46.780Z</time>
      </trkpt>
      <trkpt lat="47.554954" lon="7.950665">
        <ele>288.700766</ele>
        <time>2021-11-13T15:32:49.489Z</time>
      </trkpt>
      <trkpt lat="47.555474" lon="7.951144">
        <ele>288.272394</ele>
        <time>2021-11-13T15:32:57.204Z</time>
      </trkpt>
      <trkpt lat="47.555687" lon="7.951449">
        <ele>288.305100</ele>
        <time>2021-11-13T15:33:01.294Z</time>
      </trkpt>
      <trkpt lat="47.556339" lon="7.952382">
        <ele>288.405182</ele>
        <time>2021-11-13T15:33:15.357Z</time>
      </trkpt>
      <trkpt lat="47.556386" lon="7.952449">
        <ele>288.412383</ele>
        <time>2021-11-13T15:33:16.526Z</time>
      </trkpt>
      <trkpt lat="47.556400" lon="7.952468">
        <ele>288.414480</ele>
        <time>2021-11-13T15:33:16.838Z</time>
      </trkpt>
      <trkpt lat="47.557120" lon="7.953536">
        <ele>288.839943</ele>
        <time>2021-11-13T15:33:34.865Z</time>
      </trkpt>
      <trkpt lat="47.557517" lon="7.954117">
        <ele>289.159100</ele>
        <time>2021-11-13T15:33:44.712Z</time>
      </trkpt>
      <trkpt lat="47.557687" lon="7.954371">
        <ele>289.297186</ele>
        <time>2021-11-13T15:33:48.825Z</time>
      </trkpt>
      <trkpt lat="47.557874" lon="7.954579">
        <ele>289.430928</ele>
        <time>2021-11-13T15:33:52.553Z</time>
      </trkpt>
      <trkpt lat="47.557899" lon="7.954581">
        <ele>289.445249</ele>
        <time>2021-11-13T15:33:53.050Z</time>
      </trkpt>
      <trkpt lat="47.557935" lon="7.954571">
        <ele>289.466199</ele>
        <time>2021-11-13T15:33:53.700Z</time>
      </trkpt>
      <trkpt lat="47.558070" lon="7.954468">
        <ele>289.468618</ele>
        <time>2021-11-13T15:33:56.069Z</time>
      </trkpt>
      <trkpt lat="47.558107" lon="7.954410">
        <ele>289.463376</ele>
        <time>2021-11-13T15:33:56.999Z</time>
      </trkpt>
      <trkpt lat="47.558161" lon="7.954466">
        <ele>289.456961</ele>
        <time>2021-11-13T15:33:57.990Z</time>
      </trkpt>
      <trkpt lat="47.558201" lon="7.954539">
        <ele>289.450785</ele>
        <time>2021-11-13T15:33:59.072Z</time>
      </trkpt>
      <trkpt lat="47.558360" lon="7.955074">
        <ele>289.412391</ele>
        <time>2021-11-13T15:34:05.277Z</time>
      </trkpt>
      <trkpt lat="47.558659" lon="7.956055">
        <ele>289.341694</ele>
        <time>2021-11-13T15:34:15.577Z</time>
      </trkpt>
      <trkpt lat="47.558756" lon="7.956469">
        <ele>289.312912</ele>
        <time>2021-11-13T15:34:19.471Z</time>
      </trkpt>
      <trkpt lat="47.559224" lon="7.958738">
        <ele>288.509799</ele>
        <time>2021-11-13T15:34:39.915Z</time>
      </trkpt>
      <trkpt lat="47.559324" lon="7.959601">
        <ele>288.513217</ele>
        <time>2021-11-13T15:34:48.272Z</time>
      </trkpt>
      <trkpt lat="47.559346" lon="7.959868">
        <ele>288.594769</ele>
        <time>2021-11-13T15:34:51.367Z</time>
      </trkpt>
      <trkpt lat="47.559406" lon="7.960730">
        <ele>288.857505</ele>
        <time>2021-11-13T15:35:00.850Z</time>
      </trkpt>
      <trkpt lat="47.559408" lon="7.961845">
        <ele>289.200180</ele>
        <time>2021-11-13T15:35:14.614Z</time>
      </trkpt>
      <trkpt lat="47.559368" lon="7.962709">
        <ele>289.528839</ele>
        <time>2021-11-13T15:35:25.856Z</time>
      </trkpt>
      <trkpt lat="47.559232" lon="7.963800">
        <ele>289.949880</ele>
        <time>2021-11-13T15:35:38.449Z</time>
      </trkpt>
      <trkpt lat="47.559029" lon="7.964894">
        <ele>290.125582</ele>
        <time>2021-11-13T15:35:50.152Z</time>
      </trkpt>
      <trkpt lat="47.558949" lon="7.965326">
        <ele>290.069615</ele>
        <time>2021-11-13T15:35:54.387Z</time>
      </trkpt>
      <trkpt lat="47.558732" lon="7.966356">
        <ele>289.934806</ele>
        <time>2021-11-13T15:36:04.270Z</time>
      </trkpt>
      <trkpt lat="47.558606" lon="7.966985">
        <ele>289.856800</ele>
        <time>2021-11-13T15:36:10.526Z</time>
      </trkpt>
      <trkpt lat="47.558448" lon="7.967701">
        <ele>289.892153</ele>
        <time>2021-11-13T15:36:17.781Z</time>
      </trkpt>
      <trkpt lat="47.558430" lon="7.967788">
        <ele>289.896423</ele>
        <time>2021-11-13T15:36:18.665Z</time>
      </trkpt>
      <trkpt lat="47.558327" lon="7.968108">
        <ele>289.913062</ele>
        <time>2021-11-13T15:36:22.618Z</time>
      </trkpt>
      <trkpt lat="47.558313" lon="7.968259">
        <ele>289.920215</ele>
        <time>2021-11-13T15:36:24.077Z</time>
      </trkpt>
      <trkpt lat="47.558296" lon="7.968403">
        <ele>289.927076</ele>
        <time>2021-11-13T15:36:25.879Z</time>
      </trkpt>
      <trkpt lat="47.558225" lon="7.968807">
        <ele>289.946668</ele>
        <time>2021-11-13T15:36:30.333Z</time>
      </trkpt>
      <trkpt lat="47.558045" lon="7.969704">
        <ele>289.950906</ele>
        <time>2021-11-13T15:36:39.904Z</time>
      </trkpt>
      <trkpt lat="47.557756" lon="7.971140">
        <ele>289.736093</ele>
        <time>2021-11-13T15:36:54.595Z</time>
      </trkpt>
      <trkpt lat="47.557538" lon="7.972196">
        <ele>289.596041</ele>
        <time>2021-11-13T15:37:04.279Z</time>
      </trkpt>
      <trkpt lat="47.557419" lon="7.972636">
        <ele>289.587323</ele>
        <time>2021-11-13T15:37:08.534Z</time>
      </trkpt>
      <trkpt lat="47.557323" lon="7.972992">
        <ele>289.580272</ele>
        <time>2021-11-13T15:37:12.150Z</time>
      </trkpt>
      <trkpt lat="47.557235" lon="7.973507">
        <ele>289.570501</ele>
        <time>2021-11-13T15:37:17.229Z</time>
      </trkpt>
      <trkpt lat="47.557108" lon="7.974186">
        <ele>289.557542</ele>
        <time>2021-11-13T15:37:24.381Z</time>
      </trkpt>
      <trkpt lat="47.557045" lon="7.974526">
        <ele>289.551057</ele>
        <time>2021-11-13T15:37:28.416Z</time>
      </trkpt>
      <trkpt lat="47.556769" lon="7.976421">
        <ele>290.629269</ele>
        <time>2021-11-13T15:37:52.575Z</time>
      </trkpt>
      <trkpt lat="47.556668" lon="7.978159">
        <ele>291.312556</ele>
        <time>2021-11-13T15:38:14.490Z</time>
      </trkpt>
      <trkpt lat="47.557185" lon="7.988787">
        <ele>293.680672</ele>
        <time>2021-11-13T15:40:08.824Z</time>
      </trkpt>
      <trkpt lat="47.557298" lon="7.990679">
        <ele>294.163411</ele>
        <time>2021-11-13T15:40:30.048Z</time>
      </trkpt>
      <trkpt lat="47.557377" lon="7.991413">
        <ele>294.309328</ele>
        <time>2021-11-13T15:40:38.335Z</time>
      </trkpt>
      <trkpt lat="47.557666" lon="7.996934">
        <ele>295.443106</ele>
        <time>2021-11-13T15:41:37.192Z</time>
      </trkpt>
      <trkpt lat="47.557611" lon="7.998828">
        <ele>296.100448</ele>
        <time>2021-11-13T15:41:59.820Z</time>
      </trkpt>
      <trkpt lat="47.557595" lon="7.999065">
        <ele>296.171343</ele>
        <time>2021-11-13T15:42:02.845Z</time>
      </trkpt>
      <trkpt lat="47.557590" lon="7.999121">
        <ele>296.188156</ele>
        <time>2021-11-13T15:42:03.504Z</time>
      </trkpt>
      <trkpt lat="47.557569" lon="7.999330">
        <ele>296.251051</ele>
        <time>2021-11-13T15:42:09.092Z</time>
      </trkpt>
      <trkpt lat="47.557552" lon="7.999488">
        <ele>296.298673</ele>
        <time>2021-11-13T15:42:11.109Z</time>
      </trkpt>
      <trkpt lat="47.557421" lon="8.000151">
        <ele>296.504299</ele>
        <time>2021-11-13T15:42:19.308Z</time>
      </trkpt>
      <trkpt lat="47.556859" lon="8.003033">
        <ele>296.540414</ele>
        <time>2021-11-13T15:42:49.021Z</time>
      </trkpt>
      <trkpt lat="47.556414" lon="8.004608">
        <ele>295.991570</ele>
        <time>2021-11-13T15:43:03.790Z</time>
      </trkpt>
      <trkpt lat="47.555689" lon="8.008075">
        <ele>294.316556</ele>
        <time>2021-11-13T15:43:35.458Z</time>
      </trkpt>
      <trkpt lat="47.555492" lon="8.008854">
        <ele>293.886651</ele>
        <time>2021-11-13T15:43:42.477Z</time>
      </trkpt>
      <trkpt lat="47.555373" lon="8.009365">
        <ele>293.553915</ele>
        <time>2021-11-13T15:43:46.962Z</time>
      </trkpt>
      <trkpt lat="47.555124" lon="8.010557">
        <ele>292.785855</ele>
        <time>2021-11-13T15:43:57.290Z</time>
      </trkpt>
      <trkpt lat="47.555069" lon="8.010772">
        <ele>292.644327</ele>
        <time>2021-11-13T15:43:59.123Z</time>
      </trkpt>
      <trkpt lat="47.554818" lon="8.011865">
        <ele>292.240892</ele>
        <time>2021-11-13T15:44:08.827Z</time>
      </trkpt>
      <trkpt lat="47.554682" lon="8.012449">
        <ele>292.121773</ele>
        <time>2021-11-13T15:44:14.531Z</time>
      </trkpt>
      <trkpt lat="47.554665" lon="8.012540">
        <ele>292.103568</ele>
        <time>2021-11-13T15:44:15.369Z</time>
      </trkpt>
      <trkpt lat="47.554546" lon="8.013079">
        <ele>291.994221</ele>
        <time>2021-11-13T15:44:20.871Z</time>
      </trkpt>
      <trkpt lat="47.554393" lon="8.013577">
        <ele>291.888717</ele>
        <time>2021-11-13T15:44:26.655Z</time>
      </trkpt>
      <trkpt lat="47.554329" lon="8.013807">
        <ele>291.918995</ele>
        <time>2021-11-13T15:44:29.529Z</time>
      </trkpt>
      <trkpt lat="47.553882" lon="8.015749">
        <ele>292.695643</ele>
        <time>2021-11-13T15:44:53.331Z</time>
      </trkpt>
      <trkpt lat="47.553715" lon="8.016236">
        <ele>292.899483</ele>
        <time>2021-11-13T15:44:59.793Z</time>
      </trkpt>
      <trkpt lat="47.553318" lon="8.017064">
        <ele>293.241445</ele>
        <time>2021-11-13T15:45:11.676Z</time>
      </trkpt>
      <trkpt lat="47.553229" lon="8.017328">
        <ele>293.340801</ele>
        <time>2021-11-13T15:45:15.285Z</time>
      </trkpt>
      <trkpt lat="47.553159" lon="8.017677">
        <ele>293.463384</ele>
        <time>2021-11-13T15:45:19.886Z</time>
      </trkpt>
      <trkpt lat="47.553012" lon="8.018748">
        <ele>293.817696</ele>
        <time>2021-11-13T15:45:31.514Z</time>
      </trkpt>
      <trkpt lat="47.553028" lon="8.018988">
        <ele>293.879823</ele>
        <time>2021-11-13T15:45:33.838Z</time>
      </trkpt>
      <trkpt lat="47.553030" lon="8.019182">
        <ele>293.929805</ele>
        <time>2021-11-13T15:45:35.532Z</time>
      </trkpt>
      <trkpt lat="47.553055" lon="8.019647">
        <ele>294.049973</ele>
        <time>2021-11-13T15:45:40.215Z</time>
      </trkpt>
      <trkpt lat="47.553064" lon="8.019820">
        <ele>294.094672</ele>
        <time>2021-11-13T15:45:41.741Z</time>
      </trkpt>
      <trkpt lat="47.553056" lon="8.019871">
        <ele>294.108160</ele>
        <time>2021-11-13T15:45:42.231Z</time>
      </trkpt>
      <trkpt lat="47.553031" lon="8.019915">
        <ele>294.122977</ele>
        <time>2021-11-13T15:45:42.860Z</time>
      </trkpt>
      <trkpt lat="47.552961" lon="8.019989">
        <ele>294.155799</ele>
        <time>2021-11-13T15:45:44.256Z</time>
      </trkpt>
      <trkpt lat="47.552879" lon="8.020034">
        <ele>294.189176</ele>
        <time>2021-11-13T15:45:45.913Z</time>
      </trkpt>
      <trkpt lat="47.552872" lon="8.020109">
        <ele>294.208681</ele>
        <time>2021-11-13T15:45:46.526Z</time>
      </trkpt>
      <trkpt lat="47.552813" lon="8.020595">
        <ele>294.335888</ele>
        <time>2021-11-13T15:45:52.349Z</time>
      </trkpt>
      <trkpt lat="47.552776" lon="8.021316">
        <ele>294.937400</ele>
        <time>2021-11-13T15:46:01.334Z</time>
      </trkpt>
      <trkpt lat="47.552918" lon="8.021331">
        <ele>295.353166</ele>
        <time>2021-11-13T15:46:04.366Z</time>
      </trkpt>
      <trkpt lat="47.552959" lon="8.021335">
        <ele>295.473166</ele>
        <time>2021-11-13T15:46:05.348Z</time>
      </trkpt>
      <trkpt lat="47.553183" lon="8.021466">
        <ele>296.176475</ele>
        <time>2021-11-13T15:46:09.981Z</time>
      </trkpt>
      <trkpt lat="47.553232" lon="8.021484">
        <ele>296.323912</ele>
        <time>2021-11-13T15:46:11.271Z</time>
      </trkpt>
      <trkpt lat="47.553266" lon="8.021493">
        <ele>296.424782</ele>
        <time>2021-11-13T15:46:12.067Z</time>
      </trkpt>
      <trkpt lat="47.553291" lon="8.021502">
        <ele>296.499919</ele>
        <time>2021-11-13T15:46:12.799Z</time>
      </trkpt>
      <trkpt lat="47.553305" lon="8.021505">
        <ele>296.541231</ele>
        <time>2021-11-13T15:46:13.174Z</time>
      </trkpt>
      <trkpt lat="47.553565" lon="8.021501">
        <ele>297.300605</ele>
        <time>2021-11-13T15:46:19.685Z</time>
      </trkpt>
      <trkpt lat="47.553607" lon="8.021497">
        <ele>297.423520</ele>
        <time>2021-11-13T15:46:20.834Z</time>
      </trkpt>
      <trkpt lat="47.553614" lon="8.021587">
        <ele>297.602089</ele>
        <time>2021-11-13T15:46:22.584Z</time>
      </trkpt>
      <trkpt lat="47.553615" lon="8.021606">
        <ele>297.639653</ele>
        <time>2021-11-13T15:46:22.967Z</time>
      </trkpt>
      <trkpt lat="47.553619" lon="8.021667">
        <ele>297.760453</ele>
        <time>2021-11-13T15:46:24.207Z</time>
      </trkpt>
      <trkpt lat="47.553687" lon="8.021682">
        <ele>297.961237</ele>
        <time>2021-11-13T15:46:26.363Z</time>
      </trkpt>
      <trkpt lat="47.553878" lon="8.021738">
        <ele>298.529870</ele>
        <time>2021-11-13T15:46:32.356Z</time>
      </trkpt>
      <trkpt lat="47.553961" lon="8.021754">
        <ele>298.774316</ele>
        <time>2021-11-13T15:46:35.257Z</time>
      </trkpt>
      <trkpt lat="47.554086" lon="8.021778">
        <ele>299.142432</ele>
        <time>2021-11-13T15:46:39.592Z</time>
      </trkpt>
      <trkpt lat="47.554332" lon="8.021803">
        <ele>299.988468</ele>
        <time>2021-11-13T15:46:48.116Z</time>
      </trkpt>
      <trkpt lat="47.554468" lon="8.021743">
        <ele>300.751028</ele>
        <time>2021-11-13T15:46:53.096Z</time>
      </trkpt>
      <trkpt lat="47.554589" lon="8.021606">
        <ele>301.569379</ele>
        <time>2021-11-13T15:46:58.153Z</time>
      </trkpt>
      <trkpt lat="47.554743" lon="8.021466">
        <ele>302.540307</ele>
        <time>2021-11-13T15:47:04.749Z</time>
      </trkpt>
      <trkpt lat="47.554958" lon="8.021349">
        <ele>303.771156</ele>
        <time>2021-11-13T15:47:12.205Z</time>
      </trkpt>
      <trkpt lat="47.555346" lon="8.021253">
        <ele>305.885103</ele>
        <time>2021-11-13T15:47:26.359Z</time>
      </trkpt>
      <trkpt lat="47.555521" lon="8.021257">
        <ele>306.825650</ele>
        <time>2021-11-13T15:47:32.782Z</time>
      </trkpt>
      <trkpt lat="47.555963" lon="8.021294">
        <ele>309.204708</ele>
        <time>2021-11-13T15:47:50.327Z</time>
      </trkpt>
      <trkpt lat="47.556296" lon="8.021331">
        <ele>311.323199</ele>
        <time>2021-11-13T15:48:04.495Z</time>
      </trkpt>
      <trkpt lat="47.556552" lon="8.021260">
        <ele>313.002556</ele>
        <time>2021-11-13T15:48:14.468Z</time>
      </trkpt>
      <trkpt lat="47.556632" lon="8.021199">
        <ele>313.582687</ele>
        <time>2021-11-13T15:48:17.802Z</time>
      </trkpt>
      <trkpt lat="47.556709" lon="8.021127">
        <ele>314.169775</ele>
        <time>2021-11-13T15:48:20.921Z</time>
      </trkpt>
      <trkpt lat="47.556718" lon="8.021112">
        <ele>314.257115</ele>
        <time>2021-11-13T15:48:21.490Z</time>
      </trkpt>
      <trkpt lat="47.556775" lon="8.021020">
        <ele>314.800580</ele>
        <time>2021-11-13T15:48:25.014Z</time>
      </trkpt>
      <trkpt lat="47.556880" lon="8.020827">
        <ele>315.879337</ele>
        <time>2021-11-13T15:48:31.634Z</time>
      </trkpt>
      <trkpt lat="47.556951" lon="8.020734">
        <ele>316.490370</ele>
        <time>2021-11-13T15:48:34.845Z</time>
      </trkpt>
      <trkpt lat="47.557049" lon="8.020675">
        <ele>317.172440</ele>
        <time>2021-11-13T15:48:39.345Z</time>
      </trkpt>
      <trkpt lat="47.557140" lon="8.020649">
        <ele>317.770017</ele>
        <time>2021-11-13T15:48:43.923Z</time>
      </trkpt>
      <trkpt lat="47.557326" lon="8.020583">
        <ele>319.003256</ele>
        <time>2021-11-13T15:48:50.982Z</time>
      </trkpt>
      <trkpt lat="47.557406" lon="8.020509">
        <ele>319.611352</ele>
        <time>2021-11-13T15:48:55.236Z</time>
      </trkpt>
      <trkpt lat="47.557453" lon="8.020436">
        <ele>320.050384</ele>
        <time>2021-11-13T15:48:59.119Z</time>
      </trkpt>
      <trkpt lat="47.557491" lon="8.020177">
        <ele>321.214175</ele>
        <time>2021-11-13T15:49:06.048Z</time>
      </trkpt>
      <trkpt lat="47.557398" lon="8.019696">
        <ele>323.491288</ele>
        <time>2021-11-13T15:49:21.068Z</time>
      </trkpt>
      <trkpt lat="47.557390" lon="8.019571">
        <ele>324.062719</ele>
        <time>2021-11-13T15:49:25.046Z</time>
      </trkpt>
      <trkpt lat="47.557414" lon="8.019414">
        <ele>324.795331</ele>
        <time>2021-11-13T15:49:30.478Z</time>
      </trkpt>
      <trkpt lat="47.557532" lon="8.018992">
        <ele>326.874195</ele>
        <time>2021-11-13T15:49:42.805Z</time>
      </trkpt>
      <trkpt lat="47.557566" lon="8.018865">
        <ele>327.495993</ele>
        <time>2021-11-13T15:49:47.548Z</time>
      </trkpt>
      <trkpt lat="47.557700" lon="8.018487">
        <ele>329.439178</ele>
        <time>2021-11-13T15:49:57.584Z</time>
      </trkpt>
      <trkpt lat="47.557746" lon="8.018355">
        <ele>330.115277</ele>
        <time>2021-11-13T15:50:01.982Z</time>
      </trkpt>
      <trkpt lat="47.557944" lon="8.018030">
        <ele>332.107908</ele>
        <time>2021-11-13T15:50:13.612Z</time>
      </trkpt>
      <trkpt lat="47.558167" lon="8.017713">
        <ele>334.300794</ele>
        <time>2021-11-13T15:50:26.490Z</time>
      </trkpt>
      <trkpt lat="47.558238" lon="8.017607">
        <ele>335.048646</ele>
        <time>2021-11-13T15:50:30.879Z</time>
      </trkpt>
      <trkpt lat="47.558302" lon="8.017520">
        <ele>335.693087</ele>
        <time>2021-11-13T15:50:34.451Z</time>
      </trkpt>
      <trkpt lat="47.558316" lon="8.017494">
        <ele>335.859645</ele>
        <time>2021-11-13T15:50:36.101Z</time>
      </trkpt>
      <trkpt lat="47.558404" lon="8.017331">
        <ele>336.904903</ele>
        <time>2021-11-13T15:50:41.258Z</time>
      </trkpt>
      <trkpt lat="47.558419" lon="8.017286">
        <ele>337.156225</ele>
        <time>2021-11-13T15:50:42.695Z</time>
      </trkpt>
      <trkpt lat="47.558456" lon="8.017175">
        <ele>337.776153</ele>
        <time>2021-11-13T15:50:46.467Z</time>
      </trkpt>
      <trkpt lat="47.558472" lon="8.016633">
        <ele>340.492752</ele>
        <time>2021-11-13T15:51:02.088Z</time>
      </trkpt>
      <trkpt lat="47.558468" lon="8.016544">
        <ele>340.939396</ele>
        <time>2021-11-13T15:51:04.438Z</time>
      </trkpt>
      <trkpt lat="47.558466" lon="8.016482">
        <ele>341.250208</ele>
        <time>2021-11-13T15:51:07.579Z</time>
      </trkpt>
      <trkpt lat="47.558477" lon="8.015998">
        <ele>343.675157</ele>
        <time>2021-11-13T15:51:21.140Z</time>
      </trkpt>
      <trkpt lat="47.558647" lon="8.015459">
        <ele>346.689900</ele>
        <time>2021-11-13T15:51:41.482Z</time>
      </trkpt>
      <trkpt lat="47.559052" lon="8.014792">
        <ele>351.971429</ele>
        <time>2021-11-13T15:52:11.341Z</time>
      </trkpt>
      <trkpt lat="47.559301" lon="8.014552">
        <ele>354.562383</ele>
        <time>2021-11-13T15:52:28.043Z</time>
      </trkpt>
      <trkpt lat="47.559783" lon="8.014275">
        <ele>359.071784</ele>
        <time>2021-11-13T15:52:54.225Z</time>
      </trkpt>
      <trkpt lat="47.559980" lon="8.014260">
        <ele>360.792409</ele>
        <time>2021-11-13T15:53:04.171Z</time>
      </trkpt>
      <trkpt lat="47.560319" lon="8.014395">
        <ele>363.551368</ele>
        <time>2021-11-13T15:53:20.328Z</time>
      </trkpt>
      <trkpt lat="47.560683" lon="8.014628">
        <ele>366.398518</ele>
        <time>2021-11-13T15:53:36.815Z</time>
      </trkpt>
      <trkpt lat="47.560834" lon="8.014633">
        <ele>367.483057</ele>
        <time>2021-11-13T15:53:42.332Z</time>
      </trkpt>
      <trkpt lat="47.560957" lon="8.014567">
        <ele>368.422385</ele>
        <time>2021-11-13T15:53:48.555Z</time>
      </trkpt>
      <trkpt lat="47.560995" lon="8.014547">
        <ele>368.711946</ele>
        <time>2021-11-13T15:53:49.459Z</time>
      </trkpt>
      <trkpt lat="47.561174" lon="8.014255">
        <ele>370.623477</ele>
        <time>2021-11-13T15:54:02.162Z</time>
      </trkpt>
      <trkpt lat="47.561324" lon="8.013664">
        <ele>373.683010</ele>
        <time>2021-11-13T15:54:21.000Z</time>
      </trkpt>
      <trkpt lat="47.561442" lon="8.013448">
        <ele>375.029614</ele>
        <time>2021-11-13T15:54:27.640Z</time>
      </trkpt>
      <trkpt lat="47.561619" lon="8.013259">
        <ele>376.617960</ele>
        <time>2021-11-13T15:54:37.584Z</time>
      </trkpt>
      <trkpt lat="47.561899" lon="8.013170">
        <ele>378.703381</ele>
        <time>2021-11-13T15:54:50.553Z</time>
      </trkpt>
      <trkpt lat="47.562066" lon="8.013151">
        <ele>379.923104</ele>
        <time>2021-11-13T15:54:56.324Z</time>
      </trkpt>
      <trkpt lat="47.562148" lon="8.013140">
        <ele>380.522694</ele>
        <time>2021-11-13T15:54:59.243Z</time>
      </trkpt>
      <trkpt lat="47.562228" lon="8.013107">
        <ele>381.127427</ele>
        <time>2021-11-13T15:55:03.614Z</time>
      </trkpt>
      <trkpt lat="47.562467" lon="8.013027">
        <ele>382.911742</ele>
        <time>2021-11-13T15:55:13.296Z</time>
      </trkpt>
      <trkpt lat="47.562986" lon="8.012625">
        <ele>387.176364</ele>
        <time>2021-11-13T15:55:41.176Z</time>
      </trkpt>
      <trkpt lat="47.563093" lon="8.012604">
        <ele>387.962374</ele>
        <time>2021-11-13T15:55:45.801Z</time>
      </trkpt>
      <trkpt lat="47.563207" lon="8.012665">
        <ele>388.699152</ele>
        <time>2021-11-13T15:55:52.833Z</time>
      </trkpt>
      <trkpt lat="47.563289" lon="8.012797">
        <ele>389.394607</ele>
        <time>2021-11-13T15:55:58.515Z</time>
      </trkpt>
      <trkpt lat="47.563524" lon="8.013612">
        <ele>392.829973</ele>
        <time>2021-11-13T15:56:24.754Z</time>
      </trkpt>
      <trkpt lat="47.563694" lon="8.013972">
        <ele>394.533130</ele>
        <time>2021-11-13T15:56:34.479Z</time>
      </trkpt>
      <trkpt lat="47.563758" lon="8.014030">
        <ele>394.964056</ele>
        <time>2021-11-13T15:56:38.047Z</time>
      </trkpt>
      <trkpt lat="47.563908" lon="8.014085">
        <ele>395.851684</ele>
        <time>2021-11-13T15:56:42.827Z</time>
      </trkpt>
      <trkpt lat="47.564241" lon="8.013975">
        <ele>397.811481</ele>
        <time>2021-11-13T15:56:53.672Z</time>
      </trkpt>
      <trkpt lat="47.564751" lon="8.013465">
        <ele>399.309886</ele>
        <time>2021-11-13T15:57:10.220Z</time>
      </trkpt>
      <trkpt lat="47.565338" lon="8.012662">
        <ele>400.631573</ele>
        <time>2021-11-13T15:57:25.110Z</time>
      </trkpt>
      <trkpt lat="47.565501" lon="8.012111">
        <ele>401.303218</ele>
        <time>2021-11-13T15:57:31.686Z</time>
      </trkpt>
      <trkpt lat="47.565472" lon="8.011708">
        <ele>402.047432</ele>
        <time>2021-11-13T15:57:36.634Z</time>
      </trkpt>
      <trkpt lat="47.565220" lon="8.011190">
        <ele>403.469139</ele>
        <time>2021-11-13T15:57:45.497Z</time>
      </trkpt>
      <trkpt lat="47.565079" lon="8.011063">
        <ele>404.013541</ele>
        <time>2021-11-13T15:57:49.372Z</time>
      </trkpt>
      <trkpt lat="47.564831" lon="8.010977">
        <ele>404.853906</ele>
        <time>2021-11-13T15:57:55.819Z</time>
      </trkpt>
      <trkpt lat="47.564410" lon="8.011026">
        <ele>406.247251</ele>
        <time>2021-11-13T15:58:08.785Z</time>
      </trkpt>
      <trkpt lat="47.564251" lon="8.010805">
        <ele>406.966489</ele>
        <time>2021-11-13T15:58:16.722Z</time>
      </trkpt>
      <trkpt lat="47.564285" lon="8.010543">
        <ele>407.821339</ele>
        <time>2021-11-13T15:58:23.990Z</time>
      </trkpt>
      <trkpt lat="47.564366" lon="8.010437">
        <ele>408.745872</ele>
        <time>2021-11-13T15:58:28.720Z</time>
      </trkpt>
      <trkpt lat="47.564876" lon="8.010157">
        <ele>413.399125</ele>
        <time>2021-11-13T15:58:54.667Z</time>
      </trkpt>
      <trkpt lat="47.565384" lon="8.009424">
        <ele>419.465222</ele>
        <time>2021-11-13T15:59:32.221Z</time>
      </trkpt>
      <trkpt lat="47.565625" lon="8.009299">
        <ele>421.649799</ele>
        <time>2021-11-13T15:59:45.958Z</time>
      </trkpt>
      <trkpt lat="47.566213" lon="8.009186">
        <ele>426.578427</ele>
        <time>2021-11-13T16:00:17.392Z</time>
      </trkpt>
      <trkpt lat="47.566636" lon="8.009033">
        <ele>430.167214</ele>
        <time>2021-11-13T16:00:39.551Z</time>
      </trkpt>
      <trkpt lat="47.567295" lon="8.008508">
        <ele>436.333812</ele>
        <time>2021-11-13T16:01:13.133Z</time>
      </trkpt>
      <trkpt lat="47.567593" lon="8.008428">
        <ele>438.457931</ele>
        <time>2021-11-13T16:01:26.226Z</time>
      </trkpt>
      <trkpt lat="47.568942" lon="8.008356">
        <ele>446.189918</ele>
        <time>2021-11-13T16:02:18.209Z</time>
      </trkpt>
      <trkpt lat="47.569032" lon="8.008394">
        <ele>446.725942</ele>
        <time>2021-11-13T16:02:21.721Z</time>
      </trkpt>
      <trkpt lat="47.569090" lon="8.008418">
        <ele>447.070866</ele>
        <time>2021-11-13T16:02:23.256Z</time>
      </trkpt>
      <trkpt lat="47.569232" lon="8.008468">
        <ele>447.906870</ele>
        <time>2021-11-13T16:02:28.837Z</time>
      </trkpt>
      <trkpt lat="47.569356" lon="8.008548">
        <ele>448.196816</ele>
        <time>2021-11-13T16:02:32.556Z</time>
      </trkpt>
      <trkpt lat="47.569733" lon="8.009325">
        <ele>449.563080</ele>
        <time>2021-11-13T16:02:50.161Z</time>
      </trkpt>
      <trkpt lat="47.569881" lon="8.009480">
        <ele>449.946517</ele>
        <time>2021-11-13T16:02:54.233Z</time>
      </trkpt>
      <trkpt lat="47.569985" lon="8.009558">
        <ele>450.193137</ele>
        <time>2021-11-13T16:02:57.352Z</time>
      </trkpt>
      <trkpt lat="47.570110" lon="8.009604">
        <ele>450.465652</ele>
        <time>2021-11-13T16:02:59.250Z</time>
      </trkpt>
      <trkpt lat="47.570537" lon="8.009765">
        <ele>451.397906</ele>
        <time>2021-11-13T16:03:06.936Z</time>
      </trkpt>
      <trkpt lat="47.570679" lon="8.009960">
        <ele>451.743023</ele>
        <time>2021-11-13T16:03:09.817Z</time>
      </trkpt>
      <trkpt lat="47.570901" lon="8.010376">
        <ele>451.951046</ele>
        <time>2021-11-13T16:03:14.908Z</time>
      </trkpt>
      <trkpt lat="47.571091" lon="8.010633">
        <ele>452.100573</ele>
        <time>2021-11-13T16:03:18.936Z</time>
      </trkpt>
      <trkpt lat="47.571221" lon="8.010706">
        <ele>452.181385</ele>
        <time>2021-11-13T16:03:20.598Z</time>
      </trkpt>
      <trkpt lat="47.571485" lon="8.010679">
        <ele>452.335215</ele>
        <time>2021-11-13T16:03:24.561Z</time>
      </trkpt>
      <trkpt lat="47.571642" lon="8.010477">
        <ele>452.456069</ele>
        <time>2021-11-13T16:03:27.502Z</time>
      </trkpt>
      <trkpt lat="47.571749" lon="8.009974">
        <ele>452.662914</ele>
        <time>2021-11-13T16:03:33.429Z</time>
      </trkpt>
      <trkpt lat="47.571538" lon="8.008187">
        <ele>457.268958</ele>
        <time>2021-11-13T16:04:06.711Z</time>
      </trkpt>
      <trkpt lat="47.571577" lon="8.007177">
        <ele>460.197837</ele>
        <time>2021-11-13T16:04:32.432Z</time>
      </trkpt>
      <trkpt lat="47.571832" lon="8.005893">
        <ele>467.448108</ele>
        <time>2021-11-13T16:05:14.674Z</time>
      </trkpt>
      <trkpt lat="47.571947" lon="8.005585">
        <ele>469.425319</ele>
        <time>2021-11-13T16:05:27.013Z</time>
      </trkpt>
      <trkpt lat="47.572250" lon="8.005072">
        <ele>473.254884</ele>
        <time>2021-11-13T16:05:50.525Z</time>
      </trkpt>
      <trkpt lat="47.572545" lon="8.004649">
        <ele>476.499037</ele>
        <time>2021-11-13T16:06:11.808Z</time>
      </trkpt>
      <trkpt lat="47.572581" lon="8.004598">
        <ele>476.854632</ele>
        <time>2021-11-13T16:06:14.793Z</time>
      </trkpt>
      <trkpt lat="47.572812" lon="8.004145">
        <ele>479.590218</ele>
        <time>2021-11-13T16:06:33.572Z</time>
      </trkpt>
      <trkpt lat="47.572894" lon="8.003925">
        <ele>480.801058</ele>
        <time>2021-11-13T16:06:41.071Z</time>
      </trkpt>
      <trkpt lat="47.572959" lon="8.003732">
        <ele>481.840247</ele>
        <time>2021-11-13T16:06:48.077Z</time>
      </trkpt>
      <trkpt lat="47.573083" lon="8.003074">
        <ele>485.131492</ele>
        <time>2021-11-13T16:07:06.939Z</time>
      </trkpt>
      <trkpt lat="47.573074" lon="8.002958">
        <ele>485.694002</ele>
        <time>2021-11-13T16:07:10.195Z</time>
      </trkpt>
      <trkpt lat="47.573018" lon="8.002565">
        <ele>487.629039</ele>
        <time>2021-11-13T16:07:19.799Z</time>
      </trkpt>
      <trkpt lat="47.572970" lon="8.002337">
        <ele>488.555041</ele>
        <time>2021-11-13T16:07:26.037Z</time>
      </trkpt>
      <trkpt lat="47.572945" lon="8.002160">
        <ele>489.018068</ele>
        <time>2021-11-13T16:07:29.636Z</time>
      </trkpt>
      <trkpt lat="47.572943" lon="8.002035">
        <ele>489.338216</ele>
        <time>2021-11-13T16:07:31.770Z</time>
      </trkpt>
      <trkpt lat="47.572938" lon="8.001983">
        <ele>489.472705</ele>
        <time>2021-11-13T16:07:33.106Z</time>
      </trkpt>
      <trkpt lat="47.572938" lon="8.001919">
        <ele>489.636575</ele>
        <time>2021-11-13T16:07:34.771Z</time>
      </trkpt>
      <trkpt lat="47.572940" lon="8.001742">
        <ele>490.089840</ele>
        <time>2021-11-13T16:07:38.993Z</time>
      </trkpt>
      <trkpt lat="47.572943" lon="8.001367">
        <ele>491.050080</ele>
        <time>2021-11-13T16:07:45.897Z</time>
      </trkpt>
      <trkpt lat="47.572935" lon="8.001208">
        <ele>491.458324</ele>
        <time>2021-11-13T16:07:49.165Z</time>
      </trkpt>
      <trkpt lat="47.572887" lon="8.000996">
        <ele>492.030895</ele>
        <time>2021-11-13T16:07:53.251Z</time>
      </trkpt>
      <trkpt lat="47.572824" lon="8.000753">
        <ele>492.697448</ele>
        <time>2021-11-13T16:07:58.847Z</time>
      </trkpt>
      <trkpt lat="47.572747" lon="8.000534">
        <ele>493.329771</ele>
        <time>2021-11-13T16:08:03.209Z</time>
      </trkpt>
      <trkpt lat="47.572681" lon="8.000351">
        <ele>493.861088</ele>
        <time>2021-11-13T16:08:06.448Z</time>
      </trkpt>
      <trkpt lat="47.572662" lon="8.000300">
        <ele>494.010259</ele>
        <time>2021-11-13T16:08:07.993Z</time>
      </trkpt>
      <trkpt lat="47.572611" lon="8.000059">
        <ele>494.656978</ele>
        <time>2021-11-13T16:08:12.385Z</time>
      </trkpt>
      <trkpt lat="47.572543" lon="7.999708">
        <ele>495.718362</ele>
        <time>2021-11-13T16:08:18.733Z</time>
      </trkpt>
      <trkpt lat="47.572560" lon="7.999471">
        <ele>496.494228</ele>
        <time>2021-11-13T16:08:23.052Z</time>
      </trkpt>
      <trkpt lat="47.572588" lon="7.999397">
        <ele>496.770424</ele>
        <time>2021-11-13T16:08:24.887Z</time>
      </trkpt>
      <trkpt lat="47.572623" lon="7.999326">
        <ele>497.056679</ele>
        <time>2021-11-13T16:08:27.230Z</time>
      </trkpt>
      <trkpt lat="47.572684" lon="7.999259">
        <ele>497.423020</ele>
        <time>2021-11-13T16:08:29.375Z</time>
      </trkpt>
      <trkpt lat="47.572737" lon="7.999234">
        <ele>497.691393</ele>
        <time>2021-11-13T16:08:30.702Z</time>
      </trkpt>
      <trkpt lat="47.572777" lon="7.999223">
        <ele>497.887694</ele>
        <time>2021-11-13T16:08:32.193Z</time>
      </trkpt>
      <trkpt lat="47.573195" lon="7.999350">
        <ele>499.946563</ele>
        <time>2021-11-13T16:08:45.623Z</time>
      </trkpt>
      <trkpt lat="47.573315" lon="7.999386">
        <ele>500.537328</ele>
        <time>2021-11-13T16:08:50.677Z</time>
      </trkpt>
      <trkpt lat="47.573715" lon="7.999508">
        <ele>502.507843</ele>
        <time>2021-11-13T16:09:05.244Z</time>
      </trkpt>
      <trkpt lat="47.573776" lon="7.999524">
        <ele>502.806753</ele>
        <time>2021-11-13T16:09:07.448Z</time>
      </trkpt>
      <trkpt lat="47.573866" lon="7.999552">
        <ele>503.250484</ele>
        <time>2021-11-13T16:09:11.376Z</time>
      </trkpt>
      <trkpt lat="47.574018" lon="7.999596">
        <ele>504.116601</ele>
        <time>2021-11-13T16:09:17.940Z</time>
      </trkpt>
      <trkpt lat="47.574575" lon="7.999662">
        <ele>508.477597</ele>
        <time>2021-11-13T16:09:42.312Z</time>
      </trkpt>
      <trkpt lat="47.574980" lon="7.999619">
        <ele>511.646534</ele>
        <time>2021-11-13T16:10:02.246Z</time>
      </trkpt>
      <trkpt lat="47.575287" lon="7.999480">
        <ele>514.151806</ele>
        <time>2021-11-13T16:10:17.898Z</time>
      </trkpt>
      <trkpt lat="47.575566" lon="7.999346">
        <ele>516.440719</ele>
        <time>2021-11-13T16:10:32.229Z</time>
      </trkpt>
      <trkpt lat="47.575987" lon="7.999032">
        <ele>519.962655</ele>
        <time>2021-11-13T16:10:54.063Z</time>
      </trkpt>
      <trkpt lat="47.576107" lon="7.998921">
        <ele>520.990798</ele>
        <time>2021-11-13T16:11:01.156Z</time>
      </trkpt>
      <trkpt lat="47.576470" lon="7.998500">
        <ele>524.340977</ele>
        <time>2021-11-13T16:11:22.275Z</time>
      </trkpt>
      <trkpt lat="47.576631" lon="7.998208">
        <ele>526.190211</ele>
        <time>2021-11-13T16:11:33.483Z</time>
      </trkpt>
      <trkpt lat="47.576808" lon="7.997691">
        <ele>529.033110</ele>
        <time>2021-11-13T16:11:49.765Z</time>
      </trkpt>
      <trkpt lat="47.576985" lon="7.996833">
        <ele>532.950375</ele>
        <time>2021-11-13T16:12:13.108Z</time>
      </trkpt>
      <trkpt lat="47.577129" lon="7.996491">
        <ele>534.548276</ele>
        <time>2021-11-13T16:12:23.243Z</time>
      </trkpt>
      <trkpt lat="47.577911" lon="7.995693">
        <ele>540.126268</ele>
        <time>2021-11-13T16:12:59.484Z</time>
      </trkpt>
      <trkpt lat="47.578154" lon="7.995336">
        <ele>542.064109</ele>
        <time>2021-11-13T16:13:12.662Z</time>
      </trkpt>
      <trkpt lat="47.578303" lon="7.994990">
        <ele>543.510699</ele>
        <time>2021-11-13T16:13:23.835Z</time>
      </trkpt>
      <trkpt lat="47.578718" lon="7.993614">
        <ele>548.822344</ele>
        <time>2021-11-13T16:14:00.546Z</time>
      </trkpt>
      <trkpt lat="47.578838" lon="7.993259">
        <ele>550.221646</ele>
        <time>2021-11-13T16:14:08.896Z</time>
      </trkpt>
      <trkpt lat="47.578897" lon="7.993124">
        <ele>550.788504</ele>
        <time>2021-11-13T16:14:12.720Z</time>
      </trkpt>
      <trkpt lat="47.579219" lon="7.992722">
        <ele>552.726971</ele>
        <time>2021-11-13T16:14:25.929Z</time>
      </trkpt>
      <trkpt lat="47.579605" lon="7.992545">
        <ele>554.576514</ele>
        <time>2021-11-13T16:14:37.955Z</time>
      </trkpt>
      <trkpt lat="47.579905" lon="7.992529">
        <ele>555.950674</ele>
        <time>2021-11-13T16:14:48.204Z</time>
      </trkpt>
      <trkpt lat="47.580472" lon="7.992684">
        <ele>558.589917</ele>
        <time>2021-11-13T16:15:06.928Z</time>
      </trkpt>
      <trkpt lat="47.580510" lon="7.992660">
        <ele>558.778993</ele>
        <time>2021-11-13T16:15:09.017Z</time>
      </trkpt>
      <trkpt lat="47.580618" lon="7.992910">
        <ele>560.049554</ele>
        <time>2021-11-13T16:15:15.953Z</time>
      </trkpt>
      <trkpt lat="47.580746" lon="7.993147">
        <ele>561.557511</ele>
        <time>2021-11-13T16:15:23.675Z</time>
      </trkpt>
      <trkpt lat="47.580922" lon="7.993422">
        <ele>563.440333</ele>
        <time>2021-11-13T16:15:32.861Z</time>
      </trkpt>
      <trkpt lat="47.581061" lon="7.993595">
        <ele>564.776684</ele>
        <time>2021-11-13T16:15:41.192Z</time>
      </trkpt>
      <trkpt lat="47.581631" lon="7.994181">
        <ele>569.884131</ele>
        <time>2021-11-13T16:16:11.800Z</time>
      </trkpt>
      <trkpt lat="47.582041" lon="7.994482">
        <ele>573.403694</ele>
        <time>2021-11-13T16:16:38.526Z</time>
      </trkpt>
      <trkpt lat="47.582354" lon="7.994436">
        <ele>576.109803</ele>
        <time>2021-11-13T16:16:56.485Z</time>
      </trkpt>
      <trkpt lat="47.582850" lon="7.994143">
        <ele>580.703452</ele>
        <time>2021-11-13T16:17:22.278Z</time>
      </trkpt>
      <trkpt lat="47.582981" lon="7.994223">
        <ele>581.922392</ele>
        <time>2021-11-13T16:17:27.891Z</time>
      </trkpt>
      <trkpt lat="47.582994" lon="7.994245">
        <ele>582.092126</ele>
        <time>2021-11-13T16:17:30.131Z</time>
      </trkpt>
      <trkpt lat="47.583068" lon="7.994495">
        <ele>583.676491</ele>
        <time>2021-11-13T16:17:37.487Z</time>
      </trkpt>
      <trkpt lat="47.582956" lon="7.995058">
        <ele>587.082867</ele>
        <time>2021-11-13T16:17:55.009Z</time>
      </trkpt>
      <trkpt lat="47.582924" lon="7.995208">
        <ele>587.949786</ele>
        <time>2021-11-13T16:17:58.912Z</time>
      </trkpt>
      <trkpt lat="47.582884" lon="7.995369">
        <ele>588.664513</ele>
        <time>2021-11-13T16:18:06.252Z</time>
      </trkpt>
      <trkpt lat="47.582889" lon="7.995812">
        <ele>590.510180</ele>
        <time>2021-11-13T16:18:19.614Z</time>
      </trkpt>
      <trkpt lat="47.583085" lon="7.996290">
        <ele>592.840435</ele>
        <time>2021-11-13T16:18:35.417Z</time>
      </trkpt>
      <trkpt lat="47.583357" lon="7.996485">
        <ele>594.706344</ele>
        <time>2021-11-13T16:18:45.383Z</time>
      </trkpt>
      <trkpt lat="47.583554" lon="7.996491">
        <ele>595.923229</ele>
        <time>2021-11-13T16:18:51.723Z</time>
      </trkpt>
      <trkpt lat="47.584002" lon="7.996337">
        <ele>598.763377</ele>
        <time>2021-11-13T16:19:07.773Z</time>
      </trkpt>
      <trkpt lat="47.584188" lon="7.996318">
        <ele>600.187338</ele>
        <time>2021-11-13T16:19:14.207Z</time>
      </trkpt>
      <trkpt lat="47.585324" lon="7.996614">
        <ele>609.303372</ele>
        <time>2021-11-13T16:20:05.518Z</time>
      </trkpt>
      <trkpt lat="47.586010" lon="7.996485">
        <ele>614.989117</ele>
        <time>2021-11-13T16:20:45.173Z</time>
      </trkpt>
      <trkpt lat="47.586377" lon="7.996241">
        <ele>618.602690</ele>
        <time>2021-11-13T16:21:06.997Z</time>
      </trkpt>
      <trkpt lat="47.586511" lon="7.996110">
        <ele>620.044741</ele>
        <time>2021-11-13T16:21:17.884Z</time>
      </trkpt>
      <trkpt lat="47.586622" lon="7.995984">
        <ele>621.300718</ele>
        <time>2021-11-13T16:21:23.774Z</time>
      </trkpt>
      <trkpt lat="47.586778" lon="7.995749">
        <ele>623.298760</ele>
        <time>2021-11-13T16:21:37.145Z</time>
      </trkpt>
      <trkpt lat="47.587069" lon="7.995057">
        <ele>628.240291</ele>
        <time>2021-11-13T16:22:03.066Z</time>
      </trkpt>
      <trkpt lat="47.587615" lon="7.992977">
        <ele>635.785856</ele>
        <time>2021-11-13T16:22:57.069Z</time>
      </trkpt>
      <trkpt lat="47.587950" lon="7.992314">
        <ele>638.029855</ele>
        <time>2021-11-13T16:23:09.993Z</time>
      </trkpt>
      <trkpt lat="47.588182" lon="7.992002">
        <ele>638.708408</ele>
        <time>2021-11-13T16:23:16.552Z</time>
      </trkpt>
      <trkpt lat="47.588784" lon="7.991274">
        <ele>640.391362</ele>
        <time>2021-11-13T16:23:34.419Z</time>
      </trkpt>
      <trkpt lat="47.588977" lon="7.991069">
        <ele>640.905695</ele>
        <time>2021-11-13T16:23:39.021Z</time>
      </trkpt>
      <trkpt lat="47.589147" lon="7.990836">
        <ele>641.407228</ele>
        <time>2021-11-13T16:23:44.713Z</time>
      </trkpt>
      <trkpt lat="47.589254" lon="7.990683">
        <ele>641.885280</ele>
        <time>2021-11-13T16:23:46.627Z</time>
      </trkpt>
      <trkpt lat="47.589334" lon="7.990467">
        <ele>642.718827</ele>
        <time>2021-11-13T16:23:53.234Z</time>
      </trkpt>
      <trkpt lat="47.589516" lon="7.989967">
        <ele>644.640694</ele>
        <time>2021-11-13T16:24:03.909Z</time>
      </trkpt>
      <trkpt lat="47.589661" lon="7.989741">
        <ele>645.695795</ele>
        <time>2021-11-13T16:24:08.282Z</time>
      </trkpt>
      <trkpt lat="47.589745" lon="7.989634">
        <ele>646.251201</ele>
        <time>2021-11-13T16:24:14.904Z</time>
      </trkpt>
      <trkpt lat="47.589802" lon="7.989594">
        <ele>646.567477</ele>
        <time>2021-11-13T16:24:17.246Z</time>
      </trkpt>
      <trkpt lat="47.589888" lon="7.989555">
        <ele>647.018518</ele>
        <time>2021-11-13T16:24:19.815Z</time>
      </trkpt>
      <trkpt lat="47.590153" lon="7.989440">
        <ele>648.403335</ele>
        <time>2021-11-13T16:24:32.031Z</time>
      </trkpt>
      <trkpt lat="47.590332" lon="7.989372">
        <ele>649.330076</ele>
        <time>2021-11-13T16:24:37.748Z</time>
      </trkpt>
      <trkpt lat="47.590392" lon="7.989205">
        <ele>649.970103</ele>
        <time>2021-11-13T16:24:45.840Z</time>
      </trkpt>
      <trkpt lat="47.590456" lon="7.988863">
        <ele>651.187244</ele>
        <time>2021-11-13T16:24:53.961Z</time>
      </trkpt>
      <trkpt lat="47.590529" lon="7.988254">
        <ele>653.343979</ele>
        <time>2021-11-13T16:25:13.456Z</time>
      </trkpt>
      <trkpt lat="47.590598" lon="7.987915">
        <ele>654.578658</ele>
        <time>2021-11-13T16:25:24.685Z</time>
      </trkpt>
      <trkpt lat="47.590902" lon="7.986783">
        <ele>658.827097</ele>
        <time>2021-11-13T16:25:51.041Z</time>
      </trkpt>
      <trkpt lat="47.591034" lon="7.986459">
        <ele>659.953251</ele>
        <time>2021-11-13T16:25:59.650Z</time>
      </trkpt>
      <trkpt lat="47.591143" lon="7.986333">
        <ele>660.028521</ele>
        <time>2021-11-13T16:26:01.191Z</time>
      </trkpt>
      <trkpt lat="47.591392" lon="7.986243">
        <ele>660.168097</ele>
        <time>2021-11-13T16:26:07.197Z</time>
      </trkpt>
      <trkpt lat="47.591589" lon="7.986285">
        <ele>660.276486</ele>
        <time>2021-11-13T16:26:09.852Z</time>
      </trkpt>
      <trkpt lat="47.591744" lon="7.986404">
        <ele>660.371543</ele>
        <time>2021-11-13T16:26:11.935Z</time>
      </trkpt>
      <trkpt lat="47.591825" lon="7.986496">
        <ele>660.427110</ele>
        <time>2021-11-13T16:26:12.954Z</time>
      </trkpt>
      <trkpt lat="47.591989" lon="7.986949">
        <ele>660.615945</ele>
        <time>2021-11-13T16:26:17.595Z</time>
      </trkpt>
      <trkpt lat="47.591872" lon="7.987834">
        <ele>661.140365</ele>
        <time>2021-11-13T16:26:27.245Z</time>
      </trkpt>
      <trkpt lat="47.591874" lon="7.987958">
        <ele>661.422579</ele>
        <time>2021-11-13T16:26:28.117Z</time>
      </trkpt>
      <trkpt lat="47.591910" lon="7.988145">
        <ele>661.865048</ele>
        <time>2021-11-13T16:26:32.094Z</time>
      </trkpt>
      <trkpt lat="47.591971" lon="7.988287">
        <ele>662.248111</ele>
        <time>2021-11-13T16:26:34.033Z</time>
      </trkpt>
      <trkpt lat="47.592119" lon="7.988433">
        <ele>662.847827</ele>
        <time>2021-11-13T16:26:37.262Z</time>
      </trkpt>
      <trkpt lat="47.592324" lon="7.988430">
        <ele>663.539473</ele>
        <time>2021-11-13T16:26:43.803Z</time>
      </trkpt>
      <trkpt lat="47.592751" lon="7.988147">
        <ele>665.117403</ele>
        <time>2021-11-13T16:26:58.248Z</time>
      </trkpt>
      <trkpt lat="47.593485" lon="7.987901">
        <ele>667.774572</ele>
        <time>2021-11-13T16:27:26.893Z</time>
      </trkpt>
      <trkpt lat="47.594497" lon="7.987070">
        <ele>672.358749</ele>
        <time>2021-11-13T16:28:03.980Z</time>
      </trkpt>
      <trkpt lat="47.594655" lon="7.986957">
        <ele>673.053887</ele>
        <time>2021-11-13T16:28:08.456Z</time>
      </trkpt>
      <trkpt lat="47.594863" lon="7.986909">
        <ele>673.888068</ele>
        <time>2021-11-13T16:28:13.626Z</time>
      </trkpt>
      <trkpt lat="47.595069" lon="7.987007">
        <ele>674.437101</ele>
        <time>2021-11-13T16:28:18.503Z</time>
      </trkpt>
      <trkpt lat="47.595223" lon="7.987252">
        <ele>674.900769</ele>
        <time>2021-11-13T16:28:23.410Z</time>
      </trkpt>
      <trkpt lat="47.595279" lon="7.987696">
        <ele>675.526097</ele>
        <time>2021-11-13T16:28:29.880Z</time>
      </trkpt>
      <trkpt lat="47.595231" lon="7.988803">
        <ele>677.061782</ele>
        <time>2021-11-13T16:28:45.615Z</time>
      </trkpt>
      <trkpt lat="47.595288" lon="7.989057">
        <ele>677.432375</ele>
        <time>2021-11-13T16:28:49.804Z</time>
      </trkpt>
      <trkpt lat="47.595392" lon="7.989263">
        <ele>677.788623</ele>
        <time>2021-11-13T16:28:54.001Z</time>
      </trkpt>
      <trkpt lat="47.595627" lon="7.989468">
        <ele>679.012726</ele>
        <time>2021-11-13T16:29:01.174Z</time>
      </trkpt>
      <trkpt lat="47.595940" lon="7.989500">
        <ele>680.434573</ele>
        <time>2021-11-13T16:29:10.251Z</time>
      </trkpt>
      <trkpt lat="47.596445" lon="7.989273">
        <ele>682.826008</ele>
        <time>2021-11-13T16:29:26.945Z</time>
      </trkpt>
      <trkpt lat="47.597197" lon="7.988790">
        <ele>686.808313</ele>
        <time>2021-11-13T16:29:58.663Z</time>
      </trkpt>
      <trkpt lat="47.597809" lon="7.988272">
        <ele>691.453261</ele>
        <time>2021-11-13T16:30:29.432Z</time>
      </trkpt>
      <trkpt lat="47.598168" lon="7.987924">
        <ele>694.280384</ele>
        <time>2021-11-13T16:30:47.677Z</time>
      </trkpt>
      <trkpt lat="47.598432" lon="7.987661">
        <ele>696.376786</ele>
        <time>2021-11-13T16:31:00.544Z</time>
      </trkpt>
      <trkpt lat="47.598468" lon="7.987626">
        <ele>696.660536</ele>
        <time>2021-11-13T16:31:02.306Z</time>
      </trkpt>
      <trkpt lat="47.598718" lon="7.987384">
        <ele>698.576214</ele>
        <time>2021-11-13T16:31:14.000Z</time>
      </trkpt>
      <trkpt lat="47.598970" lon="7.987189">
        <ele>700.330926</ele>
        <time>2021-11-13T16:31:25.033Z</time>
      </trkpt>
      <trkpt lat="47.599584" lon="7.986808">
        <ele>704.439753</ele>
        <time>2021-11-13T16:31:49.739Z</time>
      </trkpt>
      <trkpt lat="47.600674" lon="7.986173">
        <ele>712.406518</ele>
        <time>2021-11-13T16:32:37.368Z</time>
      </trkpt>
      <trkpt lat="47.600869" lon="7.986065">
        <ele>714.034776</ele>
        <time>2021-11-13T16:32:48.481Z</time>
      </trkpt>
      <trkpt lat="47.600959" lon="7.986011">
        <ele>714.794222</ele>
        <time>2021-11-13T16:32:52.895Z</time>
      </trkpt>
      <trkpt lat="47.601244" lon="7.985812">
        <ele>717.258328</ele>
        <time>2021-11-13T16:33:09.134Z</time>
      </trkpt>
      <trkpt lat="47.601702" lon="7.985353">
        <ele>721.582271</ele>
        <time>2021-11-13T16:33:34.648Z</time>
      </trkpt>
      <trkpt lat="47.601786" lon="7.985227">
        <ele>722.516841</ele>
        <time>2021-11-13T16:33:42.223Z</time>
      </trkpt>
      <trkpt lat="47.601944" lon="7.984990">
        <ele>723.726964</ele>
        <time>2021-11-13T16:33:50.956Z</time>
      </trkpt>
      <trkpt lat="47.602072" lon="7.984743">
        <ele>724.675661</ele>
        <time>2021-11-13T16:34:01.698Z</time>
      </trkpt>
      <trkpt lat="47.602182" lon="7.984530">
        <ele>725.492721</ele>
        <time>2021-11-13T16:34:08.449Z</time>
      </trkpt>
      <trkpt lat="47.602644" lon="7.983742">
        <ele>728.672769</ele>
        <time>2021-11-13T16:34:32.479Z</time>
      </trkpt>
      <trkpt lat="47.602721" lon="7.983621">
        <ele>729.179450</ele>
        <time>2021-11-13T16:34:37.456Z</time>
      </trkpt>
      <trkpt lat="47.602904" lon="7.983364">
        <ele>730.317725</ele>
        <time>2021-11-13T16:34:42.654Z</time>
      </trkpt>
      <trkpt lat="47.603580" lon="7.982596">
        <ele>729.328912</ele>
        <time>2021-11-13T16:34:53.328Z</time>
      </trkpt>
      <trkpt lat="47.604541" lon="7.981767">
        <ele>726.420621</ele>
        <time>2021-11-13T16:35:04.280Z</time>
      </trkpt>
      <trkpt lat="47.604742" lon="7.981251">
        <ele>724.097153</ele>
        <time>2021-11-13T16:35:07.970Z</time>
      </trkpt>
      <trkpt lat="47.604737" lon="7.980685">
        <ele>721.862315</ele>
        <time>2021-11-13T16:35:11.430Z</time>
      </trkpt>
      <trkpt lat="47.604707" lon="7.980526">
        <ele>721.210444</ele>
        <time>2021-11-13T16:35:12.403Z</time>
      </trkpt>
      <trkpt lat="47.604684" lon="7.980290">
        <ele>720.269000</ele>
        <time>2021-11-13T16:35:13.870Z</time>
      </trkpt>
      <trkpt lat="47.604731" lon="7.979649">
        <ele>717.723321</ele>
        <time>2021-11-13T16:35:17.901Z</time>
      </trkpt>
      <trkpt lat="47.604776" lon="7.979454">
        <ele>716.909588</ele>
        <time>2021-11-13T16:35:19.135Z</time>
      </trkpt>
      <trkpt lat="47.604918" lon="7.978996">
        <ele>715.310604</ele>
        <time>2021-11-13T16:35:22.292Z</time>
      </trkpt>
      <trkpt lat="47.604988" lon="7.978584">
        <ele>714.327440</ele>
        <time>2021-11-13T16:35:25.008Z</time>
      </trkpt>
      <trkpt lat="47.605075" lon="7.977483">
        <ele>711.762313</ele>
        <time>2021-11-13T16:35:32.328Z</time>
      </trkpt>
      <trkpt lat="47.605029" lon="7.976646">
        <ele>709.819091</ele>
        <time>2021-11-13T16:35:38.755Z</time>
      </trkpt>
      <trkpt lat="47.604916" lon="7.975943">
        <ele>709.950831</ele>
        <time>2021-11-13T16:35:44.960Z</time>
      </trkpt>
      <trkpt lat="47.604837" lon="7.975632">
        <ele>710.079801</ele>
        <time>2021-11-13T16:35:48.070Z</time>
      </trkpt>
      <trkpt lat="47.604722" lon="7.975230">
        <ele>710.249265</ele>
        <time>2021-11-13T16:35:53.120Z</time>
      </trkpt>
      <trkpt lat="47.604645" lon="7.974490">
        <ele>710.539834</ele>
        <time>2021-11-13T16:36:03.063Z</time>
      </trkpt>
      <trkpt lat="47.604708" lon="7.974012">
        <ele>710.739110</ele>
        <time>2021-11-13T16:36:10.216Z</time>
      </trkpt>
      <trkpt lat="47.604760" lon="7.973795">
        <ele>711.317122</ele>
        <time>2021-11-13T16:36:14.584Z</time>
      </trkpt>
      <trkpt lat="47.604831" lon="7.973588">
        <ele>711.900022</ele>
        <time>2021-11-13T16:36:18.279Z</time>
      </trkpt>
      <trkpt lat="47.604839" lon="7.973573">
        <ele>711.948024</ele>
        <time>2021-11-13T16:36:18.638Z</time>
      </trkpt>
      <trkpt lat="47.604857" lon="7.973536">
        <ele>712.062538</ele>
        <time>2021-11-13T16:36:19.510Z</time>
      </trkpt>
      <trkpt lat="47.604923" lon="7.973403">
        <ele>712.477012</ele>
        <time>2021-11-13T16:36:23.322Z</time>
      </trkpt>
      <trkpt lat="47.605374" lon="7.972905">
        <ele>714.570031</ele>
        <time>2021-11-13T16:36:37.999Z</time>
      </trkpt>
      <trkpt lat="47.605516" lon="7.972819">
        <ele>715.140993</ele>
        <time>2021-11-13T16:36:44.175Z</time>
      </trkpt>
      <trkpt lat="47.605454" lon="7.972717">
        <ele>715.485670</ele>
        <time>2021-11-13T16:36:46.786Z</time>
      </trkpt>
      <trkpt lat="47.605365" lon="7.972611">
        <ele>715.910567</ele>
        <time>2021-11-13T16:36:49.786Z</time>
      </trkpt>
      <trkpt lat="47.605224" lon="7.972488">
        <ele>716.519491</ele>
        <time>2021-11-13T16:36:56.455Z</time>
      </trkpt>
      <trkpt lat="47.605261" lon="7.972326">
        <ele>716.948777</ele>
        <time>2021-11-13T16:36:59.934Z</time>
      </trkpt>
      <trkpt lat="47.605277" lon="7.972254">
        <ele>717.139047</ele>
        <time>2021-11-13T16:37:01.374Z</time>
      </trkpt>
      <trkpt lat="47.605294" lon="7.972024">
        <ele>717.894429</ele>
        <time>2021-11-13T16:37:07.772Z</time>
      </trkpt>
      <trkpt lat="47.605285" lon="7.971687">
        <ele>719.238053</ele>
        <time>2021-11-13T16:37:15.274Z</time>
      </trkpt>
      <trkpt lat="47.605293" lon="7.971142">
        <ele>721.409788</ele>
        <time>2021-11-13T16:37:28.834Z</time>
      </trkpt>
      <trkpt lat="47.605334" lon="7.970757">
        <ele>722.962600</ele>
        <time>2021-11-13T16:37:40.031Z</time>
      </trkpt>
      <trkpt lat="47.605394" lon="7.970424">
        <ele>724.335789</ele>
        <time>2021-11-13T16:37:48.941Z</time>
      </trkpt>
      <trkpt lat="47.605616" lon="7.969840">
        <ele>727.006681</ele>
        <time>2021-11-13T16:38:06.769Z</time>
      </trkpt>
      <trkpt lat="47.605817" lon="7.969371">
        <ele>729.499186</ele>
        <time>2021-11-13T16:38:21.298Z</time>
      </trkpt>
      <trkpt lat="47.606108" lon="7.968738">
        <ele>733.277734</ele>
        <time>2021-11-13T16:38:43.819Z</time>
      </trkpt>
      <trkpt lat="47.606364" lon="7.968338">
        <ele>735.997750</ele>
        <time>2021-11-13T16:39:00.634Z</time>
      </trkpt>
      <trkpt lat="47.606870" lon="7.967721">
        <ele>740.789371</ele>
        <time>2021-11-13T16:39:31.374Z</time>
      </trkpt>
      <trkpt lat="47.607095" lon="7.967514">
        <ele>742.811573</ele>
        <time>2021-11-13T16:39:43.682Z</time>
      </trkpt>
      <trkpt lat="47.607658" lon="7.967106">
        <ele>747.652954</ele>
        <time>2021-11-13T16:40:10.603Z</time>
      </trkpt>
      <trkpt lat="47.609221" lon="7.966057">
        <ele>761.030046</ele>
        <time>2021-11-13T16:41:31.168Z</time>
      </trkpt>
      <trkpt lat="47.609371" lon="7.965858">
        <ele>762.617642</ele>
        <time>2021-11-13T16:41:40.734Z</time>
      </trkpt>
      <trkpt lat="47.609398" lon="7.965823">
        <ele>762.900521</ele>
        <time>2021-11-13T16:41:42.265Z</time>
      </trkpt>
      <trkpt lat="47.609436" lon="7.965776">
        <ele>763.290844</ele>
        <time>2021-11-13T16:41:44.650Z</time>
      </trkpt>
      <trkpt lat="47.609733" lon="7.965333">
        <ele>766.613621</ele>
        <time>2021-11-13T16:42:03.762Z</time>
      </trkpt>
      <trkpt lat="47.610758" lon="7.963604">
        <ele>778.328676</ele>
        <time>2021-11-13T16:43:15.739Z</time>
      </trkpt>
      <trkpt lat="47.611128" lon="7.963082">
        <ele>782.133725</ele>
        <time>2021-11-13T16:43:37.360Z</time>
      </trkpt>
      <trkpt lat="47.611356" lon="7.962756">
        <ele>784.109414</ele>
        <time>2021-11-13T16:43:50.567Z</time>
      </trkpt>
      <trkpt lat="47.611648" lon="7.962205">
        <ele>786.877809</ele>
        <time>2021-11-13T16:44:09.378Z</time>
      </trkpt>
      <trkpt lat="47.611917" lon="7.961735">
        <ele>789.313108</ele>
        <time>2021-11-13T16:44:26.125Z</time>
      </trkpt>
      <trkpt lat="47.612099" lon="7.961419">
        <ele>790.954786</ele>
        <time>2021-11-13T16:44:37.018Z</time>
      </trkpt>
      <trkpt lat="47.612311" lon="7.961103">
        <ele>792.715717</ele>
        <time>2021-11-13T16:44:47.289Z</time>
      </trkpt>
      <trkpt lat="47.612484" lon="7.960712">
        <ele>793.791948</ele>
        <time>2021-11-13T16:44:57.058Z</time>
      </trkpt>
      <trkpt lat="47.612693" lon="7.960527">
        <ele>794.390101</ele>
        <time>2021-11-13T16:45:04.232Z</time>
      </trkpt>
      <trkpt lat="47.612881" lon="7.960311">
        <ele>794.974526</ele>
        <time>2021-11-13T16:45:11.656Z</time>
      </trkpt>
      <trkpt lat="47.612766" lon="7.960065">
        <ele>795.470507</ele>
        <time>2021-11-13T16:45:16.759Z</time>
      </trkpt>
      <trkpt lat="47.612685" lon="7.959801">
        <ele>795.951074</ele>
        <time>2021-11-13T16:45:21.741Z</time>
      </trkpt>
      <trkpt lat="47.612659" lon="7.959516">
        <ele>796.427569</ele>
        <time>2021-11-13T16:45:25.980Z</time>
      </trkpt>
      <trkpt lat="47.612741" lon="7.958660">
        <ele>797.590885</ele>
        <time>2021-11-13T16:45:35.505Z</time>
      </trkpt>
      <trkpt lat="47.612728" lon="7.958409">
        <ele>797.459763</ele>
        <time>2021-11-13T16:45:38.055Z</time>
      </trkpt>
      <trkpt lat="47.612719" lon="7.958171">
        <ele>797.335603</ele>
        <time>2021-11-13T16:45:40.337Z</time>
      </trkpt>
      <trkpt lat="47.612661" lon="7.957964">
        <ele>797.218842</ele>
        <time>2021-11-13T16:45:42.064Z</time>
      </trkpt>
      <trkpt lat="47.612606" lon="7.957836">
        <ele>797.139780</ele>
        <time>2021-11-13T16:45:43.430Z</time>
      </trkpt>
      <trkpt lat="47.612517" lon="7.957628">
        <ele>797.011460</ele>
        <time>2021-11-13T16:45:45.357Z</time>
      </trkpt>
      <trkpt lat="47.612456" lon="7.957566">
        <ele>796.954327</ele>
        <time>2021-11-13T16:45:46.155Z</time>
      </trkpt>
      <trkpt lat="47.612391" lon="7.957530">
        <ele>796.900719</ele>
        <time>2021-11-13T16:45:47.162Z</time>
      </trkpt>
      <trkpt lat="47.612291" lon="7.957543">
        <ele>796.823159</ele>
        <time>2021-11-13T16:45:48.427Z</time>
      </trkpt>
      <trkpt lat="47.612270" lon="7.957550">
        <ele>796.806529</ele>
        <time>2021-11-13T16:45:48.669Z</time>
      </trkpt>
      <trkpt lat="47.612102" lon="7.957603">
        <ele>796.673824</ele>
        <time>2021-11-13T16:45:50.536Z</time>
      </trkpt>
      <trkpt lat="47.611972" lon="7.957626">
        <ele>796.572669</ele>
        <time>2021-11-13T16:45:52.251Z</time>
      </trkpt>
      <trkpt lat="47.611743" lon="7.957534">
        <ele>796.389361</ele>
        <time>2021-11-13T16:45:54.908Z</time>
      </trkpt>
      <trkpt lat="47.611644" lon="7.957425">
        <ele>796.294102</ele>
        <time>2021-11-13T16:45:56.531Z</time>
      </trkpt>
      <trkpt lat="47.611408" lon="7.957164">
        <ele>796.312691</ele>
        <time>2021-11-13T16:46:00.118Z</time>
      </trkpt>
      <trkpt lat="47.611301" lon="7.956962">
        <ele>796.344392</ele>
        <time>2021-11-13T16:46:02.613Z</time>
      </trkpt>
      <trkpt lat="47.611164" lon="7.956405">
        <ele>796.417558</ele>
        <time>2021-11-13T16:46:07.973Z</time>
      </trkpt>
      <trkpt lat="47.611155" lon="7.956085">
        <ele>796.457080</ele>
        <time>2021-11-13T16:46:11.427Z</time>
      </trkpt>
      <trkpt lat="47.611237" lon="7.955554">
        <ele>796.524303</ele>
        <time>2021-11-13T16:46:18.163Z</time>
      </trkpt>
      <trkpt lat="47.611344" lon="7.955262">
        <ele>796.565315</ele>
        <time>2021-11-13T16:46:21.992Z</time>
      </trkpt>
      <trkpt lat="47.611423" lon="7.955105">
        <ele>796.589491</ele>
        <time>2021-11-13T16:46:24.985Z</time>
      </trkpt>
      <trkpt lat="47.611466" lon="7.955017">
        <ele>796.687897</ele>
        <time>2021-11-13T16:46:26.323Z</time>
      </trkpt>
      <trkpt lat="47.611563" lon="7.954771">
        <ele>797.091928</ele>
        <time>2021-11-13T16:46:29.971Z</time>
      </trkpt>
      <trkpt lat="47.611609" lon="7.954585">
        <ele>797.372805</ele>
        <time>2021-11-13T16:46:32.929Z</time>
      </trkpt>
      <trkpt lat="47.611583" lon="7.954201">
        <ele>797.919942</ele>
        <time>2021-11-13T16:46:39.044Z</time>
      </trkpt>
      <trkpt lat="47.611379" lon="7.953732">
        <ele>798.711232</ele>
        <time>2021-11-13T16:46:48.117Z</time>
      </trkpt>
      <trkpt lat="47.611213" lon="7.953569">
        <ele>799.129877</ele>
        <time>2021-11-13T16:46:53.006Z</time>
      </trkpt>
      <trkpt lat="47.610867" lon="7.953623">
        <ele>799.861511</ele>
        <time>2021-11-13T16:47:02.362Z</time>
      </trkpt>
      <trkpt lat="47.610622" lon="7.953678">
        <ele>800.381768</ele>
        <time>2021-11-13T16:47:08.409Z</time>
      </trkpt>
      <trkpt lat="47.610534" lon="7.953698">
        <ele>800.539952</ele>
        <time>2021-11-13T16:47:10.219Z</time>
      </trkpt>
      <trkpt lat="47.610442" lon="7.953689">
        <ele>800.703773</ele>
        <time>2021-11-13T16:47:13.030Z</time>
      </trkpt>
      <trkpt lat="47.610173" lon="7.953576">
        <ele>801.200532</ele>
        <time>2021-11-13T16:47:18.963Z</time>
      </trkpt>
      <trkpt lat="47.609991" lon="7.953325">
        <ele>801.642091</ele>
        <time>2021-11-13T16:47:24.915Z</time>
      </trkpt>
      <trkpt lat="47.609848" lon="7.952864">
        <ele>802.249962</ele>
        <time>2021-11-13T16:47:32.787Z</time>
      </trkpt>
      <trkpt lat="47.609390" lon="7.951204">
        <ele>803.549950</ele>
        <time>2021-11-13T16:47:56.871Z</time>
      </trkpt>
      <trkpt lat="47.609119" lon="7.950532">
        <ele>803.523661</ele>
        <time>2021-11-13T16:48:05.321Z</time>
      </trkpt>
      <trkpt lat="47.608916" lon="7.950126">
        <ele>803.506691</ele>
        <time>2021-11-13T16:48:09.818Z</time>
      </trkpt>
      <trkpt lat="47.608814" lon="7.949946">
        <ele>803.498797</ele>
        <time>2021-11-13T16:48:11.929Z</time>
      </trkpt>
      <trkpt lat="47.608598" lon="7.949608">
        <ele>803.462853</ele>
        <time>2021-11-13T16:48:15.671Z</time>
      </trkpt>
      <trkpt lat="47.608258" lon="7.949098">
        <ele>802.060678</ele>
        <time>2021-11-13T16:48:20.969Z</time>
      </trkpt>
      <trkpt lat="47.607428" lon="7.947861">
        <ele>798.648804</ele>
        <time>2021-11-13T16:48:32.867Z</time>
      </trkpt>
      <trkpt lat="47.607177" lon="7.947456">
        <ele>797.398478</ele>
        <time>2021-11-13T16:48:36.464Z</time>
      </trkpt>
      <trkpt lat="47.607053" lon="7.947037">
        <ele>796.278698</ele>
        <time>2021-11-13T16:48:39.437Z</time>
      </trkpt>
      <trkpt lat="47.607026" lon="7.946800">
        <ele>795.690505</ele>
        <time>2021-11-13T16:48:41.005Z</time>
      </trkpt>
      <trkpt lat="47.607053" lon="7.946387">
        <ele>794.675097</ele>
        <time>2021-11-13T16:48:43.729Z</time>
      </trkpt>
      <trkpt lat="47.607219" lon="7.945696">
        <ele>792.879991</ele>
        <time>2021-11-13T16:48:48.606Z</time>
      </trkpt>
      <trkpt lat="47.607532" lon="7.944721">
        <ele>790.085802</ele>
        <time>2021-11-13T16:48:56.240Z</time>
      </trkpt>
      <trkpt lat="47.607673" lon="7.944452">
        <ele>789.167854</ele>
        <time>2021-11-13T16:48:58.774Z</time>
      </trkpt>
      <trkpt lat="47.607934" lon="7.944298">
        <ele>788.045437</ele>
        <time>2021-11-13T16:49:01.946Z</time>
      </trkpt>
      <trkpt lat="47.608484" lon="7.944152">
        <ele>785.812782</ele>
        <time>2021-11-13T16:49:07.287Z</time>
      </trkpt>
      <trkpt lat="47.609294" lon="7.943637">
        <ele>778.972573</ele>
        <time>2021-11-13T16:49:15.245Z</time>
      </trkpt>
      <trkpt lat="47.609350" lon="7.943593">
        <ele>778.347673</ele>
        <time>2021-11-13T16:49:15.781Z</time>
      </trkpt>
      <trkpt lat="47.609814" lon="7.943160">
        <ele>772.942029</ele>
        <time>2021-11-13T16:49:20.474Z</time>
      </trkpt>
      <trkpt lat="47.610014" lon="7.942918">
        <ele>770.396889</ele>
        <time>2021-11-13T16:49:22.641Z</time>
      </trkpt>
      <trkpt lat="47.610065" lon="7.942722">
        <ele>769.000209</ele>
        <time>2021-11-13T16:49:23.835Z</time>
      </trkpt>
      <trkpt lat="47.610075" lon="7.942547">
        <ele>767.832648</ele>
        <time>2021-11-13T16:49:24.817Z</time>
      </trkpt>
      <trkpt lat="47.609950" lon="7.942351">
        <ele>766.109518</ele>
        <time>2021-11-13T16:49:26.408Z</time>
      </trkpt>
      <trkpt lat="47.609824" lon="7.942206">
        <ele>764.679627</ele>
        <time>2021-11-13T16:49:27.729Z</time>
      </trkpt>
      <trkpt lat="47.609660" lon="7.942072">
        <ele>763.000821</ele>
        <time>2021-11-13T16:49:29.353Z</time>
      </trkpt>
      <trkpt lat="47.609328" lon="7.941802">
        <ele>759.605951</ele>
        <time>2021-11-13T16:49:32.612Z</time>
      </trkpt>
      <trkpt lat="47.609231" lon="7.941717">
        <ele>758.595786</ele>
        <time>2021-11-13T16:49:33.563Z</time>
      </trkpt>
      <trkpt lat="47.608985" lon="7.941282">
        <ele>755.163644</ele>
        <time>2021-11-13T16:49:36.949Z</time>
      </trkpt>
      <trkpt lat="47.608976" lon="7.941180">
        <ele>754.541802</ele>
        <time>2021-11-13T16:49:37.536Z</time>
      </trkpt>
      <trkpt lat="47.608986" lon="7.941047">
        <ele>753.732841</ele>
        <time>2021-11-13T16:49:38.951Z</time>
      </trkpt>
      <trkpt lat="47.609156" lon="7.940638">
        <ele>750.828359</ele>
        <time>2021-11-13T16:49:41.824Z</time>
      </trkpt>
      <trkpt lat="47.609697" lon="7.940207">
        <ele>747.999221</ele>
        <time>2021-11-13T16:49:47.822Z</time>
      </trkpt>
      <trkpt lat="47.610427" lon="7.939448">
        <ele>743.993056</ele>
        <time>2021-11-13T16:49:56.857Z</time>
      </trkpt>
      <trkpt lat="47.610663" lon="7.939057">
        <ele>742.324594</ele>
        <time>2021-11-13T16:50:00.168Z</time>
      </trkpt>
      <trkpt lat="47.611668" lon="7.937036">
        <ele>731.776120</ele>
        <time>2021-11-13T16:50:15.455Z</time>
      </trkpt>
      <trkpt lat="47.612157" lon="7.936591">
        <ele>728.979825</ele>
        <time>2021-11-13T16:50:20.790Z</time>
      </trkpt>
      <trkpt lat="47.612760" lon="7.936192">
        <ele>725.866891</ele>
        <time>2021-11-13T16:50:27.202Z</time>
      </trkpt>
      <trkpt lat="47.613611" lon="7.935811">
        <ele>721.272602</ele>
        <time>2021-11-13T16:50:35.864Z</time>
      </trkpt>
      <trkpt lat="47.613843" lon="7.935758">
        <ele>719.807001</ele>
        <time>2021-11-13T16:50:38.116Z</time>
      </trkpt>
      <trkpt lat="47.614095" lon="7.935725">
        <ele>718.227485</ele>
        <time>2021-11-13T16:50:40.467Z</time>
      </trkpt>
      <trkpt lat="47.615166" lon="7.935713">
        <ele>711.472787</ele>
        <time>2021-11-13T16:50:50.085Z</time>
      </trkpt>
      <trkpt lat="47.615451" lon="7.935602">
        <ele>708.800969</ele>
        <time>2021-11-13T16:50:52.648Z</time>
      </trkpt>
      <trkpt lat="47.615705" lon="7.935396">
        <ele>706.176098</ele>
        <time>2021-11-13T16:50:55.154Z</time>
      </trkpt>
      <trkpt lat="47.616262" lon="7.934487">
        <ele>698.667489</ele>
        <time>2021-11-13T16:51:02.334Z</time>
      </trkpt>
      <trkpt lat="47.616672" lon="7.934051">
        <ele>694.018224</ele>
        <time>2021-11-13T16:51:06.708Z</time>
      </trkpt>
      <trkpt lat="47.616878" lon="7.934048">
        <ele>692.041273</ele>
        <time>2021-11-13T16:51:08.489Z</time>
      </trkpt>
      <trkpt lat="47.617409" lon="7.934240">
        <ele>686.796415</ele>
        <time>2021-11-13T16:51:13.240Z</time>
      </trkpt>
      <trkpt lat="47.617581" lon="7.934210">
        <ele>685.134468</ele>
        <time>2021-11-13T16:51:14.740Z</time>
      </trkpt>
      <trkpt lat="47.618969" lon="7.933585">
        <ele>670.160861</ele>
        <time>2021-11-13T16:51:27.230Z</time>
      </trkpt>
      <trkpt lat="47.619096" lon="7.933469">
        <ele>668.511251</ele>
        <time>2021-11-13T16:51:28.497Z</time>
      </trkpt>
      <trkpt lat="47.619255" lon="7.933163">
        <ele>665.630668</ele>
        <time>2021-11-13T16:51:30.729Z</time>
      </trkpt>
      <trkpt lat="47.619818" lon="7.932353">
        <ele>657.002570</ele>
        <time>2021-11-13T16:51:37.352Z</time>
      </trkpt>
      <trkpt lat="47.620106" lon="7.931975">
        <ele>652.905020</ele>
        <time>2021-11-13T16:51:40.585Z</time>
      </trkpt>
      <trkpt lat="47.620440" lon="7.931519">
        <ele>648.068202</ele>
        <time>2021-11-13T16:51:44.443Z</time>
      </trkpt>
      <trkpt lat="47.620523" lon="7.931338">
        <ele>646.495819</ele>
        <time>2021-11-13T16:51:45.684Z</time>
      </trkpt>
      <trkpt lat="47.620633" lon="7.930854">
        <ele>642.827152</ele>
        <time>2021-11-13T16:51:48.654Z</time>
      </trkpt>
      <trkpt lat="47.620770" lon="7.930392">
        <ele>639.201870</ele>
        <time>2021-11-13T16:51:51.623Z</time>
      </trkpt>
      <trkpt lat="47.621014" lon="7.929789">
        <ele>636.487519</ele>
        <time>2021-11-13T16:51:55.900Z</time>
      </trkpt>
      <trkpt lat="47.621153" lon="7.929574">
        <ele>635.366543</ele>
        <time>2021-11-13T16:51:57.747Z</time>
      </trkpt>
      <trkpt lat="47.621561" lon="7.929312">
        <ele>632.884698</ele>
        <time>2021-11-13T16:52:02.008Z</time>
      </trkpt>
      <trkpt lat="47.622199" lon="7.929159">
        <ele>629.276856</ele>
        <time>2021-11-13T16:52:08.282Z</time>
      </trkpt>
      <trkpt lat="47.622516" lon="7.929178">
        <ele>627.005473</ele>
        <time>2021-11-13T16:52:11.303Z</time>
      </trkpt>
      <trkpt lat="47.622878" lon="7.929322">
        <ele>624.221207</ele>
        <time>2021-11-13T16:52:14.798Z</time>
      </trkpt>
      <trkpt lat="47.622967" lon="7.929237">
        <ele>623.434888</ele>
        <time>2021-11-13T16:52:15.796Z</time>
      </trkpt>
      <trkpt lat="47.622989" lon="7.929175">
        <ele>623.084050</ele>
        <time>2021-11-13T16:52:16.284Z</time>
      </trkpt>
      <trkpt lat="47.622990" lon="7.929067">
        <ele>622.543225</ele>
        <time>2021-11-13T16:52:16.890Z</time>
      </trkpt>
      <trkpt lat="47.622913" lon="7.928884">
        <ele>621.463019</ele>
        <time>2021-11-13T16:52:18.233Z</time>
      </trkpt>
      <trkpt lat="47.621861" lon="7.928723">
        <ele>612.718174</ele>
        <time>2021-11-13T16:52:27.369Z</time>
      </trkpt>
      <trkpt lat="47.620569" lon="7.928919">
        <ele>598.890001</ele>
        <time>2021-11-13T16:52:38.416Z</time>
      </trkpt>
      <trkpt lat="47.619928" lon="7.929124">
        <ele>592.898015</ele>
        <time>2021-11-13T16:52:44.082Z</time>
      </trkpt>
      <trkpt lat="47.619604" lon="7.929315">
        <ele>589.985117</ele>
        <time>2021-11-13T16:52:47.120Z</time>
      </trkpt>
      <trkpt lat="47.619329" lon="7.929527">
        <ele>587.395808</ele>
        <time>2021-11-13T16:52:49.848Z</time>
      </trkpt>
      <trkpt lat="47.618921" lon="7.930073">
        <ele>582.805017</ele>
        <time>2021-11-13T16:52:54.742Z</time>
      </trkpt>
      <trkpt lat="47.618761" lon="7.930033">
        <ele>581.452602</ele>
        <time>2021-11-13T16:52:56.247Z</time>
      </trkpt>
      <trkpt lat="47.618733" lon="7.929945">
        <ele>580.967033</ele>
        <time>2021-11-13T16:52:56.837Z</time>
      </trkpt>
      <trkpt lat="47.618734" lon="7.929873">
        <ele>580.607688</ele>
        <time>2021-11-13T16:52:57.248Z</time>
      </trkpt>
      <trkpt lat="47.618861" lon="7.929607">
        <ele>578.981164</ele>
        <time>2021-11-13T16:52:59.318Z</time>
      </trkpt>
      <trkpt lat="47.619053" lon="7.929381">
        <ele>577.166823</ele>
        <time>2021-11-13T16:53:01.547Z</time>
      </trkpt>
      <trkpt lat="47.620384" lon="7.928242">
        <ele>564.567384</ele>
        <time>2021-11-13T16:53:15.221Z</time>
      </trkpt>
      <trkpt lat="47.620796" lon="7.927816">
        <ele>558.929123</ele>
        <time>2021-11-13T16:53:19.493Z</time>
      </trkpt>
      <trkpt lat="47.620873" lon="7.927631">
        <ele>557.283702</ele>
        <time>2021-11-13T16:53:20.733Z</time>
      </trkpt>
      <trkpt lat="47.620930" lon="7.927423">
        <ele>555.584516</ele>
        <time>2021-11-13T16:53:21.995Z</time>
      </trkpt>
      <trkpt lat="47.620993" lon="7.927078">
        <ele>552.879570</ele>
        <time>2021-11-13T16:53:24.031Z</time>
      </trkpt>
      <trkpt lat="47.621010" lon="7.926916">
        <ele>551.638849</ele>
        <time>2021-11-13T16:53:24.960Z</time>
      </trkpt>
      <trkpt lat="47.621008" lon="7.926716">
        <ele>550.125160</ele>
        <time>2021-11-13T16:53:26.097Z</time>
      </trkpt>
      <trkpt lat="47.621092" lon="7.926230">
        <ele>546.212997</ele>
        <time>2021-11-13T16:53:28.940Z</time>
      </trkpt>
      <trkpt lat="47.621290" lon="7.925709">
        <ele>541.368625</ele>
        <time>2021-11-13T16:53:32.325Z</time>
      </trkpt>
      <trkpt lat="47.621339" lon="7.925596">
        <ele>540.280341</ele>
        <time>2021-11-13T16:53:33.076Z</time>
      </trkpt>
      <trkpt lat="47.621723" lon="7.924936">
        <ele>533.218618</ele>
        <time>2021-11-13T16:53:38.017Z</time>
      </trkpt>
      <trkpt lat="47.623053" lon="7.924259">
        <ele>517.485059</ele>
        <time>2021-11-13T16:53:50.120Z</time>
      </trkpt>
      <trkpt lat="47.623206" lon="7.923969">
        <ele>514.848003</ele>
        <time>2021-11-13T16:53:52.285Z</time>
      </trkpt>
      <trkpt lat="47.623246" lon="7.923768">
        <ele>513.347324</ele>
        <time>2021-11-13T16:53:53.481Z</time>
      </trkpt>
      <trkpt lat="47.623227" lon="7.922954">
        <ele>507.515212</ele>
        <time>2021-11-13T16:53:58.151Z</time>
      </trkpt>
      <trkpt lat="47.623251" lon="7.922713">
        <ele>505.655792</ele>
        <time>2021-11-13T16:53:59.528Z</time>
      </trkpt>
      <trkpt lat="47.623298" lon="7.922501">
        <ele>503.933264</ele>
        <time>2021-11-13T16:54:00.811Z</time>
      </trkpt>
      <trkpt lat="47.623564" lon="7.921962">
        <ele>498.777142</ele>
        <time>2021-11-13T16:54:04.619Z</time>
      </trkpt>
      <trkpt lat="47.623626" lon="7.921633">
        <ele>496.140442</ele>
        <time>2021-11-13T16:54:06.578Z</time>
      </trkpt>
      <trkpt lat="47.623611" lon="7.921528">
        <ele>495.312020</ele>
        <time>2021-11-13T16:54:07.181Z</time>
      </trkpt>
      <trkpt lat="47.623588" lon="7.921368">
        <ele>494.049322</ele>
        <time>2021-11-13T16:54:08.115Z</time>
      </trkpt>
      <trkpt lat="47.623561" lon="7.920975">
        <ele>491.000324</ele>
        <time>2021-11-13T16:54:10.370Z</time>
      </trkpt>
      <trkpt lat="47.623430" lon="7.919875">
        <ele>482.920303</ele>
        <time>2021-11-13T16:54:16.837Z</time>
      </trkpt>
      <trkpt lat="47.623255" lon="7.919315">
        <ele>478.760185</ele>
        <time>2021-11-13T16:54:20.411Z</time>
      </trkpt>
      <trkpt lat="47.623010" lon="7.918947">
        <ele>475.274054</ele>
        <time>2021-11-13T16:54:23.393Z</time>
      </trkpt>
      <trkpt lat="47.622446" lon="7.918652">
        <ele>469.294191</ele>
        <time>2021-11-13T16:54:28.615Z</time>
      </trkpt>
      <trkpt lat="47.622366" lon="7.918470">
        <ele>467.837778</ele>
        <time>2021-11-13T16:54:29.869Z</time>
      </trkpt>
      <trkpt lat="47.622381" lon="7.918164">
        <ele>465.789822</ele>
        <time>2021-11-13T16:54:31.679Z</time>
      </trkpt>
      <trkpt lat="47.622424" lon="7.918069">
        <ele>465.025974</ele>
        <time>2021-11-13T16:54:32.336Z</time>
      </trkpt>
      <trkpt lat="47.622587" lon="7.917873">
        <ele>462.948119</ele>
        <time>2021-11-13T16:54:34.150Z</time>
      </trkpt>
      <trkpt lat="47.622656" lon="7.917625">
        <ele>461.157226</ele>
        <time>2021-11-13T16:54:35.712Z</time>
      </trkpt>
      <trkpt lat="47.622677" lon="7.917170">
        <ele>458.112989</ele>
        <time>2021-11-13T16:54:38.368Z</time>
      </trkpt>
      <trkpt lat="47.622647" lon="7.916647">
        <ele>454.609344</ele>
        <time>2021-11-13T16:54:41.404Z</time>
      </trkpt>
      <trkpt lat="47.622576" lon="7.916379">
        <ele>452.687216</ele>
        <time>2021-11-13T16:54:43.060Z</time>
      </trkpt>
      <trkpt lat="47.622393" lon="7.916077">
        <ele>449.979498</ele>
        <time>2021-11-13T16:54:45.395Z</time>
      </trkpt>
      <trkpt lat="47.621809" lon="7.915582">
        <ele>443.341727</ele>
        <time>2021-11-13T16:54:51.208Z</time>
      </trkpt>
      <trkpt lat="47.621530" lon="7.915222">
        <ele>439.692593</ele>
        <time>2021-11-13T16:54:54.414Z</time>
      </trkpt>
      <trkpt lat="47.621037" lon="7.914355">
        <ele>432.140338</ele>
        <time>2021-11-13T16:55:01.044Z</time>
      </trkpt>
      <trkpt lat="47.620869" lon="7.913635">
        <ele>427.035965</ele>
        <time>2021-11-13T16:55:05.407Z</time>
      </trkpt>
      <trkpt lat="47.620841" lon="7.913331">
        <ele>424.980433</ele>
        <time>2021-11-13T16:55:07.186Z</time>
      </trkpt>
      <trkpt lat="47.620822" lon="7.912670">
        <ele>420.548130</ele>
        <time>2021-11-13T16:55:11.014Z</time>
      </trkpt>
      <trkpt lat="47.620858" lon="7.912289">
        <ele>417.970715</ele>
        <time>2021-11-13T16:55:13.274Z</time>
      </trkpt>
      <trkpt lat="47.620910" lon="7.911951">
        <ele>415.648098</ele>
        <time>2021-11-13T16:55:15.289Z</time>
      </trkpt>
      <trkpt lat="47.620953" lon="7.911653">
        <ele>414.018911</ele>
        <time>2021-11-13T16:55:17.079Z</time>
      </trkpt>
      <trkpt lat="47.620946" lon="7.911321">
        <ele>412.361080</ele>
        <time>2021-11-13T16:55:19.050Z</time>
      </trkpt>
      <trkpt lat="47.620846" lon="7.911023">
        <ele>410.699621</ele>
        <time>2021-11-13T16:55:21.021Z</time>
      </trkpt>
      <trkpt lat="47.620625" lon="7.910808">
        <ele>408.742724</ele>
        <time>2021-11-13T16:55:23.351Z</time>
      </trkpt>
      <trkpt lat="47.620181" lon="7.910694">
        <ele>405.406152</ele>
        <time>2021-11-13T16:55:27.357Z</time>
      </trkpt>
      <trkpt lat="47.620162" lon="7.910587">
        <ele>404.853883</ele>
        <time>2021-11-13T16:55:28.025Z</time>
      </trkpt>
      <trkpt lat="47.620245" lon="7.910440">
        <ele>403.896790</ele>
        <time>2021-11-13T16:55:29.197Z</time>
      </trkpt>
      <trkpt lat="47.620712" lon="7.910483">
        <ele>400.908605</ele>
        <time>2021-11-13T16:55:33.651Z</time>
      </trkpt>
      <trkpt lat="47.621308" lon="7.910162">
        <ele>397.731948</ele>
        <time>2021-11-13T16:55:39.706Z</time>
      </trkpt>
      <trkpt lat="47.621461" lon="7.910146">
        <ele>396.963510</ele>
        <time>2021-11-13T16:55:41.117Z</time>
      </trkpt>
      <trkpt lat="47.622368" lon="7.910396">
        <ele>392.362723</ele>
        <time>2021-11-13T16:55:49.816Z</time>
      </trkpt>
      <trkpt lat="47.622666" lon="7.910254">
        <ele>390.854431</ele>
        <time>2021-11-13T16:55:52.830Z</time>
      </trkpt>
      <trkpt lat="47.622755" lon="7.910176">
        <ele>390.356309</ele>
        <time>2021-11-13T16:55:53.782Z</time>
      </trkpt>
      <trkpt lat="47.622850" lon="7.910055">
        <ele>389.752955</ele>
        <time>2021-11-13T16:55:54.995Z</time>
      </trkpt>
      <trkpt lat="47.623414" lon="7.909173">
        <ele>385.804093</ele>
        <time>2021-11-13T16:56:02.839Z</time>
      </trkpt>
      <trkpt lat="47.623851" lon="7.909030">
        <ele>383.393899</ele>
        <time>2021-11-13T16:56:07.011Z</time>
      </trkpt>
      <trkpt lat="47.624367" lon="7.909092">
        <ele>379.806111</ele>
        <time>2021-11-13T16:56:11.929Z</time>
      </trkpt>
      <trkpt lat="47.624823" lon="7.909229">
        <ele>376.581715</ele>
        <time>2021-11-13T16:56:16.142Z</time>
      </trkpt>
      <trkpt lat="47.624962" lon="7.909272">
        <ele>375.597675</ele>
        <time>2021-11-13T16:56:17.372Z</time>
      </trkpt>
      <trkpt lat="47.625366" lon="7.909623">
        <ele>372.353102</ele>
        <time>2021-11-13T16:56:21.491Z</time>
      </trkpt>
      <trkpt lat="47.625586" lon="7.909712">
        <ele>370.442096</ele>
        <time>2021-11-13T16:56:23.478Z</time>
      </trkpt>
      <trkpt lat="47.625630" lon="7.909700">
        <ele>370.028346</ele>
        <time>2021-11-13T16:56:23.850Z</time>
      </trkpt>
      <trkpt lat="47.625660" lon="7.909693">
        <ele>369.747481</ele>
        <time>2021-11-13T16:56:24.106Z</time>
      </trkpt>
      <trkpt lat="47.625738" lon="7.909657">
        <ele>368.992005</ele>
        <time>2021-11-13T16:56:24.853Z</time>
      </trkpt>
      <trkpt lat="47.625820" lon="7.909530">
        <ele>367.895744</ele>
        <time>2021-11-13T16:56:25.889Z</time>
      </trkpt>
      <trkpt lat="47.625875" lon="7.909372">
        <ele>366.787295</ele>
        <time>2021-11-13T16:56:26.895Z</time>
      </trkpt>
      <trkpt lat="47.626074" lon="7.908682">
        <ele>362.109165</ele>
        <time>2021-11-13T16:56:31.264Z</time>
      </trkpt>
      <trkpt lat="47.626373" lon="7.908242">
        <ele>358.214474</ele>
        <time>2021-11-13T16:56:34.896Z</time>
      </trkpt>
      <trkpt lat="47.626436" lon="7.907974">
        <ele>356.445299</ele>
        <time>2021-11-13T16:56:36.523Z</time>
      </trkpt>
      <trkpt lat="47.626446" lon="7.907798">
        <ele>355.344379</ele>
        <time>2021-11-13T16:56:37.604Z</time>
      </trkpt>
      <trkpt lat="47.626442" lon="7.907543">
        <ele>354.599207</ele>
        <time>2021-11-13T16:56:39.093Z</time>
      </trkpt>
      <trkpt lat="47.626436" lon="7.907187">
        <ele>353.745996</ele>
        <time>2021-11-13T16:56:41.324Z</time>
      </trkpt>
      <trkpt lat="47.626436" lon="7.907061">
        <ele>353.444111</ele>
        <time>2021-11-13T16:56:42.147Z</time>
      </trkpt>
      <trkpt lat="47.626436" lon="7.906623">
        <ele>352.394701</ele>
        <time>2021-11-13T16:56:45.013Z</time>
      </trkpt>
      <trkpt lat="47.626439" lon="7.906299">
        <ele>351.618352</ele>
        <time>2021-11-13T16:56:47.167Z</time>
      </trkpt>
      <trkpt lat="47.626443" lon="7.905945">
        <ele>350.770080</ele>
        <time>2021-11-13T16:56:49.719Z</time>
      </trkpt>
      <trkpt lat="47.626460" lon="7.905124">
        <ele>348.802108</ele>
        <time>2021-11-13T16:56:56.625Z</time>
      </trkpt>
      <trkpt lat="47.626440" lon="7.905007">
        <ele>348.789699</ele>
        <time>2021-11-13T16:56:58.422Z</time>
      </trkpt>
      <trkpt lat="47.626399" lon="7.904961">
        <ele>348.837286</ele>
        <time>2021-11-13T16:56:59.222Z</time>
      </trkpt>
      <trkpt lat="47.626221" lon="7.904920">
        <ele>349.004049</ele>
        <time>2021-11-13T16:57:02.254Z</time>
      </trkpt>
      <trkpt lat="47.626086" lon="7.904879">
        <ele>349.131621</ele>
        <time>2021-11-13T16:57:05.441Z</time>
      </trkpt>
      <trkpt lat="47.625742" lon="7.904774">
        <ele>349.456759</ele>
        <time>2021-11-13T16:57:13.065Z</time>
      </trkpt>
      <trkpt lat="47.625516" lon="7.904701">
        <ele>349.670886</ele>
        <time>2021-11-13T16:57:17.698Z</time>
      </trkpt>
      <trkpt lat="47.625088" lon="7.904563">
        <ele>350.076368</ele>
        <time>2021-11-13T16:57:27.021Z</time>
      </trkpt>
      <trkpt lat="47.624956" lon="7.904522">
        <ele>350.201220</ele>
        <time>2021-11-13T16:57:29.776Z</time>
      </trkpt>
      <trkpt lat="47.624761" lon="7.904481">
        <ele>350.383551</ele>
        <time>2021-11-13T16:57:32.947Z</time>
      </trkpt>
      <trkpt lat="47.624565" lon="7.904455">
        <ele>350.330319</ele>
        <time>2021-11-13T16:57:36.007Z</time>
      </trkpt>
      <trkpt lat="47.624472" lon="7.904367">
        <ele>350.289401</ele>
        <time>2021-11-13T16:57:37.693Z</time>
      </trkpt>
      <trkpt lat="47.624451" lon="7.904332">
        <ele>350.277686</ele>
        <time>2021-11-13T16:57:38.214Z</time>
      </trkpt>
      <trkpt lat="47.624399" lon="7.904386">
        <ele>350.254141</ele>
        <time>2021-11-13T16:57:39.132Z</time>
      </trkpt>
      <trkpt lat="47.624263" lon="7.904484">
        <ele>350.198056</ele>
        <time>2021-11-13T16:57:41.354Z</time>
      </trkpt>
      <trkpt lat="47.624120" lon="7.904530">
        <ele>350.143777</ele>
        <time>2021-11-13T16:57:43.526Z</time>
      </trkpt>
      <trkpt lat="47.623650" lon="7.904642">
        <ele>349.967194</ele>
        <time>2021-11-13T16:57:49.804Z</time>
      </trkpt>
      <trkpt lat="47.622648" lon="7.904863">
        <ele>349.126018</ele>
        <time>2021-11-13T16:58:02.214Z</time>
      </trkpt>
      <trkpt lat="47.622424" lon="7.904919">
        <ele>348.759690</ele>
        <time>2021-11-13T16:58:04.821Z</time>
      </trkpt>
      <trkpt lat="47.622235" lon="7.904957">
        <ele>348.452111</ele>
        <time>2021-11-13T16:58:06.983Z</time>
      </trkpt>
      <trkpt lat="47.621248" lon="7.905159">
        <ele>346.845341</ele>
        <time>2021-11-13T16:58:18.051Z</time>
      </trkpt>
      <trkpt lat="47.621107" lon="7.905191">
        <ele>346.482701</ele>
        <time>2021-11-13T16:58:19.638Z</time>
      </trkpt>
      <trkpt lat="47.620699" lon="7.905223">
        <ele>345.416543</ele>
        <time>2021-11-13T16:58:24.059Z</time>
      </trkpt>
      <trkpt lat="47.620699" lon="7.905223">
        <ele>345.416543</ele>
        <time>2021-11-13T16:58:24.064Z</time>
      </trkpt>
      <trkpt lat="47.620426" lon="7.905244">
        <ele>344.703196</ele>
        <time>2021-11-13T16:58:27.088Z</time>
      </trkpt>
      <trkpt lat="47.620346" lon="7.905249">
        <ele>344.494251</ele>
        <time>2021-11-13T16:58:27.927Z</time>
      </trkpt>
      <trkpt lat="47.619447" lon="7.905300">
        <ele>342.146606</ele>
        <time>2021-11-13T16:58:37.203Z</time>
      </trkpt>
      <trkpt lat="47.619299" lon="7.905308">
        <ele>341.650964</ele>
        <time>2021-11-13T16:58:38.609Z</time>
      </trkpt>
      <trkpt lat="47.619155" lon="7.905319">
        <ele>341.165488</ele>
        <time>2021-11-13T16:58:40.160Z</time>
      </trkpt>
      <trkpt lat="47.618976" lon="7.905535">
        <ele>340.388622</ele>
        <time>2021-11-13T16:58:42.418Z</time>
      </trkpt>
      <trkpt lat="47.618920" lon="7.906208">
        <ele>338.849664</ele>
        <time>2021-11-13T16:58:47.121Z</time>
      </trkpt>
      <trkpt lat="47.618888" lon="7.906392">
        <ele>338.418403</ele>
        <time>2021-11-13T16:58:48.383Z</time>
      </trkpt>
      <trkpt lat="47.618867" lon="7.906514">
        <ele>338.132640</ele>
        <time>2021-11-13T16:58:49.168Z</time>
      </trkpt>
      <trkpt lat="47.618719" lon="7.906838">
        <ele>337.244386</ele>
        <time>2021-11-13T16:58:51.884Z</time>
      </trkpt>
      <trkpt lat="47.618579" lon="7.906988">
        <ele>336.662944</ele>
        <time>2021-11-13T16:58:53.542Z</time>
      </trkpt>
      <trkpt lat="47.618470" lon="7.907083">
        <ele>336.237306</ele>
        <time>2021-11-13T16:58:54.842Z</time>
      </trkpt>
      <trkpt lat="47.617957" lon="7.907285">
        <ele>334.871244</ele>
        <time>2021-11-13T16:59:00.150Z</time>
      </trkpt>
      <trkpt lat="47.617238" lon="7.908130">
        <ele>332.580383</ele>
        <time>2021-11-13T16:59:09.970Z</time>
      </trkpt>
      <trkpt lat="47.617086" lon="7.908230">
        <ele>332.165115</ele>
        <time>2021-11-13T16:59:11.859Z</time>
      </trkpt>
      <trkpt lat="47.616832" lon="7.908284">
        <ele>331.573714</ele>
        <time>2021-11-13T16:59:14.737Z</time>
      </trkpt>
      <trkpt lat="47.616604" lon="7.908203">
        <ele>331.439485</ele>
        <time>2021-11-13T16:59:17.363Z</time>
      </trkpt>
      <trkpt lat="47.616124" lon="7.907729">
        <ele>331.109348</ele>
        <time>2021-11-13T16:59:24.183Z</time>
      </trkpt>
      <trkpt lat="47.616009" lon="7.907686">
        <ele>331.041447</ele>
        <time>2021-11-13T16:59:25.747Z</time>
      </trkpt>
      <trkpt lat="47.615946" lon="7.907692">
        <ele>331.005303</ele>
        <time>2021-11-13T16:59:26.514Z</time>
      </trkpt>
      <trkpt lat="47.615821" lon="7.907747">
        <ele>330.930654</ele>
        <time>2021-11-13T16:59:28.592Z</time>
      </trkpt>
      <trkpt lat="47.615669" lon="7.907870">
        <ele>330.831523</ele>
        <time>2021-11-13T16:59:31.272Z</time>
      </trkpt>
      <trkpt lat="47.615460" lon="7.908111">
        <ele>330.679964</ele>
        <time>2021-11-13T16:59:35.643Z</time>
      </trkpt>
      <trkpt lat="47.615374" lon="7.908222">
        <ele>330.614698</ele>
        <time>2021-11-13T16:59:37.561Z</time>
      </trkpt>
      <trkpt lat="47.615246" lon="7.908385">
        <ele>330.623375</ele>
        <time>2021-11-13T16:59:40.585Z</time>
      </trkpt>
      <trkpt lat="47.615085" lon="7.908567">
        <ele>330.808587</ele>
        <time>2021-11-13T16:59:43.996Z</time>
      </trkpt>
      <trkpt lat="47.614876" lon="7.908760">
        <ele>331.033846</ele>
        <time>2021-11-13T16:59:48.314Z</time>
      </trkpt>
      <trkpt lat="47.614784" lon="7.908839">
        <ele>331.131112</ele>
        <time>2021-11-13T16:59:50.119Z</time>
      </trkpt>
      <trkpt lat="47.614412" lon="7.909095">
        <ele>331.506333</ele>
        <time>2021-11-13T16:59:57.389Z</time>
      </trkpt>
      <trkpt lat="47.614063" lon="7.909285">
        <ele>331.846492</ele>
        <time>2021-11-13T17:00:04.469Z</time>
      </trkpt>
      <trkpt lat="47.613934" lon="7.909339">
        <ele>331.969136</ele>
        <time>2021-11-13T17:00:07.046Z</time>
      </trkpt>
      <trkpt lat="47.613360" lon="7.909602">
        <ele>332.586613</ele>
        <time>2021-11-13T17:00:19.851Z</time>
      </trkpt>
      <trkpt lat="47.613280" lon="7.909624">
        <ele>332.677108</ele>
        <time>2021-11-13T17:00:21.539Z</time>
      </trkpt>
      <trkpt lat="47.612897" lon="7.909812">
        <ele>333.125813</ele>
        <time>2021-11-13T17:00:30.095Z</time>
      </trkpt>
      <trkpt lat="47.612559" lon="7.909972">
        <ele>333.520429</ele>
        <time>2021-11-13T17:00:36.828Z</time>
      </trkpt>
      <trkpt lat="47.612216" lon="7.910134">
        <ele>333.920799</ele>
        <time>2021-11-13T17:00:43.106Z</time>
      </trkpt>
      <trkpt lat="47.612131" lon="7.910214">
        <ele>334.032764</ele>
        <time>2021-11-13T17:00:44.998Z</time>
      </trkpt>
      <trkpt lat="47.612082" lon="7.910269">
        <ele>334.101108</ele>
        <time>2021-11-13T17:00:46.077Z</time>
      </trkpt>
      <trkpt lat="47.612020" lon="7.910364">
        <ele>334.200251</ele>
        <time>2021-11-13T17:00:47.636Z</time>
      </trkpt>
      <trkpt lat="47.611986" lon="7.910466">
        <ele>334.205866</ele>
        <time>2021-11-13T17:00:48.906Z</time>
      </trkpt>
      <trkpt lat="47.611981" lon="7.910534">
        <ele>334.206478</ele>
        <time>2021-11-13T17:00:49.533Z</time>
      </trkpt>
      <trkpt lat="47.611988" lon="7.910610">
        <ele>334.207165</ele>
        <time>2021-11-13T17:00:50.491Z</time>
      </trkpt>
      <trkpt lat="47.611994" lon="7.910676">
        <ele>334.207760</ele>
        <time>2021-11-13T17:00:51.419Z</time>
      </trkpt>
      <trkpt lat="47.612005" lon="7.910790">
        <ele>334.208791</ele>
        <time>2021-11-13T17:00:52.683Z</time>
      </trkpt>
      <trkpt lat="47.612029" lon="7.910940">
        <ele>334.210170</ele>
        <time>2021-11-13T17:00:54.571Z</time>
      </trkpt>
      <trkpt lat="47.611260" lon="7.911383">
        <ele>334.221120</ele>
        <time>2021-11-13T17:01:07.718Z</time>
      </trkpt>
      <trkpt lat="47.610416" lon="7.911983">
        <ele>333.767234</ele>
        <time>2021-11-13T17:01:19.631Z</time>
      </trkpt>
      <trkpt lat="47.610054" lon="7.912196">
        <ele>333.266629</ele>
        <time>2021-11-13T17:01:24.104Z</time>
      </trkpt>
      <trkpt lat="47.609914" lon="7.912278">
        <ele>333.073145</ele>
        <time>2021-11-13T17:01:25.832Z</time>
      </trkpt>
      <trkpt lat="47.608679" lon="7.912703">
        <ele>331.400141</ele>
        <time>2021-11-13T17:01:40.559Z</time>
      </trkpt>
      <trkpt lat="47.607663" lon="7.913198">
        <ele>329.899665</ele>
        <time>2021-11-13T17:01:52.884Z</time>
      </trkpt>
      <trkpt lat="47.607292" lon="7.913435">
        <ele>329.344728</ele>
        <time>2021-11-13T17:01:57.582Z</time>
      </trkpt>
      <trkpt lat="47.606938" lon="7.913697">
        <ele>328.898842</ele>
        <time>2021-11-13T17:02:02.356Z</time>
      </trkpt>
      <trkpt lat="47.606706" lon="7.913869">
        <ele>328.606523</ele>
        <time>2021-11-13T17:02:05.544Z</time>
      </trkpt>
      <trkpt lat="47.606558" lon="7.913988">
        <ele>328.416787</ele>
        <time>2021-11-13T17:02:07.635Z</time>
      </trkpt>
      <trkpt lat="47.606450" lon="7.914067">
        <ele>328.281068</ele>
        <time>2021-11-13T17:02:09.135Z</time>
      </trkpt>
      <trkpt lat="47.606200" lon="7.914255">
        <ele>327.965161</ele>
        <time>2021-11-13T17:02:12.549Z</time>
      </trkpt>
      <trkpt lat="47.605929" lon="7.914457">
        <ele>327.623331</ele>
        <time>2021-11-13T17:02:16.232Z</time>
      </trkpt>
      <trkpt lat="47.605648" lon="7.914613">
        <ele>327.182993</ele>
        <time>2021-11-13T17:02:19.795Z</time>
      </trkpt>
      <trkpt lat="47.605408" lon="7.914750">
        <ele>326.526342</ele>
        <time>2021-11-13T17:02:22.747Z</time>
      </trkpt>
      <trkpt lat="47.605105" lon="7.914869">
        <ele>325.725980</ele>
        <time>2021-11-13T17:02:26.317Z</time>
      </trkpt>
      <trkpt lat="47.604722" lon="7.914915">
        <ele>324.744805</ele>
        <time>2021-11-13T17:02:30.489Z</time>
      </trkpt>
      <trkpt lat="47.604393" lon="7.914885">
        <ele>323.903133</ele>
        <time>2021-11-13T17:02:33.907Z</time>
      </trkpt>
      <trkpt lat="47.604062" lon="7.914772">
        <ele>323.035838</ele>
        <time>2021-11-13T17:02:37.296Z</time>
      </trkpt>
      <trkpt lat="47.603884" lon="7.914671">
        <ele>322.371645</ele>
        <time>2021-11-13T17:02:39.084Z</time>
      </trkpt>
      <trkpt lat="47.603615" lon="7.914449">
        <ele>320.962419</ele>
        <time>2021-11-13T17:02:42.032Z</time>
      </trkpt>
      <trkpt lat="47.603373" lon="7.914188">
        <ele>319.592656</ele>
        <time>2021-11-13T17:02:44.876Z</time>
      </trkpt>
      <trkpt lat="47.603038" lon="7.913754">
        <ele>317.556416</ele>
        <time>2021-11-13T17:02:49.067Z</time>
      </trkpt>
      <trkpt lat="47.602861" lon="7.913538">
        <ele>316.507116</ele>
        <time>2021-11-13T17:02:51.272Z</time>
      </trkpt>
      <trkpt lat="47.602742" lon="7.913448">
        <ele>315.895620</ele>
        <time>2021-11-13T17:02:52.508Z</time>
      </trkpt>
      <trkpt lat="47.602118" lon="7.913280">
        <ele>313.393302</ele>
        <time>2021-11-13T17:02:58.563Z</time>
      </trkpt>
      <trkpt lat="47.600086" lon="7.913316">
        <ele>307.093205</ele>
        <time>2021-11-13T17:03:19.376Z</time>
      </trkpt>
      <trkpt lat="47.599361" lon="7.913211">
        <ele>305.377160</ele>
        <time>2021-11-13T17:03:27.225Z</time>
      </trkpt>
      <trkpt lat="47.598263" lon="7.912768">
        <ele>303.199323</ele>
        <time>2021-11-13T17:03:39.861Z</time>
      </trkpt>
      <trkpt lat="47.597324" lon="7.912182">
        <ele>301.600797</ele>
        <time>2021-11-13T17:03:51.669Z</time>
      </trkpt>
      <trkpt lat="47.596928" lon="7.912047">
        <ele>301.117116</ele>
        <time>2021-11-13T17:03:56.495Z</time>
      </trkpt>
      <trkpt lat="47.596657" lon="7.912027">
        <ele>300.848577</ele>
        <time>2021-11-13T17:03:59.765Z</time>
      </trkpt>
      <trkpt lat="47.596383" lon="7.912050">
        <ele>300.576967</ele>
        <time>2021-11-13T17:04:03.094Z</time>
      </trkpt>
      <trkpt lat="47.595919" lon="7.912182">
        <ele>300.109375</ele>
        <time>2021-11-13T17:04:08.913Z</time>
      </trkpt>
      <trkpt lat="47.595049" lon="7.912419">
        <ele>299.566848</ele>
        <time>2021-11-13T17:04:20.200Z</time>
      </trkpt>
      <trkpt lat="47.594246" lon="7.912426">
        <ele>299.495130</ele>
        <time>2021-11-13T17:04:31.323Z</time>
      </trkpt>
      <trkpt lat="47.593192" lon="7.912179">
        <ele>299.734250</ele>
        <time>2021-11-13T17:04:49.209Z</time>
      </trkpt>
      <trkpt lat="47.592198" lon="7.912030">
        <ele>300.402299</ele>
        <time>2021-11-13T17:05:08.127Z</time>
      </trkpt>
      <trkpt lat="47.591524" lon="7.911777">
        <ele>300.245109</ele>
        <time>2021-11-13T17:05:19.424Z</time>
      </trkpt>
      <trkpt lat="47.591361" lon="7.911643">
        <ele>300.025571</ele>
        <time>2021-11-13T17:05:22.786Z</time>
      </trkpt>
      <trkpt lat="47.591227" lon="7.911486">
        <ele>299.824399</ele>
        <time>2021-11-13T17:05:24.796Z</time>
      </trkpt>
      <trkpt lat="47.590486" lon="7.910371">
        <ele>298.580829</ele>
        <time>2021-11-13T17:05:36.521Z</time>
      </trkpt>
      <trkpt lat="47.590199" lon="7.910097">
        <ele>297.889862</ele>
        <time>2021-11-13T17:05:40.103Z</time>
      </trkpt>
      <trkpt lat="47.589984" lon="7.909953">
        <ele>297.378945</ele>
        <time>2021-11-13T17:05:42.593Z</time>
      </trkpt>
      <trkpt lat="47.589984" lon="7.909953">
        <ele>297.378945</ele>
        <time>2021-11-13T17:05:42.604Z</time>
      </trkpt>
      <trkpt lat="47.589846" lon="7.909880">
        <ele>297.061633</ele>
        <time>2021-11-13T17:05:44.196Z</time>
      </trkpt>
      <trkpt lat="47.589453" lon="7.909790">
        <ele>296.200435</ele>
        <time>2021-11-13T17:05:48.419Z</time>
      </trkpt>
      <trkpt lat="47.589186" lon="7.909798">
        <ele>295.622084</ele>
        <time>2021-11-13T17:05:51.257Z</time>
      </trkpt>
      <trkpt lat="47.588985" lon="7.909827">
        <ele>295.184729</ele>
        <time>2021-11-13T17:05:53.543Z</time>
      </trkpt>
      <trkpt lat="47.587926" lon="7.910125">
        <ele>293.774982</ele>
        <time>2021-11-13T17:06:06.050Z</time>
      </trkpt>
      <trkpt lat="47.587479" lon="7.910228">
        <ele>293.304878</ele>
        <time>2021-11-13T17:06:12.108Z</time>
      </trkpt>
      <trkpt lat="47.587167" lon="7.910236">
        <ele>292.980596</ele>
        <time>2021-11-13T17:06:16.222Z</time>
      </trkpt>
      <trkpt lat="47.586813" lon="7.910134">
        <ele>292.653860</ele>
        <time>2021-11-13T17:06:20.655Z</time>
      </trkpt>
      <trkpt lat="47.586540" lon="7.909941">
        <ele>292.438218</ele>
        <time>2021-11-13T17:06:24.342Z</time>
      </trkpt>
      <trkpt lat="47.586265" lon="7.909589">
        <ele>292.179184</ele>
        <time>2021-11-13T17:06:28.721Z</time>
      </trkpt>
      <trkpt lat="47.586062" lon="7.909215">
        <ele>291.948322</ele>
        <time>2021-11-13T17:06:32.799Z</time>
      </trkpt>
      <trkpt lat="47.585956" lon="7.908983">
        <ele>291.813565</ele>
        <time>2021-11-13T17:06:35.243Z</time>
      </trkpt>
      <trkpt lat="47.585899" lon="7.908777">
        <ele>291.706487</ele>
        <time>2021-11-13T17:06:37.297Z</time>
      </trkpt>
      <trkpt lat="47.585750" lon="7.908439">
        <ele>291.512305</ele>
        <time>2021-11-13T17:06:40.901Z</time>
      </trkpt>
      <trkpt lat="47.585760" lon="7.908367">
        <ele>291.476953</ele>
        <time>2021-11-13T17:06:41.616Z</time>
      </trkpt>
      <trkpt lat="47.585751" lon="7.908295">
        <ele>291.501347</ele>
        <time>2021-11-13T17:06:42.394Z</time>
      </trkpt>
      <trkpt lat="47.585761" lon="7.908160">
        <ele>291.548312</ele>
        <time>2021-11-13T17:06:44.178Z</time>
      </trkpt>
      <trkpt lat="47.585759" lon="7.908093">
        <ele>291.571504</ele>
        <time>2021-11-13T17:06:44.972Z</time>
      </trkpt>
      <trkpt lat="47.585745" lon="7.907994">
        <ele>291.606483</ele>
        <time>2021-11-13T17:06:46.283Z</time>
      </trkpt>
      <trkpt lat="47.585709" lon="7.907887">
        <ele>291.647832</ele>
        <time>2021-11-13T17:06:47.827Z</time>
      </trkpt>
      <trkpt lat="47.585496" lon="7.906982">
        <ele>291.979294</ele>
        <time>2021-11-13T17:06:57.969Z</time>
      </trkpt>
      <trkpt lat="47.585477" lon="7.906769">
        <ele>292.053592</ele>
        <time>2021-11-13T17:07:00.514Z</time>
      </trkpt>
      <trkpt lat="47.585522" lon="7.905992">
        <ele>292.323274</ele>
        <time>2021-11-13T17:07:10.698Z</time>
      </trkpt>
      <trkpt lat="47.585585" lon="7.905551">
        <ele>292.600289</ele>
        <time>2021-11-13T17:07:17.028Z</time>
      </trkpt>
      <trkpt lat="47.585693" lon="7.905272">
        <ele>292.878734</ele>
        <time>2021-11-13T17:07:21.629Z</time>
      </trkpt>
      <trkpt lat="47.585762" lon="7.905099">
        <ele>293.052703</ele>
        <time>2021-11-13T17:07:24.457Z</time>
      </trkpt>
      <trkpt lat="47.585958" lon="7.904606">
        <ele>293.548052</ele>
        <time>2021-11-13T17:07:32.419Z</time>
      </trkpt>
      <trkpt lat="47.586407" lon="7.903407">
        <ele>294.725855</ele>
        <time>2021-11-13T17:07:50.353Z</time>
      </trkpt>
      <trkpt lat="47.586847" lon="7.902221">
        <ele>295.514035</ele>
        <time>2021-11-13T17:08:07.362Z</time>
      </trkpt>
      <trkpt lat="47.587029" lon="7.901746">
        <ele>295.832138</ele>
        <time>2021-11-13T17:08:13.998Z</time>
      </trkpt>
      <trkpt lat="47.587506" lon="7.900489">
        <ele>296.678606</ele>
        <time>2021-11-13T17:08:31.229Z</time>
      </trkpt>
      <trkpt lat="47.587835" lon="7.899596">
        <ele>297.280641</ele>
        <time>2021-11-13T17:08:43.766Z</time>
      </trkpt>
      <trkpt lat="47.587961" lon="7.899254">
        <ele>297.511207</ele>
        <time>2021-11-13T17:08:48.688Z</time>
      </trkpt>
      <trkpt lat="47.588117" lon="7.898851">
        <ele>297.786122</ele>
        <time>2021-11-13T17:08:54.547Z</time>
      </trkpt>
      <trkpt lat="47.588436" lon="7.898021">
        <ele>298.420935</ele>
        <time>2021-11-13T17:09:06.758Z</time>
      </trkpt>
      <trkpt lat="47.588506" lon="7.897839">
        <ele>298.561684</ele>
        <time>2021-11-13T17:09:09.219Z</time>
      </trkpt>
      <trkpt lat="47.588808" lon="7.897009">
        <ele>299.195235</ele>
        <time>2021-11-13T17:09:21.493Z</time>
      </trkpt>
      <trkpt lat="47.589118" lon="7.896174">
        <ele>299.739541</ele>
        <time>2021-11-13T17:09:33.670Z</time>
      </trkpt>
      <trkpt lat="47.589590" lon="7.894990">
        <ele>300.233997</ele>
        <time>2021-11-13T17:09:50.087Z</time>
      </trkpt>
      <trkpt lat="47.589932" lon="7.894260">
        <ele>300.553541</ele>
        <time>2021-11-13T17:09:59.653Z</time>
      </trkpt>
      <trkpt lat="47.589960" lon="7.894201">
        <ele>300.579476</ele>
        <time>2021-11-13T17:10:00.345Z</time>
      </trkpt>
      <trkpt lat="47.590704" lon="7.892594">
        <ele>300.074414</ele>
        <time>2021-11-13T17:10:18.441Z</time>
      </trkpt>
      <trkpt lat="47.591003" lon="7.891941">
        <ele>299.838601</ele>
        <time>2021-11-13T17:10:25.115Z</time>
      </trkpt>
      <trkpt lat="47.591247" lon="7.891264">
        <ele>299.230974</ele>
        <time>2021-11-13T17:10:31.608Z</time>
      </trkpt>
      <trkpt lat="47.591381" lon="7.890797">
        <ele>298.829238</ele>
        <time>2021-11-13T17:10:35.639Z</time>
      </trkpt>
      <trkpt lat="47.591692" lon="7.889232">
        <ele>297.594812</ele>
        <time>2021-11-13T17:10:48.520Z</time>
      </trkpt>
      <trkpt lat="47.591728" lon="7.889070">
        <ele>297.493567</ele>
        <time>2021-11-13T17:10:49.823Z</time>
      </trkpt>
      <trkpt lat="47.591763" lon="7.888925">
        <ele>297.402152</ele>
        <time>2021-11-13T17:10:51.026Z</time>
      </trkpt>
      <trkpt lat="47.591866" lon="7.888529">
        <ele>297.150221</ele>
        <time>2021-11-13T17:10:54.411Z</time>
      </trkpt>
      <trkpt lat="47.592202" lon="7.887383">
        <ele>296.408485</ele>
        <time>2021-11-13T17:11:04.875Z</time>
      </trkpt>
      <trkpt lat="47.592286" lon="7.887089">
        <ele>296.218960</ele>
        <time>2021-11-13T17:11:07.698Z</time>
      </trkpt>
      <trkpt lat="47.592409" lon="7.886663">
        <ele>296.335919</ele>
        <time>2021-11-13T17:11:12.237Z</time>
      </trkpt>
      <trkpt lat="47.592651" lon="7.885826">
        <ele>296.682420</ele>
        <time>2021-11-13T17:11:23.257Z</time>
      </trkpt>
      <trkpt lat="47.592802" lon="7.885426">
        <ele>296.856836</ele>
        <time>2021-11-13T17:11:28.864Z</time>
      </trkpt>
      <trkpt lat="47.593166" lon="7.884637">
        <ele>297.221796</ele>
        <time>2021-11-13T17:11:40.412Z</time>
      </trkpt>
      <trkpt lat="47.593354" lon="7.884147">
        <ele>297.447820</ele>
        <time>2021-11-13T17:11:47.533Z</time>
      </trkpt>
      <trkpt lat="47.593465" lon="7.883826">
        <ele>297.592450</ele>
        <time>2021-11-13T17:11:52.247Z</time>
      </trkpt>
      <trkpt lat="47.593516" lon="7.883635">
        <ele>297.674811</ele>
        <time>2021-11-13T17:11:55.094Z</time>
      </trkpt>
      <trkpt lat="47.593602" lon="7.883202">
        <ele>297.855785</ele>
        <time>2021-11-13T17:12:01.131Z</time>
      </trkpt>
      <trkpt lat="47.593695" lon="7.882631">
        <ele>298.091296</ele>
        <time>2021-11-13T17:12:08.044Z</time>
      </trkpt>
      <trkpt lat="47.593743" lon="7.882378">
        <ele>298.196668</ele>
        <time>2021-11-13T17:12:10.405Z</time>
      </trkpt>
      <trkpt lat="47.593831" lon="7.882052">
        <ele>298.048294</ele>
        <time>2021-11-13T17:12:13.694Z</time>
      </trkpt>
      <trkpt lat="47.593960" lon="7.881629">
        <ele>297.471942</ele>
        <time>2021-11-13T17:12:17.423Z</time>
      </trkpt>
      <trkpt lat="47.593971" lon="7.881590">
        <ele>297.419460</ele>
        <time>2021-11-13T17:12:17.758Z</time>
      </trkpt>
      <trkpt lat="47.593971" lon="7.881590">
        <ele>297.419460</ele>
        <time>2021-11-13T17:12:17.759Z</time>
      </trkpt>
      <trkpt lat="47.593986" lon="7.881532">
        <ele>297.342340</ele>
        <time>2021-11-13T17:12:18.220Z</time>
      </trkpt>
      <trkpt lat="47.594029" lon="7.881400">
        <ele>297.160346</ele>
        <time>2021-11-13T17:12:19.288Z</time>
      </trkpt>
      <trkpt lat="47.594057" lon="7.881307">
        <ele>297.033904</ele>
        <time>2021-11-13T17:12:20.087Z</time>
      </trkpt>
      <trkpt lat="47.594067" lon="7.881235">
        <ele>296.942641</ele>
        <time>2021-11-13T17:12:20.638Z</time>
      </trkpt>
      <trkpt lat="47.594067" lon="7.881089">
        <ele>296.761383</ele>
        <time>2021-11-13T17:12:21.787Z</time>
      </trkpt>
      <trkpt lat="47.594054" lon="7.881021">
        <ele>296.673635</ele>
        <time>2021-11-13T17:12:22.309Z</time>
      </trkpt>
      <trkpt lat="47.594014" lon="7.880939">
        <ele>296.547993</ele>
        <time>2021-11-13T17:12:23.033Z</time>
      </trkpt>
      <trkpt lat="47.593967" lon="7.880875">
        <ele>296.430521</ele>
        <time>2021-11-13T17:12:23.745Z</time>
      </trkpt>
      <trkpt lat="47.593811" lon="7.880736">
        <ele>296.095476</ele>
        <time>2021-11-13T17:12:25.781Z</time>
      </trkpt>
      <trkpt lat="47.593729" lon="7.880642">
        <ele>295.904670</ele>
        <time>2021-11-13T17:12:26.871Z</time>
      </trkpt>
      <trkpt lat="47.593692" lon="7.880558">
        <ele>295.780110</ele>
        <time>2021-11-13T17:12:27.616Z</time>
      </trkpt>
      <trkpt lat="47.593635" lon="7.880635">
        <ele>295.638161</ele>
        <time>2021-11-13T17:12:28.451Z</time>
      </trkpt>
      <trkpt lat="47.593588" lon="7.880675">
        <ele>295.538399</ele>
        <time>2021-11-13T17:12:29.068Z</time>
      </trkpt>
      <trkpt lat="47.593483" lon="7.880648">
        <ele>295.342216</ele>
        <time>2021-11-13T17:12:30.206Z</time>
      </trkpt>
      <trkpt lat="47.593164" lon="7.880480">
        <ele>294.525701</ele>
        <time>2021-11-13T17:12:33.674Z</time>
      </trkpt>
      <trkpt lat="47.592855" lon="7.880299">
        <ele>293.414467</ele>
        <time>2021-11-13T17:12:36.957Z</time>
      </trkpt>
      <trkpt lat="47.592558" lon="7.880084">
        <ele>292.309028</ele>
        <time>2021-11-13T17:12:40.168Z</time>
      </trkpt>
      <trkpt lat="47.592176" lon="7.879859">
        <ele>290.934238</ele>
        <time>2021-11-13T17:12:44.217Z</time>
      </trkpt>
      <trkpt lat="47.591747" lon="7.879696">
        <ele>289.452999</ele>
        <time>2021-11-13T17:12:48.689Z</time>
      </trkpt>
      <trkpt lat="47.591433" lon="7.879589">
        <ele>288.576190</ele>
        <time>2021-11-13T17:12:52.023Z</time>
      </trkpt>
      <trkpt lat="47.591348" lon="7.879568">
        <ele>288.390524</ele>
        <time>2021-11-13T17:12:52.937Z</time>
      </trkpt>
      <trkpt lat="47.591318" lon="7.879563">
        <ele>288.325479</ele>
        <time>2021-11-13T17:12:53.263Z</time>
      </trkpt>
      <trkpt lat="47.591234" lon="7.879550">
        <ele>288.143509</ele>
        <time>2021-11-13T17:12:54.147Z</time>
      </trkpt>
      <trkpt lat="47.591201" lon="7.878391">
        <ele>286.457867</ele>
        <time>2021-11-13T17:13:02.583Z</time>
      </trkpt>
      <trkpt lat="47.591165" lon="7.877839">
        <ele>285.652014</ele>
        <time>2021-11-13T17:13:06.687Z</time>
      </trkpt>
      <trkpt lat="47.591021" lon="7.877714">
        <ele>285.292493</ele>
        <time>2021-11-13T17:13:08.604Z</time>
      </trkpt>
      <trkpt lat="47.590631" lon="7.877615">
        <ele>284.766587</ele>
        <time>2021-11-13T17:13:13.299Z</time>
      </trkpt>
      <trkpt lat="47.590500" lon="7.877526">
        <ele>284.618519</ele>
        <time>2021-11-13T17:13:14.978Z</time>
      </trkpt>
      <trkpt lat="47.590479" lon="7.877434">
        <ele>284.551209</ele>
        <time>2021-11-13T17:13:15.750Z</time>
      </trkpt>
      <trkpt lat="47.590532" lon="7.877177">
        <ele>284.364964</ele>
        <time>2021-11-13T17:13:18.057Z</time>
      </trkpt>
      <trkpt lat="47.590592" lon="7.876946">
        <ele>284.193416</ele>
        <time>2021-11-13T17:13:20.013Z</time>
      </trkpt>
      <trkpt lat="47.590643" lon="7.876593">
        <ele>283.943233</ele>
        <time>2021-11-13T17:13:23.082Z</time>
      </trkpt>
      <trkpt lat="47.590771" lon="7.875667">
        <ele>283.288164</ele>
        <time>2021-11-13T17:13:31.111Z</time>
      </trkpt>
      <trkpt lat="47.590851" lon="7.875195">
        <ele>283.075828</ele>
        <time>2021-11-13T17:13:35.279Z</time>
      </trkpt>
      <trkpt lat="47.591067" lon="7.874101">
        <ele>282.657925</ele>
        <time>2021-11-13T17:13:45.609Z</time>
      </trkpt>
      <trkpt lat="47.591105" lon="7.873760">
        <ele>282.531217</ele>
        <time>2021-11-13T17:13:48.797Z</time>
      </trkpt>
      <trkpt lat="47.591074" lon="7.872343">
        <ele>281.935123</ele>
        <time>2021-11-13T17:14:01.287Z</time>
      </trkpt>
      <trkpt lat="47.590993" lon="7.871168">
        <ele>281.356476</ele>
        <time>2021-11-13T17:14:11.223Z</time>
      </trkpt>
      <trkpt lat="47.590885" lon="7.870375">
        <ele>280.960132</ele>
        <time>2021-11-13T17:14:18.042Z</time>
      </trkpt>
      <trkpt lat="47.590882" lon="7.870356">
        <ele>280.950572</ele>
        <time>2021-11-13T17:14:18.225Z</time>
      </trkpt>
      <trkpt lat="47.590872" lon="7.870300">
        <ele>280.928991</ele>
        <time>2021-11-13T17:14:18.809Z</time>
      </trkpt>
      <trkpt lat="47.590870" lon="7.870288">
        <ele>280.927198</ele>
        <time>2021-11-13T17:14:18.956Z</time>
      </trkpt>
      <trkpt lat="47.590773" lon="7.869984">
        <ele>280.878398</ele>
        <time>2021-11-13T17:14:21.855Z</time>
      </trkpt>
      <trkpt lat="47.590705" lon="7.869768">
        <ele>280.843808</ele>
        <time>2021-11-13T17:14:24.074Z</time>
      </trkpt>
      <trkpt lat="47.590470" lon="7.869069">
        <ele>280.730476</ele>
        <time>2021-11-13T17:14:31.106Z</time>
      </trkpt>
      <trkpt lat="47.590421" lon="7.868927">
        <ele>280.707330</ele>
        <time>2021-11-13T17:14:32.573Z</time>
      </trkpt>
      <trkpt lat="47.590348" lon="7.868680">
        <ele>280.668198</ele>
        <time>2021-11-13T17:14:35.447Z</time>
      </trkpt>
      <trkpt lat="47.590292" lon="7.868520">
        <ele>280.642041</ele>
        <time>2021-11-13T17:14:37.075Z</time>
      </trkpt>
      <trkpt lat="47.590365" lon="7.868441">
        <ele>280.622596</ele>
        <time>2021-11-13T17:14:38.465Z</time>
      </trkpt>
      <trkpt lat="47.590348" lon="7.868400">
        <ele>280.615613</ele>
        <time>2021-11-13T17:14:39.130Z</time>
      </trkpt>
      <trkpt lat="47.590333" lon="7.867008">
        <ele>280.740530</ele>
        <time>2021-11-13T17:14:54.123Z</time>
      </trkpt>
      <trkpt lat="47.590274" lon="7.866644">
        <ele>280.821503</ele>
        <time>2021-11-13T17:14:58.621Z</time>
      </trkpt>
      <trkpt lat="47.590266" lon="7.866595">
        <ele>280.832408</ele>
        <time>2021-11-13T17:14:59.159Z</time>
      </trkpt>
      <trkpt lat="47.590251" lon="7.866509">
        <ele>280.851621</ele>
        <time>2021-11-13T17:15:00.037Z</time>
      </trkpt>
      <trkpt lat="47.589823" lon="7.864422">
        <ele>281.146340</ele>
        <time>2021-11-13T17:15:23.307Z</time>
      </trkpt>
      <trkpt lat="47.589471" lon="7.862994">
        <ele>281.186497</ele>
        <time>2021-11-13T17:15:38.053Z</time>
      </trkpt>
      <trkpt lat="47.587447" lon="7.853842">
        <ele>280.838155</ele>
        <time>2021-11-13T17:17:12.701Z</time>
      </trkpt>
      <trkpt lat="47.587300" lon="7.853345">
        <ele>280.862893</ele>
        <time>2021-11-13T17:17:18.271Z</time>
      </trkpt>
      <trkpt lat="47.586757" lon="7.850579">
        <ele>281.280857</ele>
        <time>2021-11-13T17:17:49.027Z</time>
      </trkpt>
      <trkpt lat="47.586522" lon="7.848600">
        <ele>281.718269</ele>
        <time>2021-11-13T17:18:11.169Z</time>
      </trkpt>
      <trkpt lat="47.586484" lon="7.848370">
        <ele>281.772912</ele>
        <time>2021-11-13T17:18:13.807Z</time>
      </trkpt>
      <trkpt lat="47.586486" lon="7.847936">
        <ele>281.873062</ele>
        <time>2021-11-13T17:18:18.513Z</time>
      </trkpt>
      <trkpt lat="47.586470" lon="7.846873">
        <ele>282.011831</ele>
        <time>2021-11-13T17:18:29.926Z</time>
      </trkpt>
      <trkpt lat="47.586459" lon="7.846086">
        <ele>282.049773</ele>
        <time>2021-11-13T17:18:38.169Z</time>
      </trkpt>
      <trkpt lat="47.586452" lon="7.845634">
        <ele>282.071566</ele>
        <time>2021-11-13T17:18:42.768Z</time>
      </trkpt>
      <trkpt lat="47.586790" lon="7.842637">
        <ele>281.862430</ele>
        <time>2021-11-13T17:19:12.085Z</time>
      </trkpt>
      <trkpt lat="47.586802" lon="7.842180">
        <ele>281.810384</ele>
        <time>2021-11-13T17:19:16.362Z</time>
      </trkpt>
      <trkpt lat="47.586809" lon="7.842018">
        <ele>281.778741</ele>
        <time>2021-11-13T17:19:17.865Z</time>
      </trkpt>
      <trkpt lat="47.586920" lon="7.841604">
        <ele>281.688393</ele>
        <time>2021-11-13T17:19:22.037Z</time>
      </trkpt>
      <trkpt lat="47.587628" lon="7.835942">
        <ele>280.497254</ele>
        <time>2021-11-13T17:20:15.446Z</time>
      </trkpt>
      <trkpt lat="47.587848" lon="7.834235">
        <ele>280.158378</ele>
        <time>2021-11-13T17:20:31.305Z</time>
      </trkpt>
      <trkpt lat="47.586496" lon="7.833050">
        <ele>280.376393</ele>
        <time>2021-11-13T17:20:53.671Z</time>
      </trkpt>
      <trkpt lat="47.586276" lon="7.833601">
        <ele>281.110465</ele>
        <time>2021-11-13T17:21:01.924Z</time>
      </trkpt>
      <trkpt lat="47.585278" lon="7.832688">
        <ele>284.265453</ele>
        <time>2021-11-13T17:21:33.378Z</time>
      </trkpt>
      <trkpt lat="47.585247" lon="7.832651">
        <ele>284.372522</ele>
        <time>2021-11-13T17:21:34.678Z</time>
      </trkpt>
      <trkpt lat="47.585195" lon="7.832588">
        <ele>284.553191</ele>
        <time>2021-11-13T17:21:36.874Z</time>
      </trkpt>
      <trkpt lat="47.585027" lon="7.832425">
        <ele>285.093355</ele>
        <time>2021-11-13T17:21:42.282Z</time>
      </trkpt>
      <trkpt lat="47.584717" lon="7.832264">
        <ele>286.409767</ele>
        <time>2021-11-13T17:21:51.947Z</time>
      </trkpt>
      <trkpt lat="47.584367" lon="7.832247">
        <ele>287.904012</ele>
        <time>2021-11-13T17:22:03.048Z</time>
      </trkpt>
      <trkpt lat="47.584156" lon="7.832334">
        <ele>288.838515</ele>
        <time>2021-11-13T17:22:10.755Z</time>
      </trkpt>
      <trkpt lat="47.584029" lon="7.832543">
        <ele>289.648142</ele>
        <time>2021-11-13T17:22:17.490Z</time>
      </trkpt>
      <trkpt lat="47.583849" lon="7.832883">
        <ele>290.892123</ele>
        <time>2021-11-13T17:22:27.880Z</time>
      </trkpt>
      <trkpt lat="47.583696" lon="7.833171">
        <ele>291.947248</ele>
        <time>2021-11-13T17:22:36.586Z</time>
      </trkpt>
      <trkpt lat="47.583523" lon="7.833509">
        <ele>293.057023</ele>
        <time>2021-11-13T17:22:45.045Z</time>
      </trkpt>
      <trkpt lat="47.583401" lon="7.833658">
        <ele>293.436794</ele>
        <time>2021-11-13T17:22:48.918Z</time>
      </trkpt>
      <trkpt lat="47.583327" lon="7.833750">
        <ele>293.668828</ele>
        <time>2021-11-13T17:22:52.044Z</time>
      </trkpt>
      <trkpt lat="47.583163" lon="7.833942">
        <ele>294.170901</ele>
        <time>2021-11-13T17:22:57.537Z</time>
      </trkpt>
      <trkpt lat="47.582828" lon="7.834117">
        <ele>295.024281</ele>
        <time>2021-11-13T17:23:05.984Z</time>
      </trkpt>
      <trkpt lat="47.580816" lon="7.834599">
        <ele>298.380426</ele>
        <time>2021-11-13T17:23:49.864Z</time>
      </trkpt>
      <trkpt lat="47.580667" lon="7.834627">
        <ele>298.534314</ele>
        <time>2021-11-13T17:23:52.245Z</time>
      </trkpt>
      <trkpt lat="47.579073" lon="7.834987">
        <ele>298.486485</ele>
        <time>2021-11-13T17:24:16.206Z</time>
      </trkpt>
      <trkpt lat="47.576219" lon="7.835650">
        <ele>295.408467</ele>
        <time>2021-11-13T17:24:49.866Z</time>
      </trkpt>
      <trkpt lat="47.575959" lon="7.835718">
        <ele>295.237921</ele>
        <time>2021-11-13T17:24:53.021Z</time>
      </trkpt>
      <trkpt lat="47.575033" lon="7.835907">
        <ele>294.634112</ele>
        <time>2021-11-13T17:25:05.475Z</time>
      </trkpt>
      <trkpt lat="47.574568" lon="7.836025">
        <ele>294.571412</ele>
        <time>2021-11-13T17:25:12.462Z</time>
      </trkpt>
      <trkpt lat="47.574158" lon="7.836106">
        <ele>294.712240</ele>
        <time>2021-11-13T17:25:19.135Z</time>
      </trkpt>
      <trkpt lat="47.573815" lon="7.836215">
        <ele>294.831676</ele>
        <time>2021-11-13T17:25:26.814Z</time>
      </trkpt>
      <trkpt lat="47.573348" lon="7.836386">
        <ele>294.995456</ele>
        <time>2021-11-13T17:25:37.666Z</time>
      </trkpt>
      <trkpt lat="47.572760" lon="7.836606">
        <ele>295.277769</ele>
        <time>2021-11-13T17:25:51.277Z</time>
      </trkpt>
      <trkpt lat="47.572296" lon="7.836777">
        <ele>295.561976</ele>
        <time>2021-11-13T17:26:01.702Z</time>
      </trkpt>
      <trkpt lat="47.572139" lon="7.836834">
        <ele>295.658058</ele>
        <time>2021-11-13T17:26:05.188Z</time>
      </trkpt>
      <trkpt lat="47.571871" lon="7.836932">
        <ele>295.822138</ele>
        <time>2021-11-13T17:26:11.225Z</time>
      </trkpt>
      <trkpt lat="47.571771" lon="7.836971">
        <ele>295.883603</ele>
        <time>2021-11-13T17:26:13.462Z</time>
      </trkpt>
      <trkpt lat="47.571254" lon="7.837161">
        <ele>296.237379</ele>
        <time>2021-11-13T17:26:25.912Z</time>
      </trkpt>
      <trkpt lat="47.570985" lon="7.837265">
        <ele>296.601855</ele>
        <time>2021-11-13T17:26:32.866Z</time>
      </trkpt>
      <trkpt lat="47.570872" lon="7.837307">
        <ele>296.754593</ele>
        <time>2021-11-13T17:26:35.882Z</time>
      </trkpt>
      <trkpt lat="47.570298" lon="7.837528">
        <ele>297.532119</ele>
        <time>2021-11-13T17:26:51.204Z</time>
      </trkpt>
      <trkpt lat="47.570038" lon="7.837643">
        <ele>297.887850</ele>
        <time>2021-11-13T17:26:58.326Z</time>
      </trkpt>
      <trkpt lat="47.569907" lon="7.837696">
        <ele>298.065883</ele>
        <time>2021-11-13T17:27:01.848Z</time>
      </trkpt>
      <trkpt lat="47.569814" lon="7.837733">
        <ele>298.192128</ele>
        <time>2021-11-13T17:27:04.410Z</time>
      </trkpt>
      <trkpt lat="47.569665" lon="7.837789">
        <ele>298.393659</ele>
        <time>2021-11-13T17:27:08.374Z</time>
      </trkpt>
      <trkpt lat="47.569522" lon="7.837844">
        <ele>298.581596</ele>
        <time>2021-11-13T17:27:12.227Z</time>
      </trkpt>
      <trkpt lat="47.569310" lon="7.837922">
        <ele>298.840425</ele>
        <time>2021-11-13T17:27:17.976Z</time>
      </trkpt>
      <trkpt lat="47.568988" lon="7.838054">
        <ele>299.236296</ele>
        <time>2021-11-13T17:27:26.753Z</time>
      </trkpt>
      <trkpt lat="47.568420" lon="7.838300">
        <ele>299.937481</ele>
        <time>2021-11-13T17:27:42.011Z</time>
      </trkpt>
      <trkpt lat="47.568160" lon="7.838415">
        <ele>300.258988</ele>
        <time>2021-11-13T17:27:48.424Z</time>
      </trkpt>
      <trkpt lat="47.568042" lon="7.838436">
        <ele>300.399814</ele>
        <time>2021-11-13T17:27:51.157Z</time>
      </trkpt>
      <trkpt lat="47.567936" lon="7.838380">
        <ele>300.533157</ele>
        <time>2021-11-13T17:27:53.691Z</time>
      </trkpt>
      <trkpt lat="47.567846" lon="7.838609">
        <ele>300.713110</ele>
        <time>2021-11-13T17:27:56.719Z</time>
      </trkpt>
      <trkpt lat="47.567823" lon="7.838648">
        <ele>300.739191</ele>
        <time>2021-11-13T17:27:57.376Z</time>
      </trkpt>
      <trkpt lat="47.567634" lon="7.839037">
        <ele>300.980559</ele>
        <time>2021-11-13T17:28:02.790Z</time>
      </trkpt>
      <trkpt lat="47.567626" lon="7.839064">
        <ele>300.995407</ele>
        <time>2021-11-13T17:28:03.205Z</time>
      </trkpt>
      <trkpt lat="47.567564" lon="7.839283">
        <ele>301.114993</ele>
        <time>2021-11-13T17:28:05.906Z</time>
      </trkpt>
      <trkpt lat="47.567530" lon="7.839459">
        <ele>301.207173</ele>
        <time>2021-11-13T17:28:08.111Z</time>
      </trkpt>
      <trkpt lat="47.567510" lon="7.839548">
        <ele>301.254407</ele>
        <time>2021-11-13T17:28:09.234Z</time>
      </trkpt>
      <trkpt lat="47.567481" lon="7.839664">
        <ele>301.316696</ele>
        <time>2021-11-13T17:28:10.574Z</time>
      </trkpt>
      <trkpt lat="47.567406" lon="7.839778">
        <ele>301.396869</ele>
        <time>2021-11-13T17:28:12.602Z</time>
      </trkpt>
      <trkpt lat="47.567111" lon="7.839998">
        <ele>301.643318</ele>
        <time>2021-11-13T17:28:18.603Z</time>
      </trkpt>
      <trkpt lat="47.566826" lon="7.840179">
        <ele>301.874709</ele>
        <time>2021-11-13T17:28:24.135Z</time>
      </trkpt>
      <trkpt lat="47.566592" lon="7.840279">
        <ele>302.085364</ele>
        <time>2021-11-13T17:28:28.763Z</time>
      </trkpt>
      <trkpt lat="47.566515" lon="7.840312">
        <ele>302.176410</ele>
        <time>2021-11-13T17:28:30.054Z</time>
      </trkpt>
      <trkpt lat="47.566450" lon="7.840326">
        <ele>302.251017</ele>
        <time>2021-11-13T17:28:31.291Z</time>
      </trkpt>
      <trkpt lat="47.566350" lon="7.840350">
        <ele>302.366084</ele>
        <time>2021-11-13T17:28:33.151Z</time>
      </trkpt>
      <trkpt lat="47.566350" lon="7.840350">
        <ele>302.366084</ele>
        <time>2021-11-13T17:28:33.181Z</time>
      </trkpt>
      <trkpt lat="47.566221" lon="7.840340">
        <ele>302.512813</ele>
        <time>2021-11-13T17:28:35.511Z</time>
      </trkpt>
      <trkpt lat="47.566142" lon="7.840322">
        <ele>302.603601</ele>
        <time>2021-11-13T17:28:36.745Z</time>
      </trkpt>
      <trkpt lat="47.566081" lon="7.840309">
        <ele>302.673602</ele>
        <time>2021-11-13T17:28:37.951Z</time>
      </trkpt>
      <trkpt lat="47.565906" lon="7.840272">
        <ele>302.874393</ele>
        <time>2021-11-13T17:28:41.407Z</time>
      </trkpt>
      <trkpt lat="47.565647" lon="7.840232">
        <ele>303.170178</ele>
        <time>2021-11-13T17:28:46.441Z</time>
      </trkpt>
      <trkpt lat="47.565343" lon="7.840185">
        <ele>303.517359</ele>
        <time>2021-11-13T17:28:52.713Z</time>
      </trkpt>
      <trkpt lat="47.565233" lon="7.840176">
        <ele>303.642495</ele>
        <time>2021-11-13T17:28:55.067Z</time>
      </trkpt>
      <trkpt lat="47.565168" lon="7.840179">
        <ele>303.716363</ele>
        <time>2021-11-13T17:28:56.441Z</time>
      </trkpt>
      <trkpt lat="47.565057" lon="7.840213">
        <ele>303.845110</ele>
        <time>2021-11-13T17:28:58.684Z</time>
      </trkpt>
      <trkpt lat="47.564936" lon="7.840261">
        <ele>303.987390</ele>
        <time>2021-11-13T17:29:01.362Z</time>
      </trkpt>
      <trkpt lat="47.564558" lon="7.840516">
        <ele>304.434763</ele>
        <time>2021-11-13T17:29:09.683Z</time>
      </trkpt>
      <trkpt lat="47.564534" lon="7.840532">
        <ele>304.462899</ele>
        <time>2021-11-13T17:29:10.181Z</time>
      </trkpt>
      <trkpt lat="47.564463" lon="7.840580">
        <ele>304.546335</ele>
        <time>2021-11-13T17:29:11.794Z</time>
      </trkpt>
      <trkpt lat="47.564094" lon="7.840838">
        <ele>304.982557</ele>
        <time>2021-11-13T17:29:19.450Z</time>
      </trkpt>
      <trkpt lat="47.563986" lon="7.840916">
        <ele>305.111007</ele>
        <time>2021-11-13T17:29:21.735Z</time>
      </trkpt>
      <trkpt lat="47.563941" lon="7.840948">
        <ele>305.164372</ele>
        <time>2021-11-13T17:29:22.660Z</time>
      </trkpt>
      <trkpt lat="47.563805" lon="7.841046">
        <ele>305.326054</ele>
        <time>2021-11-13T17:29:25.466Z</time>
      </trkpt>
      <trkpt lat="47.563659" lon="7.841150">
        <ele>305.499247</ele>
        <time>2021-11-13T17:29:28.358Z</time>
      </trkpt>
      <trkpt lat="47.563483" lon="7.841269">
        <ele>305.706078</ele>
        <time>2021-11-13T17:29:32.086Z</time>
      </trkpt>
      <trkpt lat="47.563300" lon="7.841391">
        <ele>305.920620</ele>
        <time>2021-11-13T17:29:35.647Z</time>
      </trkpt>
      <trkpt lat="47.563016" lon="7.841568">
        <ele>306.289915</ele>
        <time>2021-11-13T17:29:41.504Z</time>
      </trkpt>
      <trkpt lat="47.562965" lon="7.841597">
        <ele>306.356555</ele>
        <time>2021-11-13T17:29:42.482Z</time>
      </trkpt>
      <trkpt lat="47.562904" lon="7.841632">
        <ele>306.436355</ele>
        <time>2021-11-13T17:29:43.711Z</time>
      </trkpt>
      <trkpt lat="47.562574" lon="7.841873">
        <ele>306.885167</ele>
        <time>2021-11-13T17:29:50.677Z</time>
      </trkpt>
      <trkpt lat="47.562440" lon="7.842083">
        <ele>307.123092</ele>
        <time>2021-11-13T17:29:54.296Z</time>
      </trkpt>
      <trkpt lat="47.562385" lon="7.842183">
        <ele>307.229294</ele>
        <time>2021-11-13T17:29:55.863Z</time>
      </trkpt>
      <trkpt lat="47.562300" lon="7.842326">
        <ele>307.386171</ele>
        <time>2021-11-13T17:29:58.763Z</time>
      </trkpt>
      <trkpt lat="47.562179" lon="7.842500">
        <ele>307.591858</ele>
        <time>2021-11-13T17:30:02.241Z</time>
      </trkpt>
      <trkpt lat="47.561498" lon="7.843130">
        <ele>308.499480</ele>
        <time>2021-11-13T17:30:18.953Z</time>
      </trkpt>
      <trkpt lat="47.561434" lon="7.843181">
        <ele>308.572608</ele>
        <time>2021-11-13T17:30:20.758Z</time>
      </trkpt>
      <trkpt lat="47.561038" lon="7.843502">
        <ele>309.026853</ele>
        <time>2021-11-13T17:30:29.459Z</time>
      </trkpt>
      <trkpt lat="47.560934" lon="7.843550">
        <ele>309.136474</ele>
        <time>2021-11-13T17:30:31.613Z</time>
      </trkpt>
      <trkpt lat="47.560812" lon="7.843560">
        <ele>309.259438</ele>
        <time>2021-11-13T17:30:33.857Z</time>
      </trkpt>
      <trkpt lat="47.560515" lon="7.843379">
        <ele>309.582617</ele>
        <time>2021-11-13T17:30:39.594Z</time>
      </trkpt>
      <trkpt lat="47.560430" lon="7.843341">
        <ele>309.671966</ele>
        <time>2021-11-13T17:30:41.396Z</time>
      </trkpt>
      <trkpt lat="47.560338" lon="7.843341">
        <ele>309.764551</ele>
        <time>2021-11-13T17:30:42.618Z</time>
      </trkpt>
      <trkpt lat="47.560209" lon="7.843393">
        <ele>309.899090</ele>
        <time>2021-11-13T17:30:45.094Z</time>
      </trkpt>
      <trkpt lat="47.560139" lon="7.843433">
        <ele>309.971280</ele>
        <time>2021-11-13T17:30:46.413Z</time>
      </trkpt>
      <trkpt lat="47.559847" lon="7.843604">
        <ele>309.950360</ele>
        <time>2021-11-13T17:30:51.581Z</time>
      </trkpt>
      <trkpt lat="47.559583" lon="7.843813">
        <ele>309.930416</ele>
        <time>2021-11-13T17:30:56.072Z</time>
      </trkpt>
      <trkpt lat="47.559158" lon="7.844233">
        <ele>309.896378</ele>
        <time>2021-11-13T17:31:03.281Z</time>
      </trkpt>
      <trkpt lat="47.559109" lon="7.844229">
        <ele>309.893108</ele>
        <time>2021-11-13T17:31:03.871Z</time>
      </trkpt>
      <trkpt lat="47.559060" lon="7.844197">
        <ele>309.889540</ele>
        <time>2021-11-13T17:31:04.503Z</time>
      </trkpt>
      <trkpt lat="47.558884" lon="7.843836">
        <ele>309.869515</ele>
        <time>2021-11-13T17:31:08.648Z</time>
      </trkpt>
      <trkpt lat="47.558555" lon="7.843392">
        <ele>309.867340</ele>
        <time>2021-11-13T17:31:14.688Z</time>
      </trkpt>
      <trkpt lat="47.558471" lon="7.843365">
        <ele>309.874976</ele>
        <time>2021-11-13T17:31:15.948Z</time>
      </trkpt>
      <trkpt lat="47.558405" lon="7.843371">
        <ele>309.880851</ele>
        <time>2021-11-13T17:31:17.117Z</time>
      </trkpt>
      <trkpt lat="47.558136" lon="7.843582">
        <ele>309.907891</ele>
        <time>2021-11-13T17:31:21.324Z</time>
      </trkpt>
      <trkpt lat="47.557967" lon="7.843683">
        <ele>309.924081</ele>
        <time>2021-11-13T17:31:24.034Z</time>
      </trkpt>
      <trkpt lat="47.557846" lon="7.843756">
        <ele>309.935688</ele>
        <time>2021-11-13T17:31:25.885Z</time>
      </trkpt>
      <trkpt lat="47.557759" lon="7.843839">
        <ele>309.944880</ele>
        <time>2021-11-13T17:31:27.662Z</time>
      </trkpt>
      <trkpt lat="47.557715" lon="7.843940">
        <ele>309.952088</ele>
        <time>2021-11-13T17:31:28.891Z</time>
      </trkpt>
      <trkpt lat="47.557707" lon="7.843965">
        <ele>309.953747</ele>
        <time>2021-11-13T17:31:29.182Z</time>
      </trkpt>
      <trkpt lat="47.557642" lon="7.844172">
        <ele>309.967435</ele>
        <time>2021-11-13T17:31:31.611Z</time>
      </trkpt>
      <trkpt lat="47.557560" lon="7.844433">
        <ele>309.984696</ele>
        <time>2021-11-13T17:31:34.846Z</time>
      </trkpt>
      <trkpt lat="47.557282" lon="7.844832">
        <ele>310.074216</ele>
        <time>2021-11-13T17:31:41.272Z</time>
      </trkpt>
      <trkpt lat="47.557134" lon="7.845095">
        <ele>310.242829</ele>
        <time>2021-11-13T17:31:45.057Z</time>
      </trkpt>
      <trkpt lat="47.556636" lon="7.845928">
        <ele>310.790787</ele>
        <time>2021-11-13T17:31:57.908Z</time>
      </trkpt>
      <trkpt lat="47.556060" lon="7.846859">
        <ele>311.476180</ele>
        <time>2021-11-13T17:32:14.035Z</time>
      </trkpt>
      <trkpt lat="47.555990" lon="7.846965">
        <ele>311.601337</ele>
        <time>2021-11-13T17:32:16.019Z</time>
      </trkpt>
      <trkpt lat="47.555966" lon="7.846932">
        <ele>311.642279</ele>
        <time>2021-11-13T17:32:16.607Z</time>
      </trkpt>
      <trkpt lat="47.555892" lon="7.846856">
        <ele>311.754869</ele>
        <time>2021-11-13T17:32:18.163Z</time>
      </trkpt>
      <trkpt lat="47.555855" lon="7.846815">
        <ele>311.812644</ele>
        <time>2021-11-13T17:32:19.073Z</time>
      </trkpt>
      <trkpt lat="47.555727" lon="7.846715">
        <ele>311.993590</ele>
        <time>2021-11-13T17:32:22.076Z</time>
      </trkpt>
      <trkpt lat="47.555199" lon="7.846687">
        <ele>312.654266</ele>
        <time>2021-11-13T17:32:32.042Z</time>
      </trkpt>
      <trkpt lat="47.555068" lon="7.846672">
        <ele>312.818568</ele>
        <time>2021-11-13T17:32:34.905Z</time>
      </trkpt>
      <trkpt lat="47.554995" lon="7.846915">
        <ele>313.043041</ele>
        <time>2021-11-13T17:32:38.629Z</time>
      </trkpt>
      <trkpt lat="47.554892" lon="7.847148">
        <ele>313.278104</ele>
        <time>2021-11-13T17:32:42.599Z</time>
      </trkpt>
      <trkpt lat="47.554759" lon="7.847388">
        <ele>313.540181</ele>
        <time>2021-11-13T17:32:46.919Z</time>
      </trkpt>
      <trkpt lat="47.554618" lon="7.847626">
        <ele>313.840346</ele>
        <time>2021-11-13T17:32:51.479Z</time>
      </trkpt>
      <trkpt lat="47.554465" lon="7.847858">
        <ele>314.152501</ele>
        <time>2021-11-13T17:32:56.114Z</time>
      </trkpt>
      <trkpt lat="47.554351" lon="7.848049">
        <ele>314.397874</ele>
        <time>2021-11-13T17:32:59.575Z</time>
      </trkpt>
      <trkpt lat="47.554269" lon="7.848188">
        <ele>314.575537</ele>
        <time>2021-11-13T17:33:02.107Z</time>
      </trkpt>
      <trkpt lat="47.554209" lon="7.848300">
        <ele>314.713146</ele>
        <time>2021-11-13T17:33:04.188Z</time>
      </trkpt>
      <trkpt lat="47.554055" lon="7.848586">
        <ele>315.065241</ele>
        <time>2021-11-13T17:33:09.056Z</time>
      </trkpt>
      <trkpt lat="47.553725" lon="7.849291">
        <ele>315.890899</ele>
        <time>2021-11-13T17:33:20.423Z</time>
      </trkpt>
      <trkpt lat="47.553605" lon="7.849629">
        <ele>316.310889</ele>
        <time>2021-11-13T17:33:25.878Z</time>
      </trkpt>
      <trkpt lat="47.553537" lon="7.849904">
        <ele>316.715133</ele>
        <time>2021-11-13T17:33:30.069Z</time>
      </trkpt>
      <trkpt lat="47.553380" lon="7.850453">
        <ele>317.538113</ele>
        <time>2021-11-13T17:33:38.921Z</time>
      </trkpt>
      <trkpt lat="47.553344" lon="7.850525">
        <ele>317.661793</ele>
        <time>2021-11-13T17:33:40.187Z</time>
      </trkpt>
      <trkpt lat="47.553283" lon="7.850634">
        <ele>317.857236</ele>
        <time>2021-11-13T17:33:42.240Z</time>
      </trkpt>
      <trkpt lat="47.552876" lon="7.851300">
        <ele>319.097343</ele>
        <time>2021-11-13T17:33:56.073Z</time>
      </trkpt>
      <trkpt lat="47.552678" lon="7.851709">
        <ele>319.792086</ele>
        <time>2021-11-13T17:34:04.755Z</time>
      </trkpt>
      <trkpt lat="47.552449" lon="7.852231">
        <ele>321.138752</ele>
        <time>2021-11-13T17:34:16.055Z</time>
      </trkpt>
      <trkpt lat="47.552272" lon="7.852167">
        <ele>321.728735</ele>
        <time>2021-11-13T17:34:21.455Z</time>
      </trkpt>
      <trkpt lat="47.552097" lon="7.852063">
        <ele>322.339305</ele>
        <time>2021-11-13T17:34:26.702Z</time>
      </trkpt>
      <trkpt lat="47.552042" lon="7.852007">
        <ele>322.555405</ele>
        <time>2021-11-13T17:34:29.102Z</time>
      </trkpt>
      <trkpt lat="47.551925" lon="7.851845">
        <ele>323.073959</ele>
        <time>2021-11-13T17:34:33.368Z</time>
      </trkpt>
      <trkpt lat="47.551830" lon="7.851603">
        <ele>323.685818</ele>
        <time>2021-11-13T17:34:39.190Z</time>
      </trkpt>
      <trkpt lat="47.551660" lon="7.851725">
        <ele>324.297488</ele>
        <time>2021-11-13T17:34:44.424Z</time>
      </trkpt>
      <trkpt lat="47.551516" lon="7.851950">
        <ele>324.975171</ele>
        <time>2021-11-13T17:34:50.982Z</time>
      </trkpt>
      <trkpt lat="47.550221" lon="7.853833">
        <ele>329.740654</ele>
        <time>2021-11-13T17:35:38.274Z</time>
      </trkpt>
      <trkpt lat="47.549883" lon="7.854434">
        <ele>330.384039</ele>
        <time>2021-11-13T17:35:48.394Z</time>
      </trkpt>
      <trkpt lat="47.549566" lon="7.855225">
        <ele>330.677856</ele>
        <time>2021-11-13T17:36:02.253Z</time>
      </trkpt>
      <trkpt lat="47.549362" lon="7.855774">
        <ele>330.878019</ele>
        <time>2021-11-13T17:36:10.741Z</time>
      </trkpt>
      <trkpt lat="47.548887" lon="7.857308">
        <ele>331.185321</ele>
        <time>2021-11-13T17:36:32.849Z</time>
      </trkpt>
      <trkpt lat="47.548743" lon="7.857692">
        <ele>331.230555</ele>
        <time>2021-11-13T17:36:38.821Z</time>
      </trkpt>
      <trkpt lat="47.548701" lon="7.857893">
        <ele>331.252222</ele>
        <time>2021-11-13T17:36:41.792Z</time>
      </trkpt>
      <trkpt lat="47.548686" lon="7.857973">
        <ele>331.260772</ele>
        <time>2021-11-13T17:36:42.916Z</time>
      </trkpt>
      <trkpt lat="47.548611" lon="7.858381">
        <ele>331.304315</ele>
        <time>2021-11-13T17:36:49.130Z</time>
      </trkpt>
      <trkpt lat="47.548334" lon="7.859801">
        <ele>332.183072</ele>
        <time>2021-11-13T17:37:12.167Z</time>
      </trkpt>
      <trkpt lat="47.548049" lon="7.860929">
        <ele>333.148763</ele>
        <time>2021-11-13T17:37:33.186Z</time>
      </trkpt>
      <trkpt lat="47.547930" lon="7.861711">
        <ele>333.898689</ele>
        <time>2021-11-13T17:37:47.949Z</time>
      </trkpt>
      <trkpt lat="47.547568" lon="7.863151">
        <ele>335.563083</ele>
        <time>2021-11-13T17:38:17.077Z</time>
      </trkpt>
      <trkpt lat="47.547320" lon="7.863864">
        <ele>336.370118</ele>
        <time>2021-11-13T17:38:31.017Z</time>
      </trkpt>
      <trkpt lat="47.546974" lon="7.864423">
        <ele>336.339643</ele>
        <time>2021-11-13T17:38:41.840Z</time>
      </trkpt>
      <trkpt lat="47.546885" lon="7.864500">
        <ele>336.333507</ele>
        <time>2021-11-13T17:38:44.925Z</time>
      </trkpt>
      <trkpt lat="47.546894" lon="7.864837">
        <ele>336.319956</ele>
        <time>2021-11-13T17:38:48.809Z</time>
      </trkpt>
      <trkpt lat="47.546889" lon="7.865225">
        <ele>336.304362</ele>
        <time>2021-11-13T17:38:54.234Z</time>
      </trkpt>
      <trkpt lat="47.546819" lon="7.865489">
        <ele>336.292965</ele>
        <time>2021-11-13T17:38:58.179Z</time>
      </trkpt>
      <trkpt lat="47.546510" lon="7.865766">
        <ele>336.271465</ele>
        <time>2021-11-13T17:39:04.813Z</time>
      </trkpt>
      <trkpt lat="47.546327" lon="7.865959">
        <ele>336.184504</ele>
        <time>2021-11-13T17:39:08.328Z</time>
      </trkpt>
      <trkpt lat="47.546096" lon="7.866147">
        <ele>336.007608</ele>
        <time>2021-11-13T17:39:12.884Z</time>
      </trkpt>
      <trkpt lat="47.545240" lon="7.866887">
        <ele>335.342419</ele>
        <time>2021-11-13T17:39:29.557Z</time>
      </trkpt>
      <trkpt lat="47.545160" lon="7.866985">
        <ele>335.272746</ele>
        <time>2021-11-13T17:39:31.513Z</time>
      </trkpt>
      <trkpt lat="47.545003" lon="7.867278">
        <ele>335.103262</ele>
        <time>2021-11-13T17:39:37.182Z</time>
      </trkpt>
      <trkpt lat="47.544568" lon="7.867693">
        <ele>335.629093</ele>
        <time>2021-11-13T17:39:49.972Z</time>
      </trkpt>
      <trkpt lat="47.544469" lon="7.867776">
        <ele>335.773435</ele>
        <time>2021-11-13T17:39:52.834Z</time>
      </trkpt>
      <trkpt lat="47.544410" lon="7.867825">
        <ele>335.859262</ele>
        <time>2021-11-13T17:39:54.923Z</time>
      </trkpt>
      <trkpt lat="47.544246" lon="7.867967">
        <ele>336.100299</ele>
        <time>2021-11-13T17:39:59.606Z</time>
      </trkpt>
      <trkpt lat="47.544214" lon="7.867988">
        <ele>336.144709</ele>
        <time>2021-11-13T17:40:00.454Z</time>
      </trkpt>
      <trkpt lat="47.543801" lon="7.868269">
        <ele>336.721393</ele>
        <time>2021-11-13T17:40:12.058Z</time>
      </trkpt>
      <trkpt lat="47.543657" lon="7.868359">
        <ele>336.919711</ele>
        <time>2021-11-13T17:40:16.409Z</time>
      </trkpt>
      <trkpt lat="47.543201" lon="7.868657">
        <ele>337.340346</ele>
        <time>2021-11-13T17:40:26.890Z</time>
      </trkpt>
      <trkpt lat="47.543105" lon="7.868711">
        <ele>337.340346</ele>
        <time>2021-11-13T17:40:29.490Z</time>
      </trkpt>
      <trkpt lat="47.543049" lon="7.868759">
        <ele>337.340346</ele>
        <time>2021-11-13T17:40:30.869Z</time>
      </trkpt>
      <trkpt lat="47.542722" lon="7.869201">
        <ele>337.340346</ele>
        <time>2021-11-13T17:40:40.467Z</time>
      </trkpt>
      <trkpt lat="47.542696" lon="7.869257">
        <ele>337.340346</ele>
        <time>2021-11-13T17:40:41.213Z</time>
      </trkpt>
      <trkpt lat="47.542663" lon="7.869338">
        <ele>337.340346</ele>
        <time>2021-11-13T17:40:42.397Z</time>
      </trkpt>
      <trkpt lat="47.542657" lon="7.869354">
        <ele>337.340346</ele>
        <time>2021-11-13T17:40:42.621Z</time>
      </trkpt>
      <trkpt lat="47.542488" lon="7.869585">
        <ele>337.340346</ele>
        <time>2021-11-13T17:40:47.119Z</time>
      </trkpt>
    </trkseg>
  </trk>
</gpx>